[[{"header":{"parameterUnit":"m.s-1","parameterCategory":1,"la1":30.6,"la2":29.2853,"lo1":-89.7004,"lo2":-87.6739,"dy":0.0162,"dx":0.0183,"nx":112,"ny":82,"refTime":"2023-04-14T12:00:00:Z","depth":0,"parameterNumber":2,"parameterNumberName":"U-component_of_WINDS"},"data":[0.0,0.0,0.0,0.0,0.0,0.0,0.0,0.0,0.0,0.0,0.0,0.0,0.0,0.0,0.0,0.0,0.0,0.0,0.0,0.0,0.0,0.0,0.0,0.0,0.0,0.0,0.0,0.0,0.0,0.0,0.0,0.0,0.0,0.0,0.0,0.0,0.0,0.0,0.0,0.0,0.0,0.0,0.0,0.0,0.0,0.0,0.0,0.0,0.0,0.0,0.0,0.0,0.0,0.0,0.0,0.0,0.0,0.0,0.0,0.0,0.0,0.0,0.0,0.0,0.0,0.0,0.0,0.0,0.0,0.0,0.0,0.0,0.0,0.0,0.0,0.0,0.0,0.0,0.0,0.0,0.0,0.0,0.0,0.0,0.0,0.0,0.0,0.0,0.0,0.0,0.0,-2.3885,-2.3836,-2.3506,-2.2753,-2.3379,-2.3792,-2.3793,0.0,0.0,0.0,0.0,0.0,0.0,0.0,0.0,0.0,0.0,0.0,0.0,0.0,0.0,0.0,0.0,0.0,0.0,0.0,0.0,0.0,0.0,0.0,0.0,0.0,0.0,0.0,0.0,0.0,0.0,0.0,0.0,0.0,0.0,0.0,0.0,0.0,0.0,0.0,0.0,0.0,0.0,0.0,0.0,0.0,0.0,0.0,0.0,0.0,0.0,0.0,0.0,0.0,0.0,0.0,0.0,0.0,0.0,0.0,0.0,0.0,0.0,0.0,0.0,0.0,0.0,0.0,0.0,0.0,0.0,0.0,0.0,0.0,0.0,0.0,0.0,0.0,0.0,0.0,0.0,0.0,0.0,0.0,0.0,0.0,0.0,0.0,0.0,0.0,0.0,0.0,0.0,0.0,0.0,0.0,0.0,0.0,0.0,0.0,0.0,0.0,0.0,0.0,0.0,-2.3098,-2.2942,-2.3436,-2.3506,-2.2753,-2.3379,-2.3782,-2.3721,0.0,0.0,0.0,0.0,0.0,0.0,0.0,0.0,0.0,0.0,0.0,0.0,0.0,0.0,0.0,0.0,0.0,0.0,0.0,0.0,0.0,0.0,0.0,0.0,0.0,0.0,0.0,0.0,0.0,0.0,0.0,0.0,0.0,0.0,0.0,0.0,0.0,0.0,0.0,0.0,0.0,0.0,0.0,0.0,0.0,0.0,0.0,0.0,0.0,0.0,0.0,0.0,0.0,0.0,0.0,0.0,0.0,0.0,0.0,0.0,0.0,0.0,0.0,0.0,0.0,0.0,0.0,0.0,0.0,0.0,0.0,0.0,0.0,0.0,0.0,0.0,0.0,0.0,0.0,0.0,0.0,0.0,0.0,0.0,0.0,0.0,0.0,0.0,0.0,0.0,0.0,0.0,0.0,0.0,0.0,0.0,0.0,0.0,0.0,0.0,0.0,0.0,0.0,-2.3096,-2.2646,-2.2121,-2.3107,-2.3324,-2.2138,-2.3125,-2.3771,-2.3711,-2.3721,0.0,0.0,0.0,0.0,0.0,0.0,0.0,0.0,0.0,0.0,0.0,0.0,0.0,0.0,0.0,0.0,0.0,0.0,0.0,0.0,0.0,0.0,0.0,0.0,0.0,0.0,0.0,0.0,0.0,0.0,0.0,0.0,0.0,0.0,0.0,0.0,0.0,0.0,0.0,0.0,0.0,0.0,0.0,0.0,0.0,0.0,0.0,0.0,0.0,0.0,0.0,0.0,0.0,0.0,0.0,0.0,0.0,0.0,0.0,0.0,0.0,0.0,0.0,0.0,0.0,0.0,0.0,0.0,0.0,0.0,0.0,0.0,0.0,0.0,0.0,0.0,0.0,0.0,0.0,0.0,0.0,0.0,0.0,0.0,0.0,0.0,0.0,0.0,0.0,0.0,0.0,0.0,0.0,0.0,0.0,0.0,0.0,0.0,0.0,0.0,0.0,0.0,-2.23,-2.2101,-2.1296,-2.2618,-2.296,-2.1527,-2.2826,-2.3707,-2.3627,-2.3611,0.0,0.0,0.0,0.0,0.0,0.0,0.0,0.0,0.0,0.0,0.0,0.0,0.0,0.0,0.0,0.0,0.0,0.0,0.0,0.0,0.0,0.0,0.0,0.0,0.0,0.0,0.0,0.0,0.0,0.0,0.0,0.0,0.0,0.0,0.0,0.0,0.0,0.0,0.0,0.0,0.0,0.0,0.0,0.0,0.0,0.0,0.0,0.0,0.0,0.0,0.0,0.0,0.0,0.0,0.0,0.0,0.0,0.0,0.0,0.0,0.0,0.0,0.0,0.0,0.0,0.0,0.0,0.0,0.0,0.0,0.0,0.0,0.0,0.0,0.0,0.0,0.0,0.0,0.0,0.0,0.0,0.0,0.0,0.0,0.0,0.0,0.0,0.0,0.0,0.0,0.0,0.0,0.0,0.0,0.0,0.0,0.0,0.0,0.0,0.0,0.0,0.0,-2.1115,-2.1278,-2.0463,-2.1812,-2.2329,-2.1225,-2.2593,-2.3486,-2.3435,-2.3354,0.0,0.0,0.0,0.0,0.0,0.0,0.0,0.0,0.0,0.0,0.0,0.0,0.0,0.0,0.0,0.0,0.0,0.0,0.0,0.0,0.0,0.0,0.0,0.0,0.0,0.0,0.0,0.0,0.0,0.0,0.0,0.0,0.0,0.0,0.0,0.0,0.0,0.0,0.0,0.0,0.0,0.0,0.0,0.0,0.0,0.0,0.0,0.0,0.0,0.0,0.0,0.0,0.0,0.0,0.0,0.0,0.0,0.0,0.0,0.0,0.0,0.0,0.0,0.0,0.0,0.0,0.0,0.0,0.0,0.0,0.0,0.0,0.0,0.0,0.0,0.0,0.0,0.0,0.0,0.0,0.0,0.0,0.0,0.0,0.0,0.0,0.0,0.0,0.0,0.0,0.0,0.0,0.0,0.0,0.0,0.0,0.0,0.0,0.0,0.0,0.0,0.0,-2.0554,-2.0635,0.0,-2.1287,-2.1783,-2.1388,-2.2207,-2.2986,-2.3547,0.0,0.0,0.0,0.0,0.0,0.0,0.0,0.0,0.0,0.0,0.0,0.0,0.0,0.0,0.0,0.0,0.0,0.0,0.0,0.0,0.0,0.0,0.0,0.0,0.0,0.0,0.0,0.0,0.0,0.0,0.0,0.0,0.0,0.0,0.0,0.0,0.0,0.0,0.0,0.0,0.0,0.0,0.0,0.0,0.0,0.0,0.0,0.0,0.0,0.0,0.0,0.0,0.0,0.0,0.0,0.0,0.0,0.0,0.0,0.0,0.0,0.0,0.0,0.0,0.0,0.0,0.0,0.0,0.0,0.0,0.0,0.0,0.0,0.0,0.0,0.0,0.0,0.0,0.0,0.0,0.0,0.0,0.0,0.0,0.0,0.0,0.0,0.0,0.0,0.0,0.0,0.0,0.0,0.0,0.0,0.0,0.0,0.0,0.0,0.0,0.0,0.0,-1.9749,-1.9768,-1.9722,0.0,-2.0432,-2.0868,-2.0771,-2.1575,-2.2239,-2.2589,0.0,0.0,0.0,0.0,0.0,0.0,0.0,0.0,0.0,0.0,0.0,0.0,0.0,0.0,0.0,0.0,0.0,0.0,0.0,0.0,0.0,0.0,0.0,0.0,0.0,0.0,0.0,0.0,0.0,0.0,0.0,0.0,0.0,0.0,0.0,0.0,0.0,0.0,0.0,0.0,0.0,0.0,0.0,0.0,0.0,0.0,0.0,0.0,0.0,0.0,0.0,0.0,0.0,0.0,0.0,0.0,0.0,0.0,0.0,0.0,0.0,0.0,0.0,0.0,0.0,0.0,0.0,0.0,0.0,0.0,0.0,0.0,0.0,0.0,0.0,0.0,0.0,0.0,0.0,0.0,0.0,0.0,0.0,0.0,0.0,0.0,0.0,0.0,0.0,0.0,0.0,0.0,0.0,0.0,0.0,0.0,0.0,0.0,0.0,0.0,0.0,0.0,-1.8815,-1.8646,-1.853,-1.853,-1.919,-1.9507,-1.9252,-2.0689,-2.1224,0.0,0.0,0.0,0.0,0.0,0.0,0.0,0.0,0.0,0.0,0.0,0.0,0.0,0.0,0.0,0.0,0.0,0.0,0.0,0.0,0.0,0.0,0.0,0.0,0.0,0.0,0.0,0.0,0.0,0.0,0.0,0.0,0.0,0.0,0.0,0.0,0.0,0.0,0.0,0.0,0.0,0.0,0.0,0.0,0.0,0.0,0.0,0.0,0.0,0.0,0.0,0.0,0.0,0.0,0.0,0.0,0.0,0.0,0.0,0.0,0.0,0.0,0.0,0.0,0.0,0.0,0.0,0.0,0.0,0.0,0.0,0.0,0.0,0.0,0.0,0.0,0.0,0.0,0.0,0.0,0.0,0.0,0.0,0.0,0.0,0.0,0.0,0.0,0.0,0.0,0.0,0.0,0.0,0.0,0.0,0.0,0.0,0.0,0.0,0.0,0.0,0.0,0.0,-1.9428,-1.9808,-2.0039,-2.0047,-2.0243,-2.0567,-2.1069,-2.1359,-2.1507,-2.1429,0.0,0.0,0.0,0.0,0.0,0.0,0.0,0.0,0.0,0.0,0.0,0.0,0.0,0.0,0.0,0.0,0.0,0.0,0.0,0.0,0.0,0.0,0.0,0.0,0.0,0.0,0.0,0.0,0.0,0.0,0.0,0.0,0.0,0.0,0.0,0.0,0.0,0.0,0.0,0.0,0.0,0.0,0.0,0.0,0.0,0.0,0.0,0.0,0.0,0.0,0.0,0.0,0.0,0.0,0.0,0.0,0.0,0.0,0.0,0.0,0.0,0.0,0.0,0.0,0.0,0.0,0.0,0.0,0.0,0.0,0.0,0.0,0.0,0.0,0.0,0.0,0.0,0.0,0.0,0.0,0.0,0.0,0.0,0.0,0.0,0.0,0.0,0.0,0.0,0.0,0.0,0.0,0.0,0.0,0.0,0.0,0.0,0.0,0.0,0.0,0.0,0.0,-1.999,-2.0235,-2.0407,-2.0425,-2.0419,-2.0614,-2.1105,-2.1284,-2.131,-2.115,0.0,0.0,0.0,0.0,0.0,0.0,0.0,0.0,0.0,0.0,0.0,0.0,0.0,0.0,0.0,0.0,0.0,0.0,0.0,0.0,0.0,0.0,0.0,0.0,0.0,0.0,0.0,0.0,0.0,0.0,0.0,0.0,0.0,0.0,0.0,0.0,0.0,0.0,0.0,0.0,0.0,0.0,0.0,0.0,0.0,0.0,0.0,0.0,0.0,0.0,0.0,0.0,0.0,0.0,0.0,0.0,0.0,0.0,0.0,0.0,0.0,0.0,0.0,0.0,0.0,0.0,0.0,0.0,0.0,0.0,0.0,0.0,0.0,0.0,0.0,0.0,0.0,0.0,0.0,0.0,0.0,0.0,0.0,0.0,0.0,0.0,0.0,0.0,0.0,0.0,0.0,0.0,0.0,0.0,0.0,0.0,0.0,0.0,0.0,0.0,0.0,0.0,-2.0503,-2.0334,-2.0204,-2.0204,-2.0204,-2.0204,-2.0204,-2.0889,-2.0961,-2.0162,0.0,0.0,0.0,0.0,0.0,0.0,0.0,0.0,0.0,0.0,0.0,0.0,0.0,0.0,0.0,0.0,0.0,0.0,0.0,0.0,0.0,0.0,0.0,0.0,0.0,0.0,0.0,0.0,0.0,0.0,0.0,0.0,0.0,0.0,0.0,0.0,0.0,0.0,0.0,0.0,0.0,0.0,0.0,0.0,0.0,0.0,0.0,0.0,0.0,0.0,0.0,0.0,0.0,0.0,0.0,0.0,0.0,0.0,0.0,0.0,-2.0591,0.0,0.0,0.0,0.0,0.0,0.0,0.0,0.0,0.0,0.0,0.0,0.0,0.0,0.0,0.0,0.0,0.0,0.0,0.0,0.0,0.0,0.0,0.0,0.0,0.0,0.0,0.0,0.0,0.0,0.0,0.0,0.0,0.0,0.0,0.0,0.0,0.0,0.0,0.0,0.0,0.0,-2.1161,-2.1559,-2.1806,-2.1806,-2.1806,-2.1806,-2.1806,-2.1972,-2.1735,-2.0991,-2.1775,0.0,0.0,0.0,0.0,0.0,0.0,0.0,0.0,0.0,0.0,0.0,0.0,0.0,0.0,0.0,0.0,0.0,0.0,0.0,0.0,0.0,0.0,0.0,0.0,0.0,0.0,0.0,0.0,0.0,0.0,0.0,0.0,0.0,0.0,0.0,0.0,0.0,0.0,0.0,0.0,0.0,0.0,0.0,0.0,0.0,0.0,0.0,0.0,0.0,0.0,0.0,0.0,0.0,0.0,0.0,0.0,0.0,0.0,0.0,0.0,-2.2223,0.0,0.0,0.0,0.0,0.0,0.0,0.0,0.0,0.0,0.0,0.0,0.0,0.0,0.0,0.0,0.0,0.0,0.0,0.0,0.0,0.0,0.0,0.0,0.0,0.0,0.0,0.0,0.0,0.0,0.0,0.0,0.0,0.0,0.0,0.0,0.0,0.0,0.0,0.0,0.0,-2.1884,-2.2139,-2.2338,-2.231,-2.2296,-2.2296,-2.2296,-2.2296,-2.2071,-2.1524,-2.1845,0.0,0.0,0.0,0.0,0.0,0.0,0.0,0.0,0.0,0.0,0.0,0.0,0.0,0.0,0.0,0.0,0.0,0.0,0.0,0.0,0.0,0.0,0.0,0.0,0.0,0.0,0.0,0.0,0.0,0.0,0.0,0.0,0.0,0.0,0.0,0.0,0.0,0.0,0.0,0.0,0.0,0.0,0.0,0.0,0.0,0.0,0.0,0.0,0.0,0.0,0.0,0.0,0.0,-2.4153,-2.405,-2.388,-2.3859,-2.388,-2.3958,-2.4127,-2.4366,-2.4567,-2.4544,0.0,0.0,0.0,0.0,0.0,0.0,0.0,0.0,0.0,0.0,0.0,0.0,0.0,0.0,0.0,0.0,0.0,0.0,0.0,0.0,0.0,0.0,0.0,0.0,-2.0133,-2.0119,0.0,0.0,0.0,0.0,0.0,0.0,0.0,0.0,0.0,0.0,0.0,0.0,-2.2446,-2.2419,-2.2377,-2.2324,-2.2324,-2.231,-2.2296,-2.2296,-2.218,-2.1901,-2.1842,-2.1646,0.0,0.0,0.0,0.0,0.0,0.0,0.0,0.0,0.0,0.0,0.0,0.0,0.0,0.0,0.0,0.0,0.0,0.0,0.0,0.0,0.0,0.0,0.0,0.0,0.0,0.0,0.0,0.0,0.0,0.0,0.0,0.0,-2.1098,-2.1765,0.0,0.0,0.0,0.0,0.0,0.0,0.0,0.0,0.0,0.0,0.0,0.0,0.0,-2.4508,-2.4462,-2.4162,-2.4,-2.3931,-2.3071,-2.267,-2.2613,-2.2507,-2.2604,-2.2983,-2.447,0.0,-2.4874,-2.5268,0.0,0.0,0.0,0.0,0.0,0.0,0.0,0.0,0.0,0.0,0.0,0.0,0.0,0.0,0.0,0.0,0.0,0.0,0.0,0.0,0.0,0.0,-2.2963,-2.2979,-2.3096,-2.321,0.0,-2.14,-1.9694,-1.9681,-2.0212,0.0,0.0,0.0,0.0,0.0,0.0,0.0,-2.2582,-2.2511,-2.246,-2.2391,-2.2394,-2.2349,-2.231,-2.2296,-2.2282,-2.224,-2.1959,-2.1783,-2.1721,-2.1433,0.0,0.0,0.0,0.0,0.0,0.0,0.0,0.0,0.0,0.0,0.0,0.0,0.0,0.0,0.0,0.0,0.0,0.0,0.0,0.0,0.0,0.0,0.0,0.0,0.0,0.0,0.0,0.0,0.0,-2.2628,-2.286,-2.349,-2.367,-2.3934,0.0,0.0,0.0,0.0,0.0,0.0,0.0,0.0,0.0,-2.6112,-2.6159,-2.6159,-2.6127,-2.5995,-2.5901,-2.5854,-2.5499,-2.5248,-2.5097,-2.505,-2.4955,-2.4942,-2.5947,-2.6274,-2.617,-2.6587,-2.6739,-2.6631,0.0,0.0,0.0,0.0,-2.5035,-2.4986,-2.4646,-2.4496,0.0,-2.4514,0.0,0.0,0.0,0.0,0.0,0.0,0.0,0.0,0.0,0.0,-2.3634,-2.353,-2.3565,-2.3634,-2.3634,-2.2671,-2.185,0.0,-2.2612,-2.3023,-2.2872,0.0,0.0,0.0,0.0,-2.3861,-2.3787,-2.3759,-2.3597,-2.3284,-2.3239,-2.2995,-2.235,-2.2302,-2.206,-2.1481,-2.1308,-2.1151,-2.0974,-2.0958,-2.1023,0.0,0.0,0.0,0.0,0.0,0.0,0.0,0.0,0.0,0.0,0.0,0.0,0.0,0.0,0.0,0.0,0.0,0.0,0.0,0.0,0.0,0.0,0.0,0.0,0.0,0.0,0.0,0.0,-2.4209,-2.4442,-2.5082,-2.5292,-2.5569,0.0,0.0,0.0,0.0,0.0,0.0,-2.6693,-2.6956,-2.7285,-2.769,-2.7869,-2.7958,-2.7958,-2.7958,-2.7958,-2.7943,-2.7893,-2.7752,-2.7562,-2.7675,-2.7555,-2.7297,-2.7861,-2.7992,-2.774,-2.7708,-2.7705,-2.7656,-2.7154,-2.696,-2.6895,-2.6325,-2.6131,-2.6099,-2.5937,-2.5872,-2.584,-2.5662,-2.5597,-2.55,-2.4952,0.0,0.0,0.0,0.0,-2.4513,-2.4311,-2.4259,-2.4225,-2.4066,-2.4047,-2.4047,-2.4047,-2.4083,-2.4091,0.0,-2.4242,-2.4461,-2.4208,0.0,0.0,0.0,0.0,-2.4871,-2.4778,-2.4778,-2.4596,-2.416,-2.4112,-2.3718,-2.2785,-2.2704,-2.2264,-2.126,-2.1097,-2.0867,-2.0441,-2.0578,-2.0694,-2.0711,0.0,0.0,0.0,0.0,0.0,0.0,0.0,0.0,0.0,0.0,0.0,0.0,0.0,0.0,0.0,0.0,0.0,0.0,0.0,0.0,0.0,0.0,0.0,0.0,0.0,0.0,0.0,0.0,0.0,-2.6026,-2.6139,0.0,0.0,0.0,0.0,-2.7323,-2.7434,-2.751,-2.754,-2.8143,-2.8517,-2.8547,-2.916,-2.949,-2.949,-2.949,-2.949,-2.9475,-2.8846,-2.8547,-2.8547,-2.8941,-2.9098,-2.9123,-3.0157,-3.0183,-2.9387,-2.8196,-2.7705,-2.7705,-2.7672,-2.7656,-2.7656,-2.7624,-2.7591,-2.751,-2.6863,-2.6636,-2.6523,-2.5843,-2.5597,-2.5581,-2.5549,-2.5535,0.0,0.0,-2.5521,-2.5521,-2.5503,-2.5503,-2.5503,-2.5503,-2.5484,-2.5484,-2.5484,-2.5691,-2.541,0.0,-2.3547,-2.3617,-2.3786,0.0,-2.4032,-2.454,-2.4616,-2.4707,-2.4962,-2.4974,-2.4898,-2.4686,-2.4656,-2.4425,-2.3884,-2.3835,-2.3358,-2.228,-2.1929,-2.1472,-2.0809,-2.0492,-2.046,-2.0794,-2.0827,0.0,0.0,0.0,0.0,0.0,0.0,0.0,0.0,0.0,0.0,0.0,0.0,0.0,0.0,0.0,0.0,0.0,0.0,0.0,0.0,0.0,0.0,0.0,0.0,0.0,0.0,0.0,0.0,-2.6674,-2.7237,0.0,-2.7943,-2.849,-2.8823,-2.8823,-2.8861,-2.8888,-2.8888,-2.9101,-2.922,-2.922,-2.9487,-2.9606,-2.9606,-2.9606,-2.9606,-2.9606,-2.934,-2.9209,-2.914,-2.9624,-2.9765,-2.9703,-3.0473,-3.0754,-3.0653,-3.021,-2.945,-2.8588,-2.8473,-2.8401,-2.8336,-2.7883,-2.7705,-2.7672,-2.7429,-2.7348,-2.73,-2.7057,-2.694,-2.6879,-2.6442,-2.6312,-2.6215,-2.5726,-2.5597,-2.5597,-2.5597,-2.5597,-2.5597,-2.5597,-2.5597,-2.5597,-2.5597,-2.5691,-2.5566,-2.497,-2.5129,-2.534,-2.5236,-2.5359,-2.5547,-2.5732,-2.5765,-2.5782,-2.5831,-2.5831,-2.5682,-2.5324,-2.5273,-2.4848,-2.3802,-2.3715,-2.3303,-2.2371,-2.2194,-2.181,-2.1159,-2.1005,-2.0804,-2.0475,-2.0695,-2.1007,0.0,0.0,0.0,0.0,0.0,0.0,0.0,0.0,0.0,0.0,0.0,0.0,0.0,0.0,0.0,0.0,0.0,0.0,0.0,0.0,0.0,0.0,0.0,0.0,0.0,0.0,-2.753,-2.783,-2.8429,-2.8815,-2.8815,-2.9298,-2.9669,-2.9879,-2.9894,-2.9998,-3.0223,-3.0462,-3.0567,-3.0567,-3.0791,-3.0924,-3.0924,-3.0924,-3.0924,-3.0924,-3.0924,-3.0981,-3.1104,-3.1394,-3.1606,-3.1653,-3.1848,-3.1863,-3.1764,-3.1755,-3.0974,-2.9792,-2.9601,-2.9518,-2.9421,-2.8709,-2.8433,-2.8401,-2.8158,-2.7915,-2.7705,-2.7705,-2.7705,-2.7624,-2.717,-2.7041,-2.6944,-2.6458,-2.6309,-2.6309,-2.6309,-2.615,-2.5969,-2.5969,-2.5775,-2.5597,-2.5597,-2.5597,-2.5597,-2.5597,-2.5881,-2.6064,-2.5899,-2.601,-2.6171,-2.6243,-2.6278,-2.6279,-2.633,-2.6331,-2.6207,-2.5866,-2.5846,-2.5375,-2.4248,-2.4139,-2.3705,-2.2709,-2.2624,-2.2351,-2.1673,-2.1642,-2.1319,-2.0641,-2.0754,-2.0909,-2.1135,0.0,0.0,0.0,0.0,0.0,0.0,0.0,0.0,0.0,0.0,0.0,0.0,0.0,0.0,0.0,0.0,0.0,0.0,0.0,0.0,0.0,0.0,0.0,-2.8257,-2.8222,-2.8581,-2.9507,-2.9624,-2.9681,-2.9696,-2.9711,-2.9953,-3.0552,-3.0597,-3.0896,-3.1525,-3.2168,-3.2542,-3.2542,-3.3155,-3.3499,-3.3499,-3.3499,-3.3499,-3.3499,-3.353,-3.3819,-3.4366,-3.4272,-3.4531,-3.5053,-3.4415,-3.362,-3.2745,-3.2702,-3.2121,-3.1258,-3.1026,-3.0937,-3.0856,-3.022,-2.9945,-2.9832,-2.9102,-2.8369,-2.7769,-2.7769,-2.7769,-2.7769,-2.7753,-2.7737,-2.7737,-2.7721,-2.7705,-2.7705,-2.7705,-2.7219,-2.6733,-2.6733,-2.6199,-2.5662,-2.5662,-2.5646,-2.5629,-2.5629,-2.5613,-2.5597,-2.5597,-2.5597,-2.5675,-2.5954,-2.599,0.0,-2.6349,-2.6383,-2.6349,-2.6295,-2.6278,-2.5994,-2.5269,-2.5192,-2.4653,-2.3403,-2.3332,-2.3025,-2.2347,-2.2336,-2.2012,-2.1304,-2.0987,-2.081,-2.0794,0.0,0.0,0.0,0.0,0.0,0.0,0.0,0.0,0.0,0.0,0.0,0.0,0.0,0.0,0.0,0.0,0.0,0.0,0.0,0.0,0.0,0.0,-2.8692,-2.8724,-2.8777,-2.9165,-2.9999,-3.0617,-3.1152,-3.1659,-3.2138,-3.2497,-3.2662,-3.2677,-3.2766,-3.2946,-3.3125,-3.323,-3.323,-3.3395,-3.3499,-3.3499,-3.3499,-3.3499,-3.3499,-3.3924,-3.4014,-3.3789,-3.4615,-3.486,-3.462,-3.4849,-3.4675,-3.4226,-3.42,-3.3835,-3.3215,-3.2119,-3.1697,-3.1688,-3.1494,-3.1089,-3.0538,-2.9848,-2.9459,-2.9297,-2.9297,-2.9297,-2.92,-2.8644,-2.8498,-2.8385,-2.785,-2.7705,-2.7705,-2.7705,-2.7559,-2.7429,-2.7429,-2.7284,-2.7118,-2.7118,-2.6749,-2.6409,-2.6409,-2.5972,-2.5597,-2.5597,-2.5597,-2.5635,-2.5694,-2.5712,0.0,-2.5807,-2.5824,-2.5807,-2.5787,-2.5787,-2.5584,-2.5088,-2.5048,-2.4752,-2.4061,-2.4025,-2.3717,-2.304,-2.3025,-2.249,-2.1319,-2.1457,-2.1283,0.0,0.0,0.0,0.0,0.0,0.0,0.0,0.0,0.0,0.0,0.0,0.0,0.0,0.0,0.0,0.0,0.0,0.0,0.0,0.0,0.0,0.0,-2.9842,-3.0119,-3.0191,-3.0057,-3.0363,-3.1485,-3.2064,-3.2497,-3.2886,-3.3275,-3.3604,-3.3888,-3.3903,-3.4038,-3.4322,-3.4337,-3.4337,-3.4337,-3.4337,-3.4337,-3.4337,-3.4337,-3.4337,-3.4337,-3.4697,-3.4805,-3.4759,-3.5408,-3.5527,-3.5223,-3.5522,-3.5463,-3.5182,-3.5182,-3.4924,0.0,0.0,0.0,0.0,0.0,-3.1713,-3.126,-3.0554,-3.0312,-3.0263,-2.9977,-2.9896,-2.9815,-2.9394,-2.9264,-2.9167,-2.8746,-2.8611,-2.8611,-2.8611,-2.8385,-2.8158,-2.8158,-2.7931,-2.7705,-2.7705,-2.7397,-2.7122,-2.7122,-2.6782,0.0,-2.6118,-2.5791,-2.5597,-2.5597,-2.5597,-2.5597,-2.5597,-2.5597,-2.5597,-2.5597,-2.5597,-2.5445,-2.5025,-2.5005,0.0,0.0,0.0,-2.4133,-2.3748,-2.3456,0.0,0.0,0.0,-2.1686,-2.1016,0.0,0.0,0.0,-2.0795,-2.0877,0.0,0.0,0.0,0.0,0.0,0.0,0.0,0.0,0.0,0.0,0.0,0.0,0.0,0.0,0.0,0.0,-3.1511,-3.2119,-3.2193,-3.1751,-3.1975,-3.3439,-3.3604,-3.3634,-3.3724,-3.3724,-3.3963,-3.4578,-3.4623,-3.4861,-3.5474,0.0,0.0,0.0,0.0,-3.5504,-3.5504,-3.5504,-3.5504,-3.5504,-3.5569,-3.5861,-3.629,-3.6311,-3.6295,-3.6321,-3.6281,-3.6071,-3.576,-3.587,-3.5701,-3.5195,-3.3785,-3.3194,-3.3113,-3.2384,-3.2125,-3.2028,-3.1276,0.0,0.0,-3.0237,-3.001,-2.9994,-2.9913,-2.9896,-2.9896,-2.9896,-2.9896,-2.9896,-2.9896,-2.941,-2.8924,-2.8924,-2.8417,-2.7948,-2.7948,-2.7883,-2.7834,-2.7834,-2.7769,-2.751,-2.6911,-2.6215,-2.5694,-2.5613,-2.5597,-2.5597,-2.5597,-2.5597,-2.5597,-2.5597,0.0,0.0,-2.5025,-2.4966,-2.4766,-2.4323,-2.4302,-2.4302,-2.4302,-2.3733,-2.3379,-2.3302,-2.2736,-2.2089,-2.1411,-2.121,-2.0803,-2.0207,-2.0695,-2.0682,0.0,0.0,0.0,0.0,0.0,0.0,0.0,0.0,0.0,0.0,0.0,0.0,0.0,0.0,0.0,-3.1368,-3.217,-3.3005,-3.3551,-3.3522,-3.3663,-3.4231,-3.4324,-3.4502,-3.5055,-3.5115,-3.5175,-3.5295,-3.531,-3.537,-3.5489,-3.5504,-3.5504,-3.5504,-3.5504,-3.5504,-3.5504,-3.5504,-3.5504,-3.5504,0.0,0.0,-3.5668,-3.6152,-3.6384,-3.6414,-3.6934,-3.6717,-3.6111,-3.6998,-3.6869,-3.5946,-3.4473,-3.3906,-3.3825,-3.3129,-3.2886,-3.2773,-3.2044,-3.1801,-3.1665,-3.0937,-3.071,-3.0619,-3.0058,-2.9896,0.0,-2.9896,-2.9896,-2.9896,-2.9896,-2.9783,-2.9686,-2.9686,-2.9572,-2.9475,-2.9475,-2.9021,-2.86,-2.86,-2.8109,-2.7672,-2.7543,-2.6944,-2.6296,-2.5678,-2.5597,-2.5597,-2.5597,-2.5597,-2.5597,-2.5597,-2.5448,-2.5256,-2.5025,-2.4806,-2.4569,-2.4317,-2.4302,-2.4302,-2.4302,-2.4179,-2.3856,-2.3302,-2.3163,-2.2778,-2.2105,-2.1547,-2.1139,-2.0895,-2.0428,-2.0256,0.0,0.0,0.0,0.0,0.0,0.0,0.0,0.0,0.0,0.0,0.0,-3.0759,0.0,0.0,-3.2027,-3.2007,-3.2985,-3.3801,-3.3997,-3.4419,-3.4803,-3.4996,-3.4916,-3.5019,-3.5474,-3.5504,-3.5504,-3.5504,-3.5504,-3.5504,-3.5504,-3.5504,-3.5504,-3.5504,-3.5504,-3.5504,-3.5504,-3.5504,-3.5504,-3.5504,-3.5797,-3.5797,-3.5537,-3.6101,-3.6227,-3.6005,-3.6631,-3.6733,-3.6524,-3.6901,-3.6761,-3.6178,-3.5123,-3.4683,-3.4579,-3.3858,-3.3599,-3.3485,-3.2789,-3.2546,-3.2433,-3.1704,-3.1438,-3.1309,-3.0619,-3.0393,-3.0328,-2.9994,-2.9896,-2.9896,-2.9896,-2.9896,-2.9896,-2.9896,-2.9896,-2.9896,-2.9896,-2.9605,-2.9345,-2.9345,-2.9054,-2.8676,-2.8304,-2.7964,-2.7494,-2.6766,-2.6377,-2.615,-2.615,-2.5824,-2.5597,-2.5597,-2.5521,-2.5333,-2.5041,-2.465,-2.4405,-2.4302,-2.4302,-2.4302,-2.4302,-2.4302,-2.4148,-2.381,-2.381,-2.3471,-2.2794,-2.2455,-2.2098,-2.1688,-2.1329,-2.0809,0.0,0.0,0.0,0.0,0.0,0.0,0.0,0.0,-3.0761,-3.0952,-3.1011,-3.1171,-3.1629,-3.2234,-3.2653,-3.2678,-3.3805,-3.4539,-3.4218,-3.4887,-3.5407,-3.5504,-3.5359,-3.5326,-3.5472,-3.5504,-3.5504,-3.5504,-3.5504,-3.5504,-3.5504,-3.5504,-3.5504,-3.5504,-3.5504,-3.5504,-3.5504,-3.5504,-3.5504,-3.5504,-3.5504,-3.5504,-3.5504,-3.599,-3.5973,-3.5537,-3.5958,-3.6461,-3.6859,-3.6371,-3.6225,-3.6234,-3.5574,-3.534,-3.5303,-3.4593,-3.4214,-3.402,-3.3469,-3.3291,-3.3161,-3.2449,-3.2222,-3.2093,-3.1341,-3.1017,-3.0791,-3.0247,-2.9994,-2.9896,-2.9896,-2.9896,-2.9896,-2.9896,-2.9896,-2.9896,-2.9896,-2.9896,-2.9896,-2.9896,-2.9896,-2.9702,-2.9119,-2.9021,-2.8709,-2.7834,-2.7235,-2.6895,-2.6895,-2.6264,-2.5788,-2.5734,-2.5567,-2.5314,-2.4906,-2.4508,-2.4302,-2.4302,-2.4302,-2.4302,-2.4302,-2.4302,-2.4302,-2.4302,-2.4302,-2.404,-2.3486,-2.3363,-2.3025,-2.2505,-2.2347,-2.1547,-3.0642,-3.0702,-3.0791,-3.0791,-3.0925,-3.1014,0.0,0.0,-3.1176,-3.1598,-3.1777,-3.1968,-3.2312,-3.3262,-3.3866,-3.3438,-3.4353,-3.5029,-3.4832,-3.489,-3.5115,-3.5472,-3.5472,-3.5472,-3.5504,-3.5504,-3.5504,-3.5504,-3.5504,-3.5504,-3.5504,-3.5504,-3.5504,-3.5504,-3.5504,-3.5504,-3.5504,-3.5504,-3.5504,-3.5504,-3.5504,-3.5504,-3.5504,-3.5569,-3.5554,-3.5504,-3.5377,-3.5943,-3.6829,-3.6089,-3.6011,-3.6322,-3.5582,-3.5644,-3.6073,-3.5341,-3.4651,-3.4084,-3.4003,-3.3987,-3.3874,-3.3194,-3.2967,-3.2838,-3.2109,-3.1422,-3.0888,-3.0807,-3.036,-2.9896,-2.9896,-2.9896,-2.9896,-2.9896,-2.9896,-2.9896,-2.9896,-2.9896,-2.9896,-2.9896,-2.9896,-2.9864,-2.9783,-2.9767,-2.9297,-2.7915,-2.764,-2.7591,-2.7591,-2.6992,-2.6496,-2.625,-2.5528,-2.4886,-2.4405,-2.4323,-2.4302,-2.4302,-2.4302,-2.4302,-2.4302,-2.4302,-2.4302,-2.4302,-2.4302,-2.4271,-2.4194,-2.3594,-2.3255,-2.3163,-2.2582,-2.1814,-3.0925,-3.0925,0.0,0.0,-3.1442,-3.1737,-3.1543,-3.1852,-3.2252,-3.2454,-3.256,-3.2752,-3.3302,-3.3753,-3.4144,0.0,-3.4725,-3.5001,-3.4902,-3.5001,-3.5148,-3.5326,-3.5326,-3.5359,-3.5504,-3.5504,-3.5504,-3.5504,-3.5504,-3.5504,-3.5504,-3.5504,-3.5504,-3.5504,-3.5504,-3.5504,-3.5504,-3.5504,-3.5504,-3.5504,-3.5504,-3.5504,-3.5504,-3.5504,-3.5439,-3.5326,-3.5509,-3.5623,-3.5608,-3.5544,-3.5657,-3.5804,-3.5484,-3.5493,-3.5644,-3.4888,-3.4673,-3.4667,-3.4246,-3.4101,-3.4052,-3.3761,-3.368,-3.355,-3.2854,-3.2417,-3.2012,-3.1131,-3.0694,-3.0393,-2.9994,-2.9896,-2.9896,-2.9896,-2.9896,-2.9896,-2.9896,-2.9896,-2.9896,-2.9896,-2.9896,-2.9896,-2.9896,-2.9896,-2.9686,-2.907,-2.8632,-2.8336,-2.8336,-2.7721,-2.7026,-2.6375,-2.5381,-2.469,-2.4487,-2.4364,-2.4302,-2.4302,-2.4302,-2.4302,-2.4302,-2.4302,-2.4302,-2.4302,-2.4302,-2.4302,-2.4302,-2.4025,-2.3887,-2.3887,-2.3594,-2.3067,-3.1087,0.0,0.0,-3.153,-3.2109,-3.2585,-3.2403,-3.2743,-3.3175,-3.3288,-3.3395,-3.3587,-3.4156,-3.4339,-3.4502,-3.4795,-3.4902,-3.4968,-3.4902,-3.5034,-3.5148,-3.518,-3.518,-3.5261,-3.5392,-3.5439,-3.5439,-3.5439,-3.5439,-3.5439,-3.5439,-3.5439,-3.5439,-3.5439,-3.5472,-3.5504,-3.5504,-3.5504,-3.5504,-3.5504,-3.5504,-3.5472,-3.5439,-3.5359,-3.5294,-3.5213,-3.5462,-3.5249,-3.4731,-3.5019,-3.5121,-3.5121,-3.5121,-3.5197,-3.5233,-3.4483,-3.4506,-3.488,-3.4519,-3.4262,-3.4101,-3.4101,-3.4101,-3.4003,-3.3518,-3.3267,-3.287,-3.1817,-3.1212,-3.0791,-3.0295,-3.0042,-2.9896,-2.9896,-2.9896,-2.9896,-2.9896,-2.9896,-2.9896,-2.9896,-2.9896,-2.9896,-2.9896,-2.9896,-2.9896,-2.9896,-2.9378,-2.9017,-2.9081,-2.8408,-2.7531,-2.6522,-2.5502,-2.4869,-2.4808,-2.4493,-2.4302,-2.4302,-2.4219,-2.4156,-2.4156,-2.4073,-2.403,-2.403,-2.4114,-2.4156,-2.4156,-2.4261,-2.4302,-2.4302,-2.4302,-2.402,0.0,0.0,-3.2273,-3.2273,-3.287,-3.3439,-3.3269,-3.3376,-3.3602,-3.4072,-3.4301,-3.4556,-3.482,-3.5184,-3.5279,-3.4798,-3.4983,-3.5115,-3.4935,-3.4902,-3.4968,-3.518,-3.518,-3.518,0.0,-3.5213,-3.5213,-3.5213,-3.5213,-3.5213,-3.5213,-3.5213,-3.5213,-3.5213,-3.5392,-3.5504,-3.5504,-3.5504,-3.5504,-3.5504,-3.5504,-3.5392,-3.518,-3.5001,-3.5001,-3.518,-3.4865,-3.4731,-3.4698,-3.4515,-3.4448,-3.4448,-3.4448,-3.4839,-3.5312,-3.4575,-3.4284,-3.4327,-3.4955,-3.4683,-3.4101,-3.4101,-3.4101,-3.4101,-3.4084,-3.3615,-3.3105,-3.3032,-3.2012,-3.0904,-3.0872,-3.0393,-2.9896,-2.9896,-2.9896,-2.9896,-2.9896,-2.9896,-2.9896,-2.9896,-2.9896,-2.9896,-2.9896,-2.9896,-2.9896,-2.9896,-2.9671,-2.9566,-2.9826,-2.9038,-2.8023,-2.6826,-2.6086,-2.5565,-2.5309,-2.4687,-2.4302,-2.4302,-2.3988,-2.3818,-2.3818,-2.3516,-2.3341,-2.3341,-2.3646,-2.3818,-2.3818,-2.4135,-2.4302,-2.4302,-2.4302,-2.424,0.0,0.0,-3.2972,-3.3063,-3.3633,-3.4111,-3.3955,-3.436,-3.4827,-3.486,-3.4904,-3.4978,-3.507,-3.5115,-3.5082,-3.5049,-3.4931,-3.4898,-3.4902,-3.527,-3.5535,-3.5467,-3.5967,0.0,0.0,0.0,0.0,-3.6052,-3.6048,-3.6227,-3.663,-3.666,-3.666,-3.666,-3.6339,-3.6148,-3.6148,-3.5729,-3.5504,-3.5504,-3.5504,-3.5472,-3.5392,-3.518,-3.5082,-3.5001,-3.4798,-3.4631,-3.4481,-3.4414,-3.4414,-3.4414,-3.4414,-3.4534,-3.4758,-3.4966,-3.4722,-3.4301,-3.4479,-3.4372,-3.4154,-3.412,-3.4101,-3.4101,-3.4101,-3.3939,-3.3663,-3.3226,-3.274,-3.2255,-3.1746,-3.1105,-3.0571,-3.0571,-3.0214,-2.9896,-2.9896,-2.9896,-2.9896,-2.9896,-2.9896,-2.9896,-2.9896,-2.9896,-2.9896,-2.9896,-2.9814,-2.9681,-2.9396,-2.8717,-2.8,-2.7429,-2.665,-2.5929,-2.5364,-2.4887,-2.4438,-2.3997,-2.3646,-2.3473,-2.3473,-2.3363,-2.3297,-2.3297,-2.3407,-2.3473,-2.3473,-2.3566,-2.3754,-2.3967,-2.3867,-2.3782,-3.2554,-3.3181,-3.3734,-3.3858,-3.4352,-3.4814,-3.4703,-3.5111,-3.5472,-3.5326,-3.5261,-3.518,-3.518,-3.5034,-3.4935,-3.5082,-3.4916,-3.4817,-3.4902,-3.5413,-3.5742,-3.5605,-3.6309,-3.672,0.0,0.0,0.0,-3.652,-3.655,-3.6694,-3.708,-3.7179,-3.7179,-3.7109,-3.6928,-3.6668,-3.641,-3.5959,-3.5598,-3.5294,-3.5243,-3.5228,-3.5294,-3.5016,-3.4883,-3.4817,-3.465,-3.4515,-3.4414,-3.4414,-3.4414,-3.4414,-3.4414,-3.4414,-3.4433,-3.4872,-3.4723,-3.4367,-3.4519,-3.4279,-3.3905,-3.4085,-3.3844,-3.3575,-3.3975,-3.3958,-3.3719,-3.3517,-3.3136,-3.2731,-3.2466,-3.1692,-3.0963,-3.0907,-3.0419,-2.991,-2.9669,-2.947,-2.9364,-2.9576,-2.9621,-2.9665,-2.9874,-2.9748,-2.9576,-2.9493,-2.9341,-2.9182,-2.8974,-2.8527,-2.8077,-2.7632,-2.6894,-2.6199,-2.5629,-2.498,-2.4395,-2.3977,-2.34,-2.3083,-2.3083,-2.2971,-2.2904,-2.2904,-2.3016,-2.3083,-2.3083,-2.3231,-2.3407,-2.3625,-2.3523,-2.3399,-3.3195,-3.3944,-3.4563,-3.4563,-3.5026,-3.5504,-3.5504,-3.5504,-3.5504,-3.5504,-3.5326,-3.518,0.0,0.0,-3.4902,-3.4902,-3.4902,-3.4902,-3.4902,-3.5341,-3.5648,0.0,0.0,0.0,0.0,0.0,0.0,-3.6702,0.0,-3.6672,-3.6702,-3.6893,-3.6893,-3.6702,-3.7169,-3.7063,-3.6297,-3.6223,-3.5751,-3.4902,-3.4783,-3.4783,-3.4902,-3.4582,-3.4515,-3.4698,-3.4481,-3.4414,-3.4414,-3.4414,-3.4414,-3.4414,-3.4414,-3.4414,-3.4414,-3.4414,-3.4414,-3.448,-3.5075,-3.4434,-3.3444,-3.3987,-3.3396,-3.2676,-3.3704,-3.362,-3.3329,-3.3892,-3.3157,-3.2342,-3.2941,-3.2109,-3.1098,-3.1001,-3.0495,-2.9896,-2.9287,-2.8701,-2.8448,-2.8958,-2.9051,-2.9227,-2.9732,-2.9364,-2.8935,-2.8709,-2.8336,-2.8176,-2.8591,-2.8535,-2.8189,-2.7463,-2.6867,-2.6426,-2.6125,-2.4996,-2.4223,-2.4187,-2.3244,-2.2715,-2.2686,-2.2379,-2.2208,-2.2208,-2.2503,-2.2672,-2.2686,-2.3061,-2.3253,-2.3275,-2.3275,-2.3105,-3.4156,-3.4694,-3.525,-3.525,-3.537,-3.5504,-3.5504,-3.5504,-3.5504,-3.5504,-3.5326,-3.518,0.0,0.0,0.0,-3.4935,-3.4902,0.0,-3.475,-3.5683,0.0,-3.6125,0.0,-3.7959,-3.7797,-3.782,0.0,0.0,-3.7616,-3.7723,-3.8208,-3.831,-3.831,-3.8238,-3.791,-3.7606,-3.7408,-3.6448,-3.5602,-3.4902,-3.4868,-3.4868,-3.4902,-3.4716,-3.4664,-3.4698,-3.4481,-3.4414,-3.4414,-3.4414,-3.4414,-3.4414,-3.4414,-3.4414,-3.4414,-3.4414,-3.4414,-3.4419,-3.4596,-3.4352,-3.3969,-3.3646,-3.3637,-3.3611,-3.3029,-3.3018,-3.3251,-3.3381,-3.2919,-3.2473,-3.3039,-3.2207,-3.1348,-3.1779,-3.0654,-2.957,-2.9793,-2.9028,-2.8336,-2.8472,-2.8496,-2.8543,-2.8685,-2.8264,-2.8021,-2.8336,-2.7765,-2.7393,-2.7685,-2.7745,-2.7605,-2.7214,-2.7026,-2.6731,-2.6144,-2.5558,-2.4829,-2.3887,-2.3302,-2.2791,-2.2361,-2.2254,-2.2208,-2.2208,-2.2287,-2.2333,-2.2333,-2.2426,-2.2609,-2.2844,-2.2791,-2.2563,-3.4846,-3.5205,-3.5504,-3.5504,-3.5504,-3.5504,-3.5504,-3.5504,-3.5472,-3.5392,-3.5213,0.0,0.0,0.0,0.0,0.0,0.0,0.0,-3.5165,-3.5936,-3.6539,0.0,-3.7681,0.0,-3.8202,-3.8202,-3.8202,0.0,-3.8054,-3.8157,-3.8509,-3.8612,-3.8612,-3.8523,-3.8319,-3.8082,-3.7731,-3.6437,-3.5531,-3.5126,-3.48,-3.4668,-3.4668,-3.4616,-3.4563,-3.4563,0.0,-3.4414,-3.4414,-3.4414,-3.4414,-3.4414,-3.4414,-3.4414,-3.4414,-3.4414,-3.4414,-3.4414,-3.4414,-3.4386,-3.428,-3.3864,-3.3392,-3.3033,-3.3144,-3.2846,-3.2555,-3.305,-3.261,-3.2132,-3.2707,-3.2129,-3.1463,-3.1747,-3.0792,-2.9759,-2.9452,-2.8687,-2.8026,-2.7959,-2.8143,-2.8288,-2.8288,-2.7799,-2.75,-2.7824,-2.7148,-2.6671,-2.6803,-2.6956,-2.6967,-2.6695,-2.6616,-2.6419,-2.6032,-2.5604,-2.5018,-2.4319,-2.353,-2.2943,-2.2615,-2.2348,-2.2208,-2.2208,-2.2208,-2.2208,-2.2208,-2.2208,-2.224,-2.2319,-2.2394,-2.2114,-3.534,-3.5504,-3.5504,-3.5504,-3.5504,-3.5504,-3.5472,-3.5472,-3.5392,-3.518,0.0,-3.4835,-3.475,-3.4582,-3.4549,-3.4835,0.0,-3.4738,-3.5585,-3.6061,-3.6519,-3.7114,-3.7781,-3.8202,-3.8202,-3.8202,-3.8202,-3.8202,-3.8202,-3.8202,-3.8202,-3.8366,-3.8366,-3.8202,-3.8538,-3.8341,-3.7579,-3.6403,-3.5691,-3.5392,-3.4806,-3.4501,-3.4414,-3.4414,-3.4414,-3.4414,-3.4414,-3.4414,-3.4414,-3.4414,-3.4414,-3.4414,-3.4414,-3.4414,-3.4414,-3.4414,-3.4414,-3.4414,-3.4414,-3.4414,-3.4365,-3.4236,-3.312,-3.2116,-3.3442,-3.2782,-3.1814,-3.2707,-3.2198,-3.1508,-3.2104,-3.1823,-3.1374,-3.1345,-3.0842,-3.0065,-2.9014,-2.8204,-2.7627,-2.7461,-2.7765,-2.807,-2.811,-2.7575,-2.717,-2.7195,-2.6575,-2.6084,-2.6084,-2.6285,-2.6324,-2.6084,-2.5975,-2.5893,-2.5893,-2.5428,-2.5091,-2.5021,-2.3955,-2.3308,-2.3224,-2.2634,-2.232,-2.232,-2.225,-2.2208,-2.2208,-2.2208,-2.2067,-2.1793,-2.2044,-2.1722,-3.5474,-3.5504,-3.5504,-3.5504,-3.5504,-3.5472,-3.5294,-3.5261,0.0,0.0,0.0,-3.475,-3.4835,-3.475,0.0,-3.4731,0.0,0.0,0.0,0.0,-3.6344,0.0,0.0,0.0,0.0,0.0,0.0,0.0,0.0,-3.8202,-3.8202,-3.824,-3.824,-3.8202,-3.8277,-3.7986,-3.7353,-3.7106,-3.6453,-3.5392,-3.529,-3.4922,-3.4414,-3.4414,-3.4414,-3.4414,-3.4414,0.0,-3.4414,-3.4414,-3.4414,-3.4414,-3.4414,-3.4414,-3.4414,-3.4414,-3.4414,-3.4414,-3.4414,-3.4414,-3.4312,-3.3791,-3.3721,-3.3593,-3.2327,-3.2109,-3.2168,-3.1873,-3.1306,-3.0896,-3.1508,-3.1204,-3.0896,-3.133,-3.0583,-2.9825,-3.0095,-2.8876,-2.7549,-2.7027,-2.6867,-2.6878,-2.7037,-2.6724,-2.6498,-2.6628,-2.6338,-2.6084,-2.6084,-2.6029,-2.6002,-2.5948,-2.5921,-2.5893,-2.5893,-2.5795,-2.5514,-2.5035,-2.4795,-2.4444,-2.3938,-2.3305,-2.2929,-2.2929,-2.2461,-2.2208,-2.2208,-2.2208,-2.2067,-2.1793,-2.1841,-2.1568,-3.5504,-3.5504,-3.5504,-3.5504,-3.5504,-3.5439,-3.5261,0.0,0.0,0.0,0.0,-3.4698,-3.465,0.0,0.0,0.0,0.0,0.0,0.0,0.0,0.0,0.0,0.0,0.0,0.0,0.0,0.0,0.0,0.0,-3.8202,-3.8202,-3.8202,-3.8202,-3.8202,-3.8202,-3.8072,-3.7781,-3.7462,-3.6823,-3.5851,-3.5552,-3.5058,-3.4414,-3.4414,-3.4414,-3.4414,-3.4414,0.0,-3.4414,-3.4414,-3.4414,-3.4414,-3.4414,-3.4414,-3.4414,-3.4414,-3.4414,-3.4414,-3.4414,-3.4414,-3.4356,-3.4051,-3.3915,-3.3691,-3.2783,-3.2221,-3.1884,-3.1587,-3.1058,-3.0657,-3.097,-3.0836,-3.0657,-3.097,-3.0309,-2.9668,-2.9955,-2.8804,-2.7581,-2.7223,-2.6808,-2.6525,-2.6527,-2.634,-2.6218,-2.6285,-2.6111,-2.6002,-2.6002,-2.5948,-2.5893,-2.5893,-2.5893,-2.5893,-2.5893,-2.5893,-2.5767,-2.5472,-2.5175,-2.4866,-2.4585,-2.3966,-2.3628,-2.3628,-2.2985,-2.2662,-2.2662,-2.2362,-2.1996,-2.1616,-2.1722,-2.1471,-3.5504,-3.5504,-3.5504,-3.5504,-3.5504,-3.5439,-3.518,-3.5148,0.0,0.0,-3.4631,-3.4597,-3.4414,0.0,0.0,0.0,0.0,0.0,0.0,0.0,0.0,0.0,0.0,0.0,0.0,0.0,0.0,0.0,0.0,0.0,-3.8202,-3.8202,-3.8202,-3.8202,-3.8202,-3.8202,-3.8202,-3.7738,-3.7172,-3.6519,-3.5901,-3.5261,-3.4617,-3.4472,-3.4414,-3.4414,-3.4414,0.0,0.0,-3.4414,-3.4414,-3.4414,-3.4414,-3.4414,-3.4414,-3.4414,-3.4414,-3.4414,-3.4414,-3.4414,-3.4414,-3.4414,-3.408,-3.3675,-3.3467,-3.263,-3.1691,-3.1531,-3.1087,-3.0598,-3.0598,-3.0598,-3.0598,-3.0598,-3.019,-2.9755,-2.9624,-2.8812,-2.8001,-2.7616,-2.7072,-2.6603,-2.6381,-2.6165,-2.6056,-2.6084,-2.5975,-2.5893,-2.5893,-2.5893,-2.5893,-2.5893,-2.5893,-2.5893,-2.5893,-2.5893,-2.5893,-2.5893,-2.5444,-2.5203,-2.5203,-2.4613,-2.4289,-2.4289,-2.3656,-2.3213,-2.301,-2.2534,-2.1955,-2.1326,-2.1544,-2.1302,-3.5504,-3.5504,-3.5504,-3.5504,-3.5504,-3.5392,-3.5001,0.0,0.0,0.0,-3.4414,-3.4414,-3.4414,-3.4414,-3.4414,0.0,0.0,0.0,0.0,0.0,0.0,0.0,0.0,0.0,0.0,0.0,0.0,0.0,0.0,0.0,-3.8202,-3.8202,-3.8202,-3.8202,-3.8202,-3.8202,-3.8202,-3.8144,-3.781,-3.7201,-3.6533,-3.5894,-3.529,-3.4675,-3.4414,-3.4414,-3.4414,0.0,0.0,-3.4414,-3.4414,-3.4414,-3.4414,-3.4414,-3.4414,-3.4414,-3.4414,-3.4414,-3.4414,-3.4414,-3.4414,-3.4414,-3.437,-3.4211,-3.3671,-3.2998,-3.228,-3.1675,-3.1078,-3.0598,-3.0598,-3.0598,-3.0598,-3.0598,-3.0554,-3.0321,-2.9726,-2.9508,-2.9073,-2.79,-2.7446,-2.7079,-2.6558,-2.6177,-2.5948,-2.6084,-2.5975,-2.5893,-2.5893,-2.5893,-2.5893,-2.5893,-2.5893,-2.5893,-2.5893,-2.5893,-2.5893,-2.5893,-2.5837,-2.5809,-2.5809,-2.5246,-2.4922,-2.4922,-2.4317,-2.3588,-2.2754,-2.2674,-2.2087,-2.1033,-2.1057,-2.0947,-3.4758,-3.5133,-3.5504,-3.5504,-3.5407,-3.5261,-3.4968,0.0,0.0,-3.4448,-3.4414,-3.4414,-3.4414,-3.4414,-3.4414,0.0,0.0,0.0,0.0,0.0,0.0,0.0,0.0,0.0,0.0,0.0,0.0,0.0,0.0,0.0,-3.8202,-3.8202,-3.8202,-3.8202,-3.8202,-3.8202,-3.8202,-3.8202,-3.7897,-3.7302,-3.6635,-3.5967,-3.5378,-3.4704,-3.4414,-3.4414,-3.4414,0.0,0.0,-3.4414,-3.4414,-3.4414,-3.4414,-3.4414,-3.4414,-3.4414,-3.4414,-3.4414,-3.4414,-3.4414,-3.4414,-3.4414,-3.4414,-3.4298,-3.3692,-3.3314,-3.2875,-3.1816,-3.1337,-3.1061,-3.0699,-3.0598,-3.0598,-3.0598,-3.0598,-3.0495,-3.0099,-2.9738,-2.9305,-2.8728,-2.7797,-2.7072,-2.6898,-2.6324,-2.5921,-2.5975,-2.5921,-2.5893,-2.5893,-2.5893,-2.5893,-2.5893,-2.5893,-2.5893,-2.5893,-2.5893,-2.5893,-2.5893,-2.5893,-2.5893,-2.5893,-2.5655,-2.5528,-2.5528,-2.495,-2.4359,-2.3784,-2.3425,-2.2842,-2.2072,-2.1713,-2.1414,-3.4095,-3.4691,-3.5198,-3.5424,-3.518,-3.4839,0.0,0.0,-3.3997,-3.4045,-3.4045,-3.3977,-3.3756,-3.4079,-3.4332,0.0,0.0,0.0,0.0,0.0,0.0,0.0,0.0,0.0,0.0,0.0,0.0,0.0,0.0,0.0,-3.8202,-3.8202,-3.8202,-3.8202,-3.8202,-3.8202,-3.8202,-3.8202,-3.7984,-3.7564,-3.6707,-3.6083,-3.5654,-3.4791,-3.4414,-3.4414,-3.4414,0.0,0.0,-3.4414,-3.4414,-3.4414,-3.4414,-3.4414,-3.4414,-3.4414,-3.4414,-3.4414,-3.4414,-3.4414,-3.4414,-3.4414,-3.4414,-3.4327,-3.3891,-3.3649,-3.33,-3.2353,-3.1816,-3.1366,-3.0772,-3.0568,-3.0538,-3.0598,-3.0538,-3.0477,-3.0312,-2.9981,-2.9577,-2.9227,-2.8295,-2.7471,-2.713,-2.6567,-2.6104,-2.5921,-2.5893,-2.5893,-2.5893,-2.5893,-2.5893,-2.5893,-2.5893,-2.5893,-2.5893,-2.5893,-2.5893,-2.5893,-2.5893,-2.5893,-2.5893,-2.5893,-2.5893,-2.5893,-2.5472,-2.5016,-2.4529,-2.3862,-2.3191,-2.2577,-2.1903,-2.1432,-3.3808,-3.4163,-3.4495,-3.5311,-3.4758,-3.4177,0.0,0.0,-3.25,-3.3073,-3.3213,-3.3003,-3.2254,-3.3346,-3.4147,-3.3332,-3.3894,0.0,0.0,0.0,0.0,0.0,0.0,0.0,0.0,0.0,0.0,0.0,0.0,0.0,-3.8202,-3.8202,-3.8202,-3.8202,-3.8202,-3.8202,-3.8202,-3.8202,-3.8202,-3.8188,-3.691,-3.6301,-3.6257,-3.4994,-3.4414,-3.4414,0.0,0.0,0.0,-3.4414,-3.4414,-3.4414,-3.4414,-3.4414,-3.4414,-3.4414,-3.4414,-3.4414,-3.4414,-3.4414,-3.4414,-3.4414,-3.4414,-3.4414,-3.4399,-3.3964,-3.3503,-3.3489,-3.2513,-3.1366,-3.0772,-3.0447,-3.0357,-3.0538,-3.0447,-3.0282,-3.0282,-3.0282,-3.005,-2.9254,-2.8963,-2.8477,-2.7216,-2.6891,-2.6596,-2.5992,-2.5893,-2.5893,-2.5893,-2.5893,-2.5893,-2.5893,-2.5893,-2.5893,-2.5893,-2.5893,-2.5893,-2.5893,-2.5893,-2.5893,-2.5893,-2.5893,-2.5893,-2.5893,-2.5879,-2.5449,-2.4609,-2.3782,-2.2954,-2.2077,-2.1291,-2.0655,-3.2205,-3.2727,-3.3206,-3.3463,-3.3185,-3.289,-3.308,-3.2635,-3.2218,-3.2398,-3.2434,-3.2362,-3.2146,-3.2519,-3.2733,-3.2506,-3.2662,0.0,0.0,0.0,0.0,0.0,0.0,0.0,0.0,0.0,0.0,0.0,0.0,0.0,-3.8202,-3.8202,-3.8202,-3.8202,-3.8202,-3.8202,-3.8202,-3.8202,-3.8202,-3.8188,-3.691,-3.6301,-3.6272,-3.4994,-3.4414,0.0,0.0,0.0,0.0,-3.4414,-3.4414,-3.4414,-3.4414,-3.4414,-3.4414,-3.4414,-3.4414,-3.4414,-3.4414,-3.4414,-3.4414,-3.4414,-3.4414,-3.4414,-3.4414,-3.4283,-3.4022,-3.3634,-3.2527,-3.1451,-3.1264,-3.0765,-3.0312,-3.0387,-3.028,-3.0127,-2.9976,-2.9962,-2.9875,-2.9629,-2.9139,-2.8669,-2.8348,-2.7455,-2.675,-2.654,-2.616,-2.5893,-2.5893,-2.5893,-2.5893,-2.5893,-2.5893,-2.5893,-2.5893,-2.5893,-2.5893,-2.5893,-2.5893,-2.5893,-2.5893,-2.5508,-2.5286,-2.5286,-2.4823,-2.4374,-2.3916,-2.3515,-2.2827,-2.1889,-2.1629,-2.1219,0.0,-3.1769,-3.2263,-3.2536,-3.2249,0.0,0.0,-3.1746,-3.1331,-3.1599,-3.1636,-3.1563,-3.1294,-3.1723,-3.2001,-3.1709,-3.1892,0.0,0.0,0.0,0.0,0.0,0.0,0.0,0.0,0.0,0.0,0.0,0.0,0.0,-3.8165,-3.7886,-3.772,-3.772,-3.8037,-3.8202,-3.8202,-3.797,-3.7705,-3.7399,-3.6404,-3.5796,-3.5468,-3.4741,-3.4414,0.0,0.0,0.0,0.0,-3.4414,-3.4414,-3.4414,-3.4414,-3.4414,-3.4414,-3.4414,-3.4414,-3.4414,-3.4414,-3.4414,-3.4414,-3.4414,-3.4414,-3.4414,-3.4414,-3.4414,-3.425,-3.3578,-3.2778,-3.2009,-3.1469,-3.0896,-3.0444,-3.0276,-3.0097,-2.996,-2.9822,-2.9808,-2.9777,-2.973,-2.9341,-2.8987,-2.8854,-2.8088,-2.7355,-2.6877,-2.6483,-2.616,-2.5921,-2.5893,-2.5893,-2.5893,-2.5893,-2.5811,-2.5591,-2.5784,-2.5893,-2.5893,-2.5702,-2.5564,-2.5564,-2.495,-2.4637,-2.4637,-2.415,-2.3829,-2.3666,-2.3195,-2.2462,-2.1565,-2.1565,-2.1248,0.0,0.0,0.0,0.0,0.0,0.0,0.0,-3.0921,0.0,-3.0683,-3.082,-3.062,-2.9934,-3.0972,-3.1673,-3.0932,-3.1452,0.0,0.0,0.0,0.0,0.0,0.0,0.0,0.0,0.0,0.0,0.0,0.0,0.0,-3.7962,-3.7246,-3.6819,-3.6819,-3.7563,-3.7979,-3.7979,-3.7467,-3.6802,-3.5925,-3.5461,-3.4888,-3.4205,-3.4229,-3.4264,0.0,0.0,0.0,0.0,-3.438,-3.438,-3.4332,-3.438,-3.438,-3.4332,-3.438,-3.4414,-3.4414,-3.4414,-3.4414,-3.4414,-3.4414,-3.438,-3.438,-3.438,-3.438,-3.425,-3.3489,-3.3221,-3.2885,-3.1482,-3.0984,-3.0676,-3.0249,-2.9958,-2.9777,-2.9777,-2.9777,-2.9761,-2.9634,-2.9602,-2.942,-2.8858,-2.8717,-2.8296,-2.7116,-2.6905,-2.6652,-2.6034,-2.595,-2.595,-2.5893,-2.5866,-2.5619,-2.5061,-2.5508,-2.5839,-2.5839,-2.5286,-2.4948,-2.5005,-2.4295,-2.3933,-2.3933,-2.3771,-2.3653,-2.3653,-2.2756,-2.1951,-2.119,-2.119,-2.0948,-3.0075,0.0,-3.0228,-3.0394,0.0,0.0,0.0,-3.0075,-2.9869,-3.0037,0.0,0.0,-2.983,-3.0113,-3.0292,-3.0113,-3.0216,0.0,0.0,0.0,0.0,0.0,0.0,0.0,0.0,0.0,0.0,0.0,0.0,-3.5989,-3.6188,-3.6029,-3.5909,-3.5909,-3.5694,-3.5615,-3.5615,-3.6117,-3.5747,-3.4475,-3.3882,-3.3793,-3.4155,-3.3131,-3.2946,0.0,0.0,0.0,-3.352,-3.4147,-3.4045,-3.3555,-3.4147,-3.4031,-3.3555,-3.4147,-3.4414,-3.4414,-3.4414,-3.4414,-3.4414,-3.4414,-3.4312,-3.4162,-3.4162,-3.4264,-3.4351,-3.3975,-3.3566,-3.3087,-3.2587,-3.1624,-3.0775,-3.0665,-3.0142,-2.9665,-2.9665,-2.9665,-2.9634,-2.9602,-2.9602,-2.956,-2.942,-2.9012,-2.8591,-2.8296,-2.7846,-2.7312,-2.668,-2.6596,-2.6413,-2.595,-2.5481,-2.5146,-2.5005,-2.5118,-2.5202,-2.5202,-2.4595,-2.4452,-2.4977,-2.3917,-2.3314,-2.3314,-2.2689,-2.2316,-2.2192,-2.1827,-2.1494,-2.119,-2.119,-2.1132,-2.9792,-2.9792,-2.9792,-2.9792,-2.9792,-2.9792,-2.9792,0.0,0.0,0.0,0.0,0.0,0.0,0.0,0.0,0.0,-2.9792,0.0,0.0,0.0,0.0,0.0,0.0,0.0,0.0,0.0,0.0,0.0,0.0,-3.5196,-3.5574,-3.5237,-3.5047,-3.5047,-3.4513,-3.4391,-3.4811,-3.4703,-3.4111,-3.3026,-3.2735,-3.2636,-3.2659,-3.2259,-3.2326,0.0,0.0,0.0,-3.272,-3.3171,-3.3087,-3.272,-3.3171,-3.3276,-3.3262,-3.3707,-3.4079,-3.4414,-3.4414,-3.4346,-3.4264,-3.4264,-3.4142,-3.4005,-3.4005,-3.4074,-3.4122,-3.3937,-3.3693,-3.3398,-3.2828,-3.2127,-3.1378,-3.0799,-3.0341,-2.9954,-2.9673,-2.9602,-2.9602,-2.9602,-2.9602,-2.9602,-2.9602,-2.9336,-2.9012,-2.8731,-2.8408,-2.787,-2.6877,-2.6545,-2.6142,-2.5456,-2.487,-2.4423,-2.4163,-2.4134,-2.425,-2.4509,-2.3946,-2.3741,-2.4105,-2.31,-2.2506,-2.2457,-2.2018,-2.1718,-2.1549,-2.138,-2.1285,-2.119,-2.119,-2.119,-2.9792,-2.9792,-2.9792,-2.9792,-2.9792,-2.9792,-2.9792,0.0,0.0,0.0,0.0,0.0,0.0,0.0,0.0,0.0,0.0,0.0,0.0,0.0,0.0,0.0,0.0,0.0,0.0,0.0,0.0,0.0,0.0,-3.4496,-3.5183,-3.4566,-3.4189,-3.4189,-3.3526,-3.3513,-3.4283,-3.3322,-3.2404,-3.1576,-3.1705,-3.1452,-3.0932,-3.1489,-3.1833,-3.1928,0.0,0.0,-3.1928,-3.2051,-3.2051,-3.1928,-3.2037,-3.2398,-3.2847,-3.3003,-3.3451,-3.4045,-3.4045,-3.4011,-3.3908,-3.3805,-3.3716,-3.366,-3.3521,-3.3591,-3.3626,-3.3417,-3.3591,-3.3665,-3.2782,-3.2483,-3.2131,-3.1031,-3.0624,-3.0343,-2.9855,-2.9673,-2.9602,-2.9602,-2.9602,-2.9571,-2.9463,-2.9432,-2.9219,-2.8611,-2.851,-2.806,-2.6819,-2.628,-2.5708,-2.4984,-2.4355,-2.3781,-2.3286,-2.3047,-2.3177,-2.3682,-2.3237,-2.295,-2.2919,-2.2242,-2.1843,-2.1698,-2.1667,-2.158,-2.1388,-2.1285,-2.119,-2.119,-2.119,-2.119,-2.9792,-2.9792,-2.9792,-2.9792,-2.9792,-2.9792,-2.9792,0.0,0.0,0.0,0.0,0.0,0.0,0.0,0.0,0.0,0.0,0.0,0.0,0.0,0.0,0.0,0.0,0.0,0.0,0.0,0.0,0.0,0.0,-3.3368,-3.3471,-3.3356,-3.3283,-3.3283,-3.2259,-3.1797,-3.1907,-3.2032,-3.1395,-3.0137,-3.0164,-3.0419,-3.0895,-3.0394,-3.0495,-3.1068,0.0,-3.1068,-3.1156,-3.1819,-3.1709,-3.1156,-3.1819,-3.1746,-3.1328,-3.2037,-3.234,-3.2448,-3.2448,-3.2783,-3.3058,-3.2376,-3.2376,-3.2519,-3.1806,-3.2074,-3.2591,-3.2376,-3.2966,-3.3591,-3.3248,-3.2792,-3.2356,-3.2159,-3.1269,-3.0455,-3.0371,-2.9968,-2.9602,-2.9602,-2.9602,-2.9401,-2.8776,-2.8666,-2.8446,-2.7781,-2.7683,-2.7393,-2.6639,-2.6469,-2.617,-2.553,-2.4535,-2.3878,-2.3797,-2.2893,-2.2389,-2.2482,-2.2389,-2.2266,-2.2099,-2.1956,-2.1843,-2.1698,-2.1549,-2.1431,-2.1388,-2.1285,-2.119,-2.119,-2.119,-2.119,-2.9792,-2.9792,-2.9792,-2.9792,-2.9792,-2.9792,-2.9792,0.0,0.0,0.0,0.0,0.0,0.0,0.0,0.0,0.0,0.0,0.0,0.0,0.0,0.0,0.0,0.0,0.0,0.0,0.0,0.0,0.0,0.0,0.0,-3.3124,-3.3124,-3.3124,-3.3124,-3.1976,-3.1386,-3.1386,-3.0979,-3.0445,-2.9792,-2.9792,-2.9972,-3.0305,-2.996,-2.996,-3.0317,0.0,-3.0317,-3.0343,-3.0722,-3.0646,-3.0343,-3.0722,-3.0884,-3.1007,-3.1819,-3.211,-3.2074,-3.1978,-3.2051,-3.2101,-3.1636,-3.1526,-3.1513,-3.1143,-3.1291,-3.1659,-3.2001,-3.2832,-3.3536,-3.3361,-3.2758,-3.2277,-3.2366,-3.163,-3.0799,-3.0449,-2.9931,-2.9426,-2.8988,-2.8652,-2.8371,-2.8019,-2.7953,-2.7855,-2.7537,-2.7517,-2.7246,-2.6555,-2.6182,-2.5757,-2.5078,-2.4299,-2.3842,-2.3842,-2.3377,-2.283,-2.2234,-2.2197,-2.2061,-2.1812,-2.1874,-2.18,-2.1537,-2.1463,-2.1388,-2.1388,-2.1285,-2.119,-2.119,-2.119,-2.119,-2.9792,-2.9792,-2.9792,-2.9792,-2.9792,-2.9792,-2.9792,0.0,0.0,0.0,0.0,0.0,0.0,0.0,0.0,0.0,0.0,0.0,0.0,0.0,0.0,0.0,0.0,0.0,0.0,0.0,0.0,0.0,0.0,0.0,-3.3124,-3.3124,-3.3061,-3.288,-3.1913,-3.1336,-3.121,-3.0269,-2.9792,-2.9792,-2.9792,-2.9792,-2.9792,-2.9792,-2.9792,-2.9792,-2.9792,-2.9792,-2.9792,-2.9792,-2.9792,-2.9792,-2.9792,-3.0139,-3.0733,-3.1267,-3.1452,-3.1452,-3.1304,-3.1206,-3.1095,-3.082,-3.067,-3.0594,-3.0405,-3.0481,-3.0745,-3.1365,-3.2245,-3.2966,-3.3016,-3.2426,-3.1857,-3.2018,-3.1469,-3.0788,-3.0336,-2.9793,-2.9174,-2.8428,-2.7981,-2.7594,-2.7297,-2.725,-2.717,-2.7002,-2.6968,-2.6765,-2.6208,-2.5779,-2.5314,-2.4733,-2.4242,-2.3926,-2.3806,-2.3806,-2.3424,-2.2543,-2.2387,-2.2099,-2.1667,-2.1737,-2.1663,-2.1368,-2.1368,-2.1368,-2.1368,-2.1253,-2.119,-2.119,-2.119,-2.119,-2.9792,-2.9792,-2.9792,-2.9792,-2.9792,0.0,-2.9792,-2.9792,0.0,-2.9792,0.0,0.0,0.0,0.0,0.0,0.0,0.0,0.0,0.0,0.0,0.0,0.0,0.0,0.0,0.0,0.0,0.0,0.0,0.0,0.0,-3.3124,-3.3124,-3.283,-3.229,-3.17,-3.116,-3.067,-3.0093,-2.9792,-2.9792,-2.9792,-2.9792,-2.9792,-2.9792,-2.9792,-2.9792,-2.9792,-2.9792,-2.9792,-2.9792,-2.9792,-2.9792,-2.9792,-2.983,-2.9856,-2.9651,-2.96,-2.96,-2.9561,-2.9819,-2.9986,-2.9457,-2.9484,-2.9665,-2.8882,-2.9172,-2.9819,-2.9858,-3.0443,-3.1267,-3.2015,-3.1599,-3.0994,-3.0992,-3.0535,-3.0069,-3.003,-2.9572,-2.8974,-2.8404,-2.8273,-2.7872,-2.6674,-2.6483,-2.6242,-2.5546,-2.5441,-2.5441,-2.5382,-2.5346,-2.5287,-2.5252,-2.4783,-2.4278,-2.3842,-2.3806,-2.3703,-2.3409,-2.2956,-2.2297,-2.1443,-2.142,-2.1368,-2.1221,-2.1221,-2.1221,-2.1221,-2.119,-2.119,-2.119,-2.119,-2.119,-2.9792,-2.9792,-2.9792,-2.9792,-2.9792,0.0,0.0,-2.9792,-2.9792,-2.9792,-2.9792,0.0,0.0,0.0,0.0,0.0,0.0,0.0,0.0,0.0,0.0,0.0,0.0,0.0,0.0,0.0,0.0,0.0,0.0,0.0,-3.3124,-3.3124,-3.2805,-3.2227,-3.1675,-3.1135,-3.062,-3.0068,-2.9792,-2.9792,-2.9792,-2.9792,-2.9792,-2.9792,-2.9792,-2.9792,-2.9792,-2.9792,-2.9792,-2.9792,-2.9702,-2.956,-2.956,-2.9482,-2.9378,-2.9392,-2.9302,-2.9197,-2.9067,-2.9133,-2.9211,-2.8855,-2.8816,-2.8882,-2.859,-2.8697,-2.9067,-2.9549,-2.9549,-2.9704,-3.0994,-3.0745,-3.0304,-3.0782,-3.0364,-2.9795,-2.9795,-2.9362,-2.8757,-2.8052,-2.7667,-2.7149,-2.6356,-2.6223,-2.6006,-2.5395,-2.5312,-2.5312,-2.5312,-2.5312,-2.5312,-2.5312,-2.5131,-2.4939,-2.4747,-2.4723,-2.4487,-2.3845,-2.3416,-2.2937,-2.2352,-2.2341,-2.2253,-2.2144,-2.2144,-2.2144,-2.2144,-2.1372,-2.1018,-2.1006,-2.0205,-1.9835,-2.9792,-2.9792,-2.9792,-2.9792,0.0,0.0,-2.9792,-2.9792,-2.9842,-3.0018,-3.0181,0.0,0.0,0.0,0.0,0.0,0.0,0.0,0.0,0.0,0.0,0.0,0.0,0.0,0.0,0.0,0.0,0.0,0.0,0.0,0.0,-3.3124,-3.2729,-3.1976,-3.1587,-3.106,-3.0357,-2.998,-2.9792,-2.9792,-2.9792,-2.9792,-2.9792,-2.9792,-2.9792,-2.9792,-2.9792,-2.9792,-2.9792,-2.9792,-2.965,-2.938,-2.9341,-2.9236,-2.9091,-2.9184,-2.9106,-2.9013,-2.8843,-2.8764,-2.8685,-2.8618,-2.855,-2.851,-2.851,-2.851,-2.8618,-2.9184,-2.8922,-2.8736,-2.9858,-2.9742,-2.9445,-2.9999,-2.9704,-2.9328,-2.9328,-2.9043,-2.858,-2.7818,-2.739,-2.697,-2.6454,-2.6214,-2.5973,-2.5612,-2.542,-2.5312,-2.5312,-2.5312,-2.5312,-2.5312,-2.5312,-2.5312,-2.5312,-2.5312,-2.498,-2.4296,-2.4046,-2.3601,-2.2877,-2.2832,-2.2798,-2.2719,-2.2719,-2.2719,-2.2719,-2.1631,-2.108,-2.1069,-1.992,-1.9318,-2.9792,-2.9792,-2.9792,0.0,0.0,0.0,-2.9804,-2.9804,-2.9955,-3.0507,0.0,0.0,0.0,0.0,0.0,0.0,0.0,0.0,0.0,0.0,0.0,0.0,0.0,0.0,0.0,0.0,0.0,0.0,0.0,0.0,0.0,-3.3124,-3.2566,-3.1424,-3.1386,-3.0871,-2.9804,-2.9792,-2.9792,-2.9792,-2.9792,-2.9792,-2.9792,-2.9792,-2.9792,-2.9792,-2.9792,-2.9792,-2.9792,-2.9792,-2.965,-2.938,-2.9157,-2.9091,-2.9052,-2.8882,-2.8791,-2.8791,-2.8791,-2.8657,-2.855,-2.8724,-2.8657,-2.851,-2.851,-2.851,-2.851,-2.851,-2.851,-2.851,-2.851,-2.851,-2.851,-2.851,-2.851,-2.851,-2.851,-2.851,-2.8354,-2.7798,-2.769,-2.7522,-2.6994,-2.6478,-2.6105,-2.6093,-2.5648,-2.5312,-2.5312,-2.5312,-2.5312,-2.5312,-2.5312,-2.5312,-2.5312,-2.5312,-2.5147,-2.4825,-2.479,-2.4178,-2.2776,-2.273,-2.273,-2.273,-2.273,-2.273,-2.2696,-2.1883,-2.149,-2.1455,-2.0603,-1.9955,-2.9792,-2.9792,0.0,-2.9792,0.0,0.0,0.0,-3.0369,0.0,0.0,0.0,0.0,0.0,0.0,0.0,0.0,0.0,0.0,0.0,0.0,0.0,0.0,0.0,0.0,0.0,0.0,0.0,0.0,0.0,0.0,0.0,-3.3124,-3.2566,-3.1424,-3.1386,-3.0871,-2.9804,-2.9792,-2.9792,-2.9792,-2.9792,-2.9792,-2.9792,-2.9792,-2.9792,-2.9792,-2.9792,-2.9792,-2.9753,-2.9456,-2.9248,-2.917,-2.8961,-2.8816,-2.8709,-2.8764,-2.8724,-2.8578,-2.8578,-2.855,-2.851,-2.8578,-2.855,-2.851,-2.851,-2.851,-2.851,-2.851,-2.851,-2.851,-2.851,-2.851,-2.851,-2.851,-2.851,-2.851,-2.851,-2.851,-2.8462,-2.8306,-2.827,-2.8114,-2.7546,-2.7344,-2.6983,-2.6214,-2.5961,-2.5733,-2.536,-2.5312,-2.5312,-2.5312,-2.5206,-2.5218,-2.5276,-2.5218,-2.5052,-2.4825,-2.479,-2.4506,-2.3788,-2.3752,-2.3752,-2.3752,-2.3752,-2.3491,-2.2903,-2.1829,-2.0959,-2.0343,-1.9248,-1.8653,-2.9792,-2.9792,0.0,-2.9792,-2.9792,-2.9993,-3.0746,0.0,0.0,0.0,0.0,0.0,0.0,0.0,0.0,0.0,0.0,0.0,0.0,0.0,0.0,0.0,0.0,0.0,0.0,0.0,0.0,0.0,0.0,0.0,0.0,-3.3124,-3.2566,-3.1424,-3.1386,-3.0871,-2.9804,-2.9792,-2.9792,-2.9792,-2.9792,-2.974,-2.965,-2.965,-2.9702,-2.9792,-2.9792,-2.974,-2.9611,-2.9248,-2.9052,-2.8973,-2.8776,-2.8618,-2.851,-2.8657,-2.8618,-2.851,-2.851,-2.851,-2.851,-2.851,-2.851,-2.851,-2.851,-2.851,-2.851,-2.851,-2.851,-2.851,-2.851,-2.851,-2.851,-2.851,-2.851,-2.851,-2.851,-2.851,-2.851,-2.851,-2.851,-2.8414,-2.805,-2.7822,-2.75,-2.6839,-2.6562,-2.6238,-2.5697,-2.5624,-2.554,-2.5336,-2.5182,-2.5111,-2.5218,-2.5087,-2.4885,-2.4682,-2.4682,-2.4538,-2.42,-2.42,-2.42,-2.42,-2.42,-2.3787,-2.3001,-2.1945,-2.0978,-2.0089,-1.9069,-1.8513,-2.9792,-2.9792,0.0,-2.9792,-2.9829,0.0,-3.116,-3.1813,-3.2227,-3.2277,0.0,0.0,0.0,0.0,0.0,0.0,0.0,0.0,0.0,0.0,0.0,0.0,0.0,0.0,0.0,0.0,0.0,0.0,0.0,0.0,0.0,-3.3074,-3.2503,-3.1424,-3.1336,-3.0821,-2.9753,-2.9753,-2.9753,-2.9753,-2.9753,-2.9611,-2.938,-2.938,-2.9509,-2.9753,-2.9753,-2.9611,-2.9341,-2.917,-2.8961,-2.8803,-2.8578,-2.851,-2.851,-2.851,-2.851,-2.851,-2.851,-2.851,-2.851,-2.851,-2.851,-2.851,-2.851,-2.851,-2.851,-2.851,-2.851,-2.851,-2.851,-2.851,-2.851,-2.851,-2.851,-2.851,-2.851,-2.851,-2.851,-2.851,-2.851,-2.851,-2.851,-2.8114,-2.7777,-2.769,-2.7234,-2.6717,-2.6238,-2.6178,-2.5997,-2.5516,-2.529,-2.5218,-2.523,-2.5039,-2.4799,-2.4571,-2.4487,-2.4355,-2.4091,-2.408,-2.408,-2.408,-2.4007,-2.3593,-2.2767,-2.2031,-2.1231,-2.0382,-1.9648,-1.9109,-2.9792,-2.9792,0.0,0.0,-3.0118,-3.0608,-3.1248,-3.1813,-3.234,0.0,0.0,0.0,0.0,0.0,0.0,0.0,0.0,0.0,0.0,0.0,0.0,0.0,0.0,0.0,0.0,0.0,0.0,0.0,0.0,0.0,-3.3124,-3.2641,-3.2089,-3.1411,-3.0823,-3.0194,-2.947,-2.9326,-2.926,-2.926,-2.926,-2.9209,-2.917,-2.9341,-2.9353,-2.926,-2.926,-2.9209,-2.917,-2.8961,-2.8843,-2.8803,-2.8578,-2.851,-2.851,-2.851,-2.851,-2.851,-2.851,-2.851,-2.851,-2.851,-2.851,-2.851,-2.851,-2.851,-2.851,-2.851,-2.851,-2.851,-2.851,-2.851,-2.851,-2.851,-2.851,-2.851,-2.851,-2.851,-2.851,-2.851,-2.851,-2.851,-2.851,-2.8414,-2.821,-2.775,-2.7234,-2.6849,-2.6729,-2.6717,-2.6669,-2.6561,-2.6239,-2.6127,-2.6277,-2.5963,-2.5561,-2.5094,-2.4453,-2.3835,-2.3272,-2.3261,-2.3261,-2.3261,-2.2644,-2.1869,-2.1039,-2.0847,-2.0343,-1.9529,-1.9381,-1.9256,-2.9792,0.0,0.0,-2.9792,0.0,-3.0758,-3.1273,-3.1813,0.0,0.0,0.0,0.0,0.0,0.0,0.0,0.0,0.0,0.0,0.0,0.0,0.0,0.0,0.0,0.0,0.0,0.0,0.0,0.0,0.0,-3.2624,-3.2552,-3.1972,-3.1369,-3.0751,-3.0344,-2.9856,-2.9275,-2.917,-2.9091,-2.9091,-2.9091,-2.9052,-2.8961,-2.9157,-2.9157,-2.8961,-2.9052,-2.9052,-2.8961,-2.8843,-2.8724,-2.8657,-2.855,-2.851,-2.851,-2.851,-2.851,-2.851,-2.851,-2.851,-2.851,-2.851,-2.851,-2.851,-2.851,-2.851,-2.851,-2.851,-2.851,-2.851,-2.851,-2.851,-2.851,-2.851,-2.851,-2.851,-2.851,-2.851,-2.851,-2.851,-2.851,-2.851,-2.851,-2.851,-2.8414,-2.8138,-2.7861,-2.7558,-2.7306,-2.7193,-2.7098,-2.6922,-2.6534,-2.6332,-2.6458,-2.5808,-2.522,-2.4772,-2.3978,-2.3374,-2.3023,-2.2603,-2.2394,-2.2419,-2.1993,-2.1375,-2.0498,-2.0498,-2.0079,-1.9301,-1.9301,-1.9301,-2.9585,0.0,-2.9792,-2.9792,-3.0131,0.0,-3.1135,0.0,0.0,0.0,0.0,0.0,0.0,0.0,0.0,0.0,0.0,0.0,0.0,0.0,0.0,0.0,0.0,0.0,0.0,0.0,0.0,0.0,0.0,-3.1951,-3.1754,-3.1245,-3.0666,-3.0031,-2.988,-2.9558,-2.9052,-2.9013,-2.9013,-2.9013,-2.9013,-2.8934,-2.8764,-2.8934,-2.8895,-2.8764,-2.8922,-2.8895,-2.8764,-2.8764,-2.8657,-2.851,-2.851,-2.851,-2.851,-2.851,-2.851,-2.851,-2.851,-2.851,-2.851,-2.851,-2.851,-2.851,-2.851,-2.851,-2.851,-2.851,-2.851,-2.851,-2.851,-2.851,-2.851,-2.851,-2.851,-2.851,-2.851,-2.851,-2.851,-2.851,-2.851,-2.851,-2.851,-2.851,-2.851,-2.851,-2.851,-2.8354,-2.7909,-2.7654,-2.7448,-2.7133,-2.6768,-2.6449,-2.6294,-2.5414,-2.4686,-2.423,-2.3398,-2.288,-2.2768,-2.1971,-2.1515,-2.158,-2.1499,-2.1071,-2.0304,-2.0304,-1.9962,-1.9301,-1.9301,-1.9301,0.0,0.0,-2.9792,0.0,-2.9842,0.0,0.0,0.0,0.0,0.0,0.0,0.0,0.0,0.0,0.0,0.0,0.0,0.0,0.0,0.0,0.0,0.0,0.0,0.0,0.0,0.0,0.0,0.0,-3.1537,-3.143,-3.1236,-3.0714,-3.027,-3.0019,-2.9328,-2.8916,-2.8843,-2.8657,-2.859,-2.859,-2.859,-2.859,-2.855,-2.859,-2.859,-2.855,-2.859,-2.8538,-2.855,-2.855,-2.851,-2.851,-2.851,-2.851,-2.851,-2.851,-2.851,-2.851,-2.851,-2.851,-2.851,-2.851,-2.851,-2.851,-2.851,-2.851,-2.851,-2.851,-2.851,-2.851,-2.851,-2.851,-2.851,-2.851,-2.851,-2.851,-2.851,-2.851,-2.851,-2.851,-2.851,-2.851,-2.851,-2.851,-2.851,-2.851,-2.851,-2.8486,-2.8414,-2.8231,-2.8088,-2.8017,-2.7594,-2.7019,-2.6285,-2.5851,-2.5117,-2.3877,-2.3004,-2.2375,-2.1889,-2.108,-2.0666,-2.068,-2.0344,-1.9941,-1.946,-1.946,-1.942,-1.9301,-1.9301,-1.9301,-2.8291,-2.9131,-2.9792,0.0,0.0,0.0,0.0,0.0,0.0,0.0,0.0,0.0,0.0,0.0,0.0,0.0,0.0,0.0,0.0,0.0,0.0,0.0,0.0,0.0,0.0,0.0,0.0,0.0,-3.1029,-3.0717,-3.0486,-2.9822,-2.9368,-2.9192,-2.883,-2.8618,-2.8618,-2.855,-2.851,-2.851,-2.851,-2.851,-2.851,-2.851,-2.851,-2.851,-2.851,-2.851,-2.851,-2.851,-2.851,-2.851,-2.851,-2.851,-2.851,-2.851,-2.851,-2.851,-2.851,-2.851,-2.851,-2.851,-2.851,-2.851,-2.851,-2.851,-2.851,-2.851,-2.851,-2.851,-2.851,-2.851,-2.851,-2.851,-2.851,-2.851,-2.851,-2.851,-2.851,-2.851,-2.851,-2.851,-2.851,-2.851,-2.851,-2.851,-2.851,-2.8299,-2.7846,-2.7458,-2.7121,-2.6741,-2.6276,-2.5819,-2.5442,-2.484,-2.4161,-2.3413,-2.252,-2.1942,-2.1701,-2.1364,-2.1046,-2.0851,-2.0457,-2.0163,-1.998,-1.976,-1.965,-1.965,-1.9412,-1.9301,0.0,0.0,0.0,0.0,0.0,0.0,0.0,0.0,0.0,0.0,0.0,0.0,0.0,0.0,0.0,0.0,0.0,0.0,0.0,0.0,0.0,0.0,0.0,0.0,0.0,0.0,0.0,0.0,-3.0316,-2.9905,-2.9717,-2.9114,-2.8724,-2.851,-2.851,-2.851,-2.851,-2.851,-2.851,-2.851,-2.8271,-2.8179,-2.8179,-2.8179,-2.8179,-2.8179,-2.8391,-2.851,-2.851,-2.851,-2.851,-2.8471,-2.8259,-2.8299,-2.8471,-2.8259,-2.8299,-2.851,-2.851,-2.851,-2.851,-2.851,-2.851,-2.851,-2.851,-2.851,-2.851,-2.851,-2.851,-2.851,-2.851,-2.8339,-2.8179,-2.8179,-2.8179,-2.8219,-2.8471,-2.851,-2.851,-2.851,-2.851,-2.851,-2.851,-2.851,-2.851,-2.851,-2.851,-2.8179,-2.7307,-2.6782,-2.6224,-2.5484,-2.502,-2.4628,-2.4414,-2.3727,-2.3183,-2.2755,-2.2078,-2.1696,-2.1696,-2.1696,-2.1549,-2.1273,-2.0979,-2.068,-2.0521,-2.0186,-2.004,-2.0031,-1.9751,-1.9558,0.0,0.0,0.0,0.0,0.0,0.0,0.0,0.0,0.0,0.0,0.0,0.0,0.0,0.0,0.0,0.0,0.0,0.0,0.0,0.0,0.0,0.0,0.0,0.0,0.0,0.0,0.0,0.0,-2.9298,-2.9049,-2.8879,-2.8816,-2.8724,-2.851,-2.851,-2.851,-2.851,-2.851,-2.851,-2.8471,-2.7684,-2.7267,-2.7267,-2.7267,-2.7267,-2.7307,-2.8139,-2.851,-2.851,-2.851,-2.851,-2.8431,-2.7592,-2.7765,-2.8391,-2.7551,-2.7805,-2.851,-2.851,-2.851,-2.851,-2.851,-2.851,-2.851,-2.851,-2.851,-2.851,-2.851,-2.851,-2.851,-2.851,-2.7886,-2.7267,-2.7267,-2.7267,-2.747,-2.8299,-2.851,-2.851,-2.851,-2.851,-2.851,-2.851,-2.851,-2.851,-2.851,-2.851,-2.8179,-2.7307,-2.6782,-2.6193,-2.5326,-2.4787,-2.4145,-2.327,-2.3139,-2.2711,-2.182,-2.1731,-2.1696,-2.1696,-2.1696,-2.1678,-2.1659,-2.1641,-2.1248,-2.0521,-2.0493,-2.0484,-2.0484,-2.0466,-2.0214,0.0,0.0,0.0,0.0,0.0,0.0,0.0,0.0,0.0,0.0,0.0,0.0,0.0,0.0,0.0,0.0,0.0,0.0,0.0,0.0,0.0,0.0,0.0,0.0,0.0,0.0,0.0,0.0,0.0,-2.8882,-2.8791,-2.8685,-2.8578,-2.851,-2.851,-2.8219,-2.7672,-2.7684,-2.7377,-2.6741,-2.6453,-2.6287,-2.6287,-2.6287,-2.6287,-2.6329,-2.6618,-2.7133,-2.7644,-2.6999,-2.6794,-2.6753,-2.6412,-2.6494,-2.6741,-2.6412,-2.6494,-2.6835,-2.747,-2.7684,-2.7684,-2.7684,-2.8059,-2.8391,-2.7846,-2.8059,-2.851,-2.851,-2.851,-2.8391,-2.7805,-2.7429,-2.7051,-2.6464,-2.6287,-2.637,-2.67,-2.7672,-2.851,-2.851,-2.851,-2.851,-2.851,-2.851,-2.851,-2.851,-2.8379,-2.7753,-2.6287,-2.5683,-2.484,-2.3377,-2.2906,-2.2555,-2.2246,-2.2201,-2.2078,-2.1741,-2.1696,-2.1696,-2.1696,-2.1696,-2.1696,-2.1696,-2.1696,-2.1549,-2.1257,-2.1025,-2.0897,-2.0888,-2.064,-2.0397,0.0,0.0,0.0,0.0,0.0,0.0,0.0,0.0,0.0,0.0,0.0,0.0,0.0,0.0,0.0,0.0,0.0,0.0,0.0,0.0,0.0,0.0,0.0,0.0,0.0,0.0,0.0,0.0,0.0,0.0,-2.8275,-2.8127,-2.7926,-2.7592,-2.758,-2.7336,-2.6753,-2.6712,-2.6412,-2.5777,-2.5495,-2.5368,-2.5368,-2.5368,-2.5368,-2.5368,-2.5368,-2.5872,-2.667,-2.608,-2.5777,-2.5777,-2.5495,-2.5537,-2.5777,-2.5453,-2.5526,-2.5902,-2.6505,-2.6712,-2.6712,-2.6712,-2.7133,-2.7499,-2.6928,-2.7121,-2.758,-2.758,-2.758,-2.7458,-2.6876,-2.6505,-2.6133,-2.5495,-2.5368,-2.5453,-2.5735,-2.6741,-2.758,-2.758,-2.758,-2.758,-2.758,-2.758,-2.758,-2.758,-2.7418,-2.6753,-2.5231,-2.4628,-2.378,-2.2264,-2.1874,-2.1696,-2.1696,-2.1696,-2.1696,-2.1696,-2.1696,-2.1696,-2.1696,-2.1696,-2.1696,-2.1696,-2.1696,-2.1696,-2.1696,-2.1412,-2.1319,-2.131,-2.1053,-2.0808,0.0,0.0,0.0,0.0,0.0,0.0,0.0,0.0,0.0,0.0,0.0,0.0,0.0,0.0,0.0,0.0,0.0,0.0,0.0,0.0,0.0,0.0,0.0,0.0,0.0,0.0,0.0,0.0,-2.6741,-2.7144,-2.7144,-2.7144,-2.6753,-2.5819,-2.5777,-2.5788,-2.5746,-2.5746,-2.5746,-2.5694,-2.4872,-2.4456,-2.4456,-2.4456,-2.4456,-2.4456,-2.4456,-2.4946,-2.5735,-2.5735,-2.5735,-2.5652,-2.4787,-2.4999,-2.561,-2.4787,-2.4999,-2.5735,-2.5735,-2.5746,-2.5746,-2.5746,-2.5777,-2.5777,-2.5777,-2.5777,-2.5777,-2.5777,-2.5777,-2.5777,-2.5777,-2.5115,-2.4456,-2.4456,-2.4456,-2.4701,-2.5537,-2.5735,-2.5735,-2.5788,-2.5777,-2.5777,-2.5777,-2.5777,-2.5777,-2.5777,-2.561,-2.5147,-2.4221,-2.3694,-2.3062,-2.2176,-2.1874,-2.1696,-2.1696,-2.1696,-2.1696,-2.1696,-2.1696,-2.1696,-2.1696,-2.1696,-2.1696,-2.1696,-2.1696,-2.1696,-2.1696,-2.1696,-2.1696,-2.1696,-2.1696,-2.1476,-2.3091,0.0,0.0,0.0,0.0,0.0,0.0,0.0,0.0,0.0,0.0,0.0,0.0,0.0,0.0,0.0,0.0,0.0,0.0,0.0,0.0,0.0,0.0,0.0,0.0,0.0,0.0,0.0,-2.6069,-2.6205,-2.6205,-2.6205,-2.608,-2.5819,-2.5777,-2.5495,-2.4872,-2.4872,-2.4531,-2.3854,-2.3604,-2.3474,-2.3474,-2.3474,-2.3474,-2.3474,-2.3474,-2.3604,-2.3854,-2.3854,-2.3854,-2.381,-2.356,-2.3647,-2.381,-2.356,-2.3647,-2.394,-2.4616,-2.4872,-2.4872,-2.4872,-2.5284,-2.5694,-2.5031,-2.5284,-2.5777,-2.5777,-2.5777,-2.5652,-2.5031,-2.4198,-2.3474,-2.3474,-2.3474,-2.356,-2.381,-2.3854,-2.4231,-2.5526,-2.5777,-2.5777,-2.5777,-2.5777,-2.5777,-2.5777,-2.5484,-2.4935,-2.4006,-2.3487,-2.2843,-2.1909,-2.1741,-2.1696,-2.1696,-2.1696,-2.1696,-2.1696,-2.1696,-2.1696,-2.1696,-2.1696,-2.1696,-2.1696,-2.1696,-2.1696,-2.1696,-2.1696,-2.1696,-2.1696,-2.1696,-2.1632,0.0,0.0,0.0,0.0,0.0,0.0,-2.4957,-2.5221,-2.5579,0.0,0.0,0.0,0.0,0.0,0.0,0.0,0.0,0.0,0.0,0.0,0.0,0.0,0.0,0.0,0.0,-2.4476,-2.4551,-2.4648,-2.5031,-2.5242,-2.5242,-2.5242,-2.5073,-2.4691,-2.4691,-2.4445,-2.3897,-2.3907,-2.3647,-2.3091,-2.3091,-2.3091,-2.3091,-2.3091,-2.3091,-2.3091,-2.3091,-2.3091,-2.3091,-2.3091,-2.3091,-2.3091,-2.3091,-2.3091,-2.3091,-2.3091,-2.3091,-2.3178,-2.3734,-2.3907,-2.3907,-2.3907,-2.4274,-2.4573,-2.4069,-2.4274,-2.4691,-2.4691,-2.4691,-2.4563,-2.4069,-2.3517,-2.3091,-2.3091,-2.3091,-2.3091,-2.3091,-2.3091,-2.343,-2.4488,-2.4606,-2.4573,-2.4648,-2.4606,-2.4573,-2.4648,-2.4307,-2.3833,-2.329,-2.2809,-2.229,-2.1776,-2.1696,-2.1696,-2.1696,-2.1696,-2.1696,-2.1696,-2.1696,-2.1696,-2.1696,-2.1696,-2.1696,-2.1696,-2.1696,-2.1696,-2.1696,-2.1696,-2.1696,-2.1696,-2.1696,-2.1696,0.0,0.0,0.0,0.0,0.0,0.0,-2.4628,-2.4274,-2.4079,-2.5284,0.0,0.0,0.0,0.0,0.0,0.0,0.0,0.0,0.0,0.0,0.0,0.0,0.0,0.0,-2.3503,-2.3503,-2.3373,-2.3135,-2.3854,-2.4327,-2.4327,-2.4327,-2.395,-2.3135,-2.3091,-2.3091,-2.3091,-2.3091,-2.3091,-2.3091,-2.3091,-2.3091,-2.3091,-2.3091,-2.3091,-2.3091,-2.3091,-2.3091,-2.3091,-2.3091,-2.3091,-2.3091,-2.3091,-2.3091,-2.3091,-2.3091,-2.3091,-2.3091,-2.3091,-2.3091,-2.3091,-2.3091,-2.3091,-2.3091,-2.3091,-2.3091,-2.3091,-2.3091,-2.3091,-2.3091,-2.3091,-2.3091,-2.3091,-2.3091,-2.3091,-2.3091,-2.3091,-2.3091,-2.3091,-2.3091,-2.2925,-2.2838,-2.3057,-2.2882,-2.2838,-2.3013,-2.2662,-2.2353,-2.2353,-2.1998,-2.1696,-2.1696,-2.1696,-2.1696,-2.1696,-2.1696,-2.1696,-2.1696,-2.1696,-2.1696,-2.1696,-2.1696,-2.1696,-2.1696,-2.1696,-2.1696,-2.1696,-2.1696,-2.1696,-2.1696,-2.1696,-2.1696,0.0,0.0,0.0,0.0,0.0,0.0,-2.343,-2.3353,-2.3353,0.0,0.0,0.0,0.0,0.0,0.0,0.0,0.0,0.0,0.0,0.0,0.0,0.0,0.0,0.0,-2.3503,-2.3503,-2.3373,-2.3135,-2.3266,-2.3387,-2.3387,-2.3387,-2.3309,-2.3101,-2.3091,-2.3091,-2.3091,-2.3091,-2.3091,-2.3091,-2.3091,-2.3091,-2.3091,-2.3091,-2.3091,-2.3091,-2.3091,-2.3091,-2.3091,-2.3091,-2.3091,-2.3091,-2.3091,-2.3091,-2.3091,-2.3091,-2.3091,-2.3091,-2.3091,-2.3091,-2.3091,-2.3091,-2.3091,-2.3091,-2.3091,-2.3091,-2.3091,-2.3091,-2.3091,-2.3091,-2.3091,-2.3091,-2.3091,-2.3091,-2.3091,-2.3091,-2.3091,-2.3091,-2.3091,-2.3091,-2.2925,-2.2794,-2.2847,-2.2662,-2.2485,-2.253,-2.2309,-2.2141,-2.2141,-2.1874,-2.1696,-2.1696,-2.1696,-2.1696,-2.1696,-2.1696,-2.1696,-2.1696,-2.1696,-2.1696,-2.1696,-2.1696,-2.1696,-2.1696,-2.1696,-2.1696,-2.1696,-2.1696,-2.1696,-2.1696,-2.1696,-2.1696,0.0,0.0,0.0,-2.3734,0.0,0.0,0.0,-2.3423,-2.3363,-2.358,0.0,0.0,0.0,0.0,0.0,0.0,0.0,0.0,0.0,0.0,0.0,0.0,0.0,0.0,-2.3319,-2.3319,-2.3232,-2.3091,-2.3091,-2.3091,-2.3091,-2.3091,-2.3091,-2.3091,-2.3091,-2.3091,-2.3091,-2.3091,-2.3091,-2.3091,-2.3091,-2.3091,-2.3091,-2.3091,-2.3091,-2.3091,-2.3091,-2.3091,-2.3091,-2.3091,-2.3091,-2.3091,-2.3091,-2.3091,-2.3091,-2.3091,-2.3091,-2.3091,-2.3091,-2.3091,-2.3091,-2.3091,-2.3091,-2.3091,-2.3091,-2.3091,-2.3091,-2.3091,-2.3091,-2.3091,-2.3091,-2.3091,-2.3091,-2.3091,-2.3091,-2.3091,-2.3091,-2.3091,-2.3091,-2.3091,-2.2838,-2.2618,-2.2803,-2.2495,-2.2264,-2.2397,-2.222,-2.2097,-2.2097,-2.1874,-2.1696,-2.1696,-2.1696,-2.1696,-2.1696,-2.1696,-2.1696,-2.1696,-2.1696,-2.1696,-2.1696,-2.1696,-2.1696,-2.1696,-2.1696,-2.1696,-2.1696,-2.1696,-2.1696,-2.1696,-2.1696,-2.1463,0.0,0.0,0.0,0.0,0.0,-2.3951,0.0,0.0,0.0,-2.3763,0.0,0.0,0.0,0.0,0.0,0.0,0.0,0.0,0.0,0.0,0.0,0.0,0.0,0.0,-2.3091,-2.3091,-2.3091,-2.3091,-2.3091,-2.3091,-2.3091,-2.3091,-2.3091,-2.3091,-2.3091,-2.3091,-2.3091,-2.3091,-2.3091,-2.3091,-2.3091,-2.3091,-2.3091,-2.3091,-2.3091,-2.3091,-2.3091,-2.3091,-2.3091,-2.3091,-2.3091,-2.3091,-2.3091,-2.3091,-2.3091,-2.3091,-2.3091,-2.3091,-2.3091,-2.3091,-2.3091,-2.3091,-2.3091,-2.3091,-2.3091,-2.3091,-2.3091,-2.3091,-2.3091,-2.3091,-2.3091,-2.3091,-2.3091,-2.3091,-2.3091,-2.3091,-2.3091,-2.3091,-2.3091,-2.3091,-2.2706,-2.2485,-2.2715,-2.2318,-2.2097,-2.2264,-2.2141,-2.2008,-2.2008,-2.183,-2.1696,-2.1696,-2.1696,-2.1696,-2.1696,-2.1696,-2.1696,-2.1696,-2.1696,-2.1696,-2.1696,-2.1696,-2.1696,-2.1696,-2.1696,-2.1597,-2.1419,-2.1419,-2.1508,-2.1696,-2.1508,-2.1042,0.0,0.0,0.0,0.0,-2.4385,0.0,0.0,0.0,-2.4216,-2.3889,0.0,0.0,0.0,0.0,0.0,0.0,0.0,0.0,0.0,0.0,0.0,0.0,0.0,0.0,0.0,-2.3091,-2.3091,-2.3091,-2.3091,-2.3091,-2.3091,-2.3091,-2.3091,-2.3091,-2.3091,-2.3091,-2.3091,-2.3091,-2.3091,-2.3091,-2.3091,-2.3091,-2.3091,-2.3091,-2.3091,-2.3091,-2.3091,-2.3091,-2.3091,-2.3091,-2.3091,-2.3091,-2.3091,-2.3091,-2.3091,-2.3091,-2.3091,-2.3091,-2.3091,-2.3091,-2.3091,-2.3091,-2.3091,-2.3091,-2.3091,-2.3091,-2.3091,-2.3091,-2.3091,-2.3091,-2.3091,-2.3091,-2.3091,-2.3091,-2.3091,-2.3091,-2.3091,-2.3091,-2.3091,-2.3091,-2.2706,-2.2397,-2.2441,-2.2043,-2.1731,-2.1785,-2.1785,-2.1741,-2.1741,-2.1741,-2.1696,-2.1696,-2.1696,-2.1696,-2.1696,-2.1696,-2.1696,-2.1696,-2.1696,-2.1696,-2.1696,-2.1696,-2.1696,-2.1696,-2.1696,-2.1275,-2.0484,-2.0484,-2.0898,-2.1696,-2.0853,-2.0393,0.0,0.0,0.0,0.0,0.0,0.0,-2.4795,0.0,-2.4365,0.0,0.0,0.0,0.0,0.0,0.0,0.0,-2.3091,0.0,0.0,0.0,0.0,0.0,0.0,0.0,0.0,0.0,0.0,0.0,-2.3091,-2.3091,-2.3091,-2.3091,-2.3091,-2.3091,-2.3091,-2.3091,-2.3091,-2.3091,-2.3091,-2.3091,-2.3091,-2.3091,-2.3091,-2.3091,-2.3091,-2.3091,-2.3091,-2.3091,-2.3091,-2.3091,-2.3091,-2.3091,-2.3091,-2.3091,-2.3091,-2.3091,-2.3091,-2.3091,-2.3091,-2.3091,-2.3091,-2.3091,-2.3091,-2.3091,-2.3091,-2.3091,-2.3091,-2.3091,-2.3091,-2.3091,-2.3091,-2.3091,-2.3091,-2.3091,-2.3013,-2.2925,-2.2925,-2.2794,-2.2696,-2.2696,-2.2441,-2.223,-2.223,-2.1909,-2.1696,-2.1696,-2.1696,-2.1696,-2.1696,-2.1696,-2.1696,-2.1696,-2.1696,-2.1696,-2.1696,-2.1696,-2.1696,-2.1696,-2.1696,-2.1696,-2.1696,-2.1696,-2.1454,-2.0898,-2.0898,-2.0393,-1.943,-1.943,-1.9613,-1.9985,-1.9613,-1.9109,-2.5693,0.0,0.0,0.0,0.0,0.0,0.0,0.0,0.0,0.0,0.0,0.0,0.0,0.0,0.0,0.0,0.0,0.0,0.0,0.0,0.0,0.0,0.0,0.0,0.0,0.0,0.0,-2.3091,-2.3091,-2.3091,-2.3091,-2.3091,-2.3091,-2.3091,-2.3091,-2.3091,-2.3091,-2.3091,-2.3091,-2.3091,-2.3091,-2.3091,-2.3091,-2.3091,-2.3159,-2.3276,-2.3276,-2.3335,-2.3442,-2.3442,-2.3442,-2.3442,-2.3442,-2.3442,-2.3413,-2.3179,-2.3091,-2.3091,-2.3091,-2.3091,-2.3091,-2.3091,-2.3091,-2.3091,-2.3091,-2.3091,-2.3091,-2.3091,-2.3091,-2.3091,-2.3091,-2.3091,-2.3091,-2.3091,-2.2969,-2.2803,-2.2803,-2.2574,-2.2397,-2.2397,-2.223,-2.2097,-2.2097,-2.1874,-2.1696,-2.1696,-2.1696,-2.1696,-2.1696,-2.1696,-2.1696,-2.1696,-2.1696,-2.1696,-2.1696,-2.1696,-2.1696,-2.1696,-2.1696,-2.1696,-2.1696,-2.1463,-2.0997,-2.0294,-2.0022,-1.9384,-1.838,-1.838,-1.8241,-1.8002,-1.8241,-1.801,0.0,0.0,0.0,-2.5693,0.0,0.0,0.0,0.0,-2.5528,0.0,0.0,0.0,0.0,0.0,0.0,0.0,0.0,0.0,0.0,0.0,0.0,0.0,0.0,0.0,0.0,0.0,-2.3091,-2.3091,-2.3091,-2.3091,-2.3091,-2.3091,-2.3091,-2.3091,-2.3091,-2.3091,-2.3091,-2.3091,-2.3091,-2.3091,-2.3091,-2.3091,-2.3091,-2.3091,-2.3369,-2.3769,-2.3769,-2.4004,-2.4375,-2.4375,-2.4375,-2.4375,-2.4375,-2.4375,-2.4277,-2.3403,-2.3091,-2.3091,-2.3091,-2.3091,-2.3091,-2.3091,-2.3091,-2.3091,-2.3091,-2.3091,-2.3091,-2.3091,-2.3091,-2.3091,-2.3091,-2.3091,-2.3091,-2.3091,-2.2969,-2.2803,-2.2803,-2.2574,-2.2397,-2.2397,-2.223,-2.2097,-2.2097,-2.1874,-2.1696,-2.1696,-2.1696,-2.1696,-2.1696,-2.1696,-2.1696,-2.1696,-2.1696,-2.1696,-2.1696,-2.1696,-2.1696,-2.1696,-2.1696,-2.1696,-2.1696,-2.0808,-2.0348,-2.0294,-1.9338,-1.8334,-1.7326,-1.7326,-1.6857,-1.592,-1.6904,-1.7326,0.0,0.0,-2.5693,-2.5693,0.0,0.0,0.0,0.0,0.0,0.0,0.0,0.0,0.0,0.0,0.0,0.0,0.0,0.0,0.0,0.0,0.0,0.0,0.0,0.0,0.0,0.0,0.0,-2.3091,-2.3091,-2.3091,-2.3091,-2.3091,-2.3091,-2.3091,-2.3091,-2.3091,-2.3091,-2.3091,-2.3091,-2.3091,-2.3091,-2.3247,-2.3574,-2.3574,-2.3799,-2.4209,-2.4209,-2.4287,-2.4414,-2.4414,-2.4414,-2.4414,-2.4414,-2.4414,-2.4346,-2.3779,-2.3574,-2.3525,-2.3198,-2.3091,-2.3091,-2.3091,-2.3091,-2.3091,-2.3091,-2.3091,-2.3091,-2.3091,-2.3013,-2.2925,-2.3057,-2.3013,-2.2925,-2.3057,-2.2794,-2.253,-2.253,-2.222,-2.1954,-2.1954,-2.1865,-2.183,-2.183,-2.1785,-2.1696,-2.1696,-2.1696,-2.1696,-2.1696,-2.1696,-2.1696,-2.1696,-2.1696,-2.1696,-2.1696,-2.1696,-2.1696,-2.1696,-2.1696,-2.141,-2.0808,-2.0484,-1.9658,-1.8334,-1.7963,-1.7318,-1.6298,-1.6298,-1.6109,-1.5832,-1.6157,-1.6298,-2.5693,-2.5693,0.0,-2.5693,-2.5693,0.0,-2.5693,0.0,0.0,0.0,0.0,0.0,0.0,0.0,0.0,0.0,0.0,0.0,0.0,0.0,0.0,0.0,0.0,0.0,0.0,0.0,-2.3091,-2.3091,-2.3091,-2.3091,0.0,0.0,-2.3091,-2.3091,-2.3091,-2.3091,-2.3091,-2.3091,-2.3091,-2.3091,-2.3091,-2.3369,-2.3789,-2.3789,-2.4102,-2.4648,-2.4648,-2.4736,-2.4836,-2.4836,-2.4836,-2.4836,-2.4836,-2.4836,-2.4814,-2.4228,-2.3916,-2.375,-2.3467,-2.3227,-2.3091,-2.3091,-2.3091,-2.312,-2.3276,-2.3369,-2.3369,-2.3369,-2.3192,-2.303,-2.3008,-2.2838,-2.2706,-2.2828,-2.2574,-2.2309,-2.2309,-2.1998,-2.1696,-2.1696,-2.1696,-2.1696,-2.1696,-2.1696,-2.1696,-2.1696,-2.1696,-2.1696,-2.1696,-2.1696,-2.1696,-2.1696,-2.141,-2.1177,-2.1177,-2.1177,-2.1177,-2.1177,-2.1177,-2.0763,-1.9795,-1.943,-1.8603,-1.7326,-1.6951,-1.644,-1.5784,-1.5784,-1.5784,-1.5784,-1.5784,-1.5784]},{"header":{"parameterUnit":"m.s-1","parameterCategory":1,"la1":30.6,"la2":29.2853,"lo1":-89.7004,"lo2":-87.6739,"dy":0.0162,"dx":0.0183,"nx":112,"ny":82,"refTime":"2023-04-14T12:00:00:Z","depth":0,"parameterNumber":3,"parameterNumberName":"V-component_of_WINDS"},"data":[0.0,0.0,0.0,0.0,0.0,0.0,0.0,0.0,0.0,0.0,0.0,0.0,0.0,0.0,0.0,0.0,0.0,0.0,0.0,0.0,0.0,0.0,0.0,0.0,0.0,0.0,0.0,0.0,0.0,0.0,0.0,0.0,0.0,0.0,0.0,0.0,0.0,0.0,0.0,0.0,0.0,0.0,0.0,0.0,0.0,0.0,0.0,0.0,0.0,0.0,0.0,0.0,0.0,0.0,0.0,0.0,0.0,0.0,0.0,0.0,0.0,0.0,0.0,0.0,0.0,0.0,0.0,0.0,0.0,0.0,0.0,0.0,0.0,0.0,0.0,0.0,0.0,0.0,0.0,0.0,0.0,0.0,0.0,0.0,0.0,0.0,0.0,0.0,0.0,0.0,0.0,0.8841,0.9299,0.9497,0.9222,0.9446,0.9673,0.9825,0.0,0.0,0.0,0.0,0.0,0.0,0.0,0.0,0.0,0.0,0.0,0.0,0.0,0.0,0.0,0.0,0.0,0.0,0.0,0.0,0.0,0.0,0.0,0.0,0.0,0.0,0.0,0.0,0.0,0.0,0.0,0.0,0.0,0.0,0.0,0.0,0.0,0.0,0.0,0.0,0.0,0.0,0.0,0.0,0.0,0.0,0.0,0.0,0.0,0.0,0.0,0.0,0.0,0.0,0.0,0.0,0.0,0.0,0.0,0.0,0.0,0.0,0.0,0.0,0.0,0.0,0.0,0.0,0.0,0.0,0.0,0.0,0.0,0.0,0.0,0.0,0.0,0.0,0.0,0.0,0.0,0.0,0.0,0.0,0.0,0.0,0.0,0.0,0.0,0.0,0.0,0.0,0.0,0.0,0.0,0.0,0.0,0.0,0.0,0.0,0.0,0.0,0.0,0.0,0.8435,0.9066,0.9409,0.9497,0.9222,0.9446,0.9699,0.9947,0.0,0.0,0.0,0.0,0.0,0.0,0.0,0.0,0.0,0.0,0.0,0.0,0.0,0.0,0.0,0.0,0.0,0.0,0.0,0.0,0.0,0.0,0.0,0.0,0.0,0.0,0.0,0.0,0.0,0.0,0.0,0.0,0.0,0.0,0.0,0.0,0.0,0.0,0.0,0.0,0.0,0.0,0.0,0.0,0.0,0.0,0.0,0.0,0.0,0.0,0.0,0.0,0.0,0.0,0.0,0.0,0.0,0.0,0.0,0.0,0.0,0.0,0.0,0.0,0.0,0.0,0.0,0.0,0.0,0.0,0.0,0.0,0.0,0.0,0.0,0.0,0.0,0.0,0.0,0.0,0.0,0.0,0.0,0.0,0.0,0.0,0.0,0.0,0.0,0.0,0.0,0.0,0.0,0.0,0.0,0.0,0.0,0.0,0.0,0.0,0.0,0.0,0.0,0.8664,0.875,0.8909,0.9336,0.9424,0.8972,0.9343,0.9725,0.9973,0.9947,0.0,0.0,0.0,0.0,0.0,0.0,0.0,0.0,0.0,0.0,0.0,0.0,0.0,0.0,0.0,0.0,0.0,0.0,0.0,0.0,0.0,0.0,0.0,0.0,0.0,0.0,0.0,0.0,0.0,0.0,0.0,0.0,0.0,0.0,0.0,0.0,0.0,0.0,0.0,0.0,0.0,0.0,0.0,0.0,0.0,0.0,0.0,0.0,0.0,0.0,0.0,0.0,0.0,0.0,0.0,0.0,0.0,0.0,0.0,0.0,0.0,0.0,0.0,0.0,0.0,0.0,0.0,0.0,0.0,0.0,0.0,0.0,0.0,0.0,0.0,0.0,0.0,0.0,0.0,0.0,0.0,0.0,0.0,0.0,0.0,0.0,0.0,0.0,0.0,0.0,0.0,0.0,0.0,0.0,0.0,0.0,0.0,0.0,0.0,0.0,0.0,0.0,0.9038,0.8958,0.8604,0.9138,0.9335,0.8917,0.9455,0.988,1.012,1.0205,0.0,0.0,0.0,0.0,0.0,0.0,0.0,0.0,0.0,0.0,0.0,0.0,0.0,0.0,0.0,0.0,0.0,0.0,0.0,0.0,0.0,0.0,0.0,0.0,0.0,0.0,0.0,0.0,0.0,0.0,0.0,0.0,0.0,0.0,0.0,0.0,0.0,0.0,0.0,0.0,0.0,0.0,0.0,0.0,0.0,0.0,0.0,0.0,0.0,0.0,0.0,0.0,0.0,0.0,0.0,0.0,0.0,0.0,0.0,0.0,0.0,0.0,0.0,0.0,0.0,0.0,0.0,0.0,0.0,0.0,0.0,0.0,0.0,0.0,0.0,0.0,0.0,0.0,0.0,0.0,0.0,0.0,0.0,0.0,0.0,0.0,0.0,0.0,0.0,0.0,0.0,0.0,0.0,0.0,0.0,0.0,0.0,0.0,0.0,0.0,0.0,0.0,0.8531,0.8597,0.8268,0.884,0.9278,0.9422,1.0,1.0395,1.0557,1.0735,0.0,0.0,0.0,0.0,0.0,0.0,0.0,0.0,0.0,0.0,0.0,0.0,0.0,0.0,0.0,0.0,0.0,0.0,0.0,0.0,0.0,0.0,0.0,0.0,0.0,0.0,0.0,0.0,0.0,0.0,0.0,0.0,0.0,0.0,0.0,0.0,0.0,0.0,0.0,0.0,0.0,0.0,0.0,0.0,0.0,0.0,0.0,0.0,0.0,0.0,0.0,0.0,0.0,0.0,0.0,0.0,0.0,0.0,0.0,0.0,0.0,0.0,0.0,0.0,0.0,0.0,0.0,0.0,0.0,0.0,0.0,0.0,0.0,0.0,0.0,0.0,0.0,0.0,0.0,0.0,0.0,0.0,0.0,0.0,0.0,0.0,0.0,0.0,0.0,0.0,0.0,0.0,0.0,0.0,0.0,0.0,0.0,0.0,0.0,0.0,0.0,0.0,0.8252,0.8311,0.0,0.8574,0.8912,0.8996,0.9713,1.0174,1.0208,0.0,0.0,0.0,0.0,0.0,0.0,0.0,0.0,0.0,0.0,0.0,0.0,0.0,0.0,0.0,0.0,0.0,0.0,0.0,0.0,0.0,0.0,0.0,0.0,0.0,0.0,0.0,0.0,0.0,0.0,0.0,0.0,0.0,0.0,0.0,0.0,0.0,0.0,0.0,0.0,0.0,0.0,0.0,0.0,0.0,0.0,0.0,0.0,0.0,0.0,0.0,0.0,0.0,0.0,0.0,0.0,0.0,0.0,0.0,0.0,0.0,0.0,0.0,0.0,0.0,0.0,0.0,0.0,0.0,0.0,0.0,0.0,0.0,0.0,0.0,0.0,0.0,0.0,0.0,0.0,0.0,0.0,0.0,0.0,0.0,0.0,0.0,0.0,0.0,0.0,0.0,0.0,0.0,0.0,0.0,0.0,0.0,0.0,0.0,0.0,0.0,0.0,0.8105,0.8315,0.8422,0.0,0.8699,0.902,0.9194,0.9975,1.04,1.0294,0.0,0.0,0.0,0.0,0.0,0.0,0.0,0.0,0.0,0.0,0.0,0.0,0.0,0.0,0.0,0.0,0.0,0.0,0.0,0.0,0.0,0.0,0.0,0.0,0.0,0.0,0.0,0.0,0.0,0.0,0.0,0.0,0.0,0.0,0.0,0.0,0.0,0.0,0.0,0.0,0.0,0.0,0.0,0.0,0.0,0.0,0.0,0.0,0.0,0.0,0.0,0.0,0.0,0.0,0.0,0.0,0.0,0.0,0.0,0.0,0.0,0.0,0.0,0.0,0.0,0.0,0.0,0.0,0.0,0.0,0.0,0.0,0.0,0.0,0.0,0.0,0.0,0.0,0.0,0.0,0.0,0.0,0.0,0.0,0.0,0.0,0.0,0.0,0.0,0.0,0.0,0.0,0.0,0.0,0.0,0.0,0.0,0.0,0.0,0.0,0.0,0.0,0.8402,0.8769,0.9013,0.9013,0.9308,0.9726,1.0263,1.0971,1.1255,0.0,0.0,0.0,0.0,0.0,0.0,0.0,0.0,0.0,0.0,0.0,0.0,0.0,0.0,0.0,0.0,0.0,0.0,0.0,0.0,0.0,0.0,0.0,0.0,0.0,0.0,0.0,0.0,0.0,0.0,0.0,0.0,0.0,0.0,0.0,0.0,0.0,0.0,0.0,0.0,0.0,0.0,0.0,0.0,0.0,0.0,0.0,0.0,0.0,0.0,0.0,0.0,0.0,0.0,0.0,0.0,0.0,0.0,0.0,0.0,0.0,0.0,0.0,0.0,0.0,0.0,0.0,0.0,0.0,0.0,0.0,0.0,0.0,0.0,0.0,0.0,0.0,0.0,0.0,0.0,0.0,0.0,0.0,0.0,0.0,0.0,0.0,0.0,0.0,0.0,0.0,0.0,0.0,0.0,0.0,0.0,0.0,0.0,0.0,0.0,0.0,0.0,0.0,0.9034,0.9554,0.9882,0.9778,0.9955,1.0226,1.0619,1.1208,1.1346,1.086,0.0,0.0,0.0,0.0,0.0,0.0,0.0,0.0,0.0,0.0,0.0,0.0,0.0,0.0,0.0,0.0,0.0,0.0,0.0,0.0,0.0,0.0,0.0,0.0,0.0,0.0,0.0,0.0,0.0,0.0,0.0,0.0,0.0,0.0,0.0,0.0,0.0,0.0,0.0,0.0,0.0,0.0,0.0,0.0,0.0,0.0,0.0,0.0,0.0,0.0,0.0,0.0,0.0,0.0,0.0,0.0,0.0,0.0,0.0,0.0,0.0,0.0,0.0,0.0,0.0,0.0,0.0,0.0,0.0,0.0,0.0,0.0,0.0,0.0,0.0,0.0,0.0,0.0,0.0,0.0,0.0,0.0,0.0,0.0,0.0,0.0,0.0,0.0,0.0,0.0,0.0,0.0,0.0,0.0,0.0,0.0,0.0,0.0,0.0,0.0,0.0,0.0,0.9939,1.0449,1.0794,1.0718,1.0771,1.0903,1.1104,1.1556,1.1631,1.1186,0.0,0.0,0.0,0.0,0.0,0.0,0.0,0.0,0.0,0.0,0.0,0.0,0.0,0.0,0.0,0.0,0.0,0.0,0.0,0.0,0.0,0.0,0.0,0.0,0.0,0.0,0.0,0.0,0.0,0.0,0.0,0.0,0.0,0.0,0.0,0.0,0.0,0.0,0.0,0.0,0.0,0.0,0.0,0.0,0.0,0.0,0.0,0.0,0.0,0.0,0.0,0.0,0.0,0.0,0.0,0.0,0.0,0.0,0.0,0.0,0.0,0.0,0.0,0.0,0.0,0.0,0.0,0.0,0.0,0.0,0.0,0.0,0.0,0.0,0.0,0.0,0.0,0.0,0.0,0.0,0.0,0.0,0.0,0.0,0.0,0.0,0.0,0.0,0.0,0.0,0.0,0.0,0.0,0.0,0.0,0.0,0.0,0.0,0.0,0.0,0.0,0.0,1.0988,1.1417,1.1724,1.1724,1.1724,1.1724,1.1724,1.2061,1.2132,1.1758,0.0,0.0,0.0,0.0,0.0,0.0,0.0,0.0,0.0,0.0,0.0,0.0,0.0,0.0,0.0,0.0,0.0,0.0,0.0,0.0,0.0,0.0,0.0,0.0,0.0,0.0,0.0,0.0,0.0,0.0,0.0,0.0,0.0,0.0,0.0,0.0,0.0,0.0,0.0,0.0,0.0,0.0,0.0,0.0,0.0,0.0,0.0,0.0,0.0,0.0,0.0,0.0,0.0,0.0,0.0,0.0,0.0,0.0,0.0,0.0,1.4519,0.0,0.0,0.0,0.0,0.0,0.0,0.0,0.0,0.0,0.0,0.0,0.0,0.0,0.0,0.0,0.0,0.0,0.0,0.0,0.0,0.0,0.0,0.0,0.0,0.0,0.0,0.0,0.0,0.0,0.0,0.0,0.0,0.0,0.0,0.0,0.0,0.0,0.0,0.0,0.0,0.0,1.1699,1.2228,1.2621,1.2621,1.2621,1.2621,1.2621,1.2686,1.2549,1.2119,1.2635,0.0,0.0,0.0,0.0,0.0,0.0,0.0,0.0,0.0,0.0,0.0,0.0,0.0,0.0,0.0,0.0,0.0,0.0,0.0,0.0,0.0,0.0,0.0,0.0,0.0,0.0,0.0,0.0,0.0,0.0,0.0,0.0,0.0,0.0,0.0,0.0,0.0,0.0,0.0,0.0,0.0,0.0,0.0,0.0,0.0,0.0,0.0,0.0,0.0,0.0,0.0,0.0,0.0,0.0,0.0,0.0,0.0,0.0,0.0,0.0,1.556,0.0,0.0,0.0,0.0,0.0,0.0,0.0,0.0,0.0,0.0,0.0,0.0,0.0,0.0,0.0,0.0,0.0,0.0,0.0,0.0,0.0,0.0,0.0,0.0,0.0,0.0,0.0,0.0,0.0,0.0,0.0,0.0,0.0,0.0,0.0,0.0,0.0,0.0,0.0,0.0,1.2287,1.259,1.2832,1.2881,1.2905,1.2905,1.2905,1.2905,1.2904,1.2869,1.3094,0.0,0.0,0.0,0.0,0.0,0.0,0.0,0.0,0.0,0.0,0.0,0.0,0.0,0.0,0.0,0.0,0.0,0.0,0.0,0.0,0.0,0.0,0.0,0.0,0.0,0.0,0.0,0.0,0.0,0.0,0.0,0.0,0.0,0.0,0.0,0.0,0.0,0.0,0.0,0.0,0.0,0.0,0.0,0.0,0.0,0.0,0.0,0.0,0.0,0.0,0.0,0.0,0.0,1.8955,1.896,1.908,1.9106,1.908,1.9014,1.8058,1.73,1.6806,1.6908,0.0,0.0,0.0,0.0,0.0,0.0,0.0,0.0,0.0,0.0,0.0,0.0,0.0,0.0,0.0,0.0,0.0,0.0,0.0,0.0,0.0,0.0,0.0,0.0,1.3106,1.3128,0.0,0.0,0.0,0.0,0.0,0.0,0.0,0.0,0.0,0.0,0.0,0.0,1.2603,1.2652,1.2725,1.2856,1.2856,1.2881,1.2905,1.2905,1.3065,1.3454,1.3549,1.3823,0.0,0.0,0.0,0.0,0.0,0.0,0.0,0.0,0.0,0.0,0.0,0.0,0.0,0.0,0.0,0.0,0.0,0.0,0.0,0.0,0.0,0.0,0.0,0.0,0.0,0.0,0.0,0.0,0.0,0.0,0.0,0.0,1.9038,1.964,0.0,0.0,0.0,0.0,0.0,0.0,0.0,0.0,0.0,0.0,0.0,0.0,0.0,1.8721,1.8813,1.9133,1.9305,1.9422,1.9359,1.9319,1.9356,1.9479,1.9306,1.8946,1.9247,0.0,1.7865,1.7407,0.0,0.0,0.0,0.0,0.0,0.0,0.0,0.0,0.0,0.0,0.0,0.0,0.0,0.0,0.0,0.0,0.0,0.0,0.0,0.0,0.0,0.0,1.5343,1.5354,1.5106,1.4858,0.0,1.3372,1.2157,1.2179,1.2508,0.0,0.0,0.0,0.0,0.0,0.0,0.0,1.2357,1.2446,1.2578,1.27,1.2735,1.2774,1.2881,1.2905,1.2929,1.3002,1.3358,1.3644,1.3705,1.4152,0.0,0.0,0.0,0.0,0.0,0.0,0.0,0.0,0.0,0.0,0.0,0.0,0.0,0.0,0.0,0.0,0.0,0.0,0.0,0.0,0.0,0.0,0.0,0.0,0.0,0.0,0.0,0.0,0.0,2.0374,2.0584,2.1197,2.1173,2.1082,0.0,0.0,0.0,0.0,0.0,0.0,0.0,0.0,0.0,2.1382,2.1325,2.1325,2.1395,2.1524,2.1638,2.1694,2.1539,2.1564,2.1769,2.1823,2.1455,2.0744,2.0686,1.9979,1.884,1.8315,1.8163,1.8217,0.0,0.0,0.0,0.0,1.7126,1.7093,1.6899,1.6875,0.0,1.6848,0.0,0.0,0.0,0.0,0.0,0.0,0.0,0.0,0.0,0.0,1.5532,1.576,1.5672,1.5532,1.5532,1.4864,1.4156,0.0,1.3486,1.3326,1.3506,0.0,0.0,0.0,0.0,1.2989,1.3084,1.3136,1.3385,1.3922,1.3998,1.4023,1.4136,1.4139,1.4155,1.415,1.4339,1.457,1.4823,1.4846,1.4789,0.0,0.0,0.0,0.0,0.0,0.0,0.0,0.0,0.0,0.0,0.0,0.0,0.0,0.0,0.0,0.0,0.0,0.0,0.0,0.0,0.0,0.0,0.0,0.0,0.0,0.0,0.0,0.0,2.1655,2.1863,2.2436,2.2376,2.2178,0.0,0.0,0.0,0.0,0.0,0.0,2.2698,2.272,2.2997,2.3546,2.3697,2.3773,2.3773,2.3773,2.3773,2.3761,2.3457,2.3442,2.3696,2.3533,2.307,2.2402,2.2013,2.1237,2.0201,1.9132,1.8687,1.8654,1.8316,1.8185,1.8141,1.7798,1.7667,1.7645,1.7536,1.7492,1.747,1.735,1.7306,1.724,1.683,0.0,0.0,0.0,0.0,1.5429,1.5675,1.5754,1.5807,1.6118,1.6182,1.6182,1.6182,1.6092,1.5833,0.0,1.4566,1.4194,1.4546,0.0,0.0,0.0,0.0,1.3504,1.3594,1.3594,1.388,1.4588,1.4667,1.4785,1.5046,1.5063,1.5088,1.5095,1.5223,1.5405,1.5614,1.5401,1.5278,1.5255,0.0,0.0,0.0,0.0,0.0,0.0,0.0,0.0,0.0,0.0,0.0,0.0,0.0,0.0,0.0,0.0,0.0,0.0,0.0,0.0,0.0,0.0,0.0,0.0,0.0,0.0,0.0,0.0,0.0,2.2724,2.2773,0.0,0.0,0.0,0.0,2.3284,2.3122,2.3032,2.3058,2.3615,2.3929,2.3954,2.4469,2.4745,2.4745,2.4745,2.4745,2.4732,2.4205,2.3954,2.3954,2.3384,2.3094,2.3062,2.3036,2.2744,2.2145,1.9697,1.8687,1.8687,1.8665,1.8654,1.8654,1.8632,1.8611,1.8556,1.8119,1.7966,1.789,1.7431,1.7306,1.7295,1.7273,1.7224,0.0,0.0,1.7174,1.7174,1.7202,1.7202,1.7202,1.7202,1.723,1.723,1.723,1.6884,1.6384,0.0,1.5734,1.5558,1.5226,0.0,1.4872,1.4097,1.3963,1.3801,1.3377,1.3314,1.3413,1.3719,1.3773,1.4102,1.4925,1.5003,1.5025,1.5099,1.557,1.5636,1.5154,1.5547,1.5558,1.5108,1.5062,0.0,0.0,0.0,0.0,0.0,0.0,0.0,0.0,0.0,0.0,0.0,0.0,0.0,0.0,0.0,0.0,0.0,0.0,0.0,0.0,0.0,0.0,0.0,0.0,0.0,0.0,0.0,0.0,2.3496,2.3624,0.0,2.3971,2.4172,2.4293,2.4293,2.4217,2.4186,2.4186,2.4418,2.4519,2.4519,2.4687,2.4788,2.4788,2.4788,2.4788,2.4788,2.4619,2.4563,2.4614,2.3936,2.3729,2.3839,2.333,2.2861,2.2373,2.145,2.0765,2.0158,1.9432,1.9157,1.9113,1.8807,1.8687,1.8665,1.8501,1.8447,1.8414,1.825,1.8214,1.813,1.7835,1.7748,1.7682,1.7394,1.7306,1.7306,1.7306,1.7306,1.7306,1.7306,1.7306,1.7306,1.7306,1.7166,1.7002,1.6803,1.628,1.5911,1.6077,1.5846,1.554,1.5271,1.5215,1.5186,1.5102,1.5102,1.5317,1.5901,1.5946,1.6175,1.6744,1.6799,1.6737,1.6591,1.6762,1.6622,1.609,1.6227,1.6072,1.557,1.5244,1.4777,0.0,0.0,0.0,0.0,0.0,0.0,0.0,0.0,0.0,0.0,0.0,0.0,0.0,0.0,0.0,0.0,0.0,0.0,0.0,0.0,0.0,0.0,0.0,0.0,0.0,0.0,2.409,2.4192,2.4335,2.4394,2.4394,2.4639,2.4895,2.5071,2.5084,2.5172,2.536,2.5561,2.5649,2.5649,2.5837,2.5891,2.5891,2.5891,2.5891,2.5891,2.5891,2.5824,2.5583,2.4693,2.4197,2.407,2.3352,2.2833,2.25,2.2546,2.2196,2.1497,2.0344,1.991,1.9845,1.9364,1.9179,1.9157,1.8993,1.8829,1.8687,1.8687,1.8687,1.8632,1.8327,1.8239,1.8174,1.7846,1.7787,1.7787,1.7787,1.7639,1.7558,1.7558,1.7426,1.7306,1.7306,1.7306,1.7306,1.7306,1.6807,1.6485,1.6779,1.657,1.6314,1.6161,1.6142,1.6104,1.6056,1.6017,1.6257,1.6758,1.6825,1.7076,1.7698,1.778,1.7742,1.7663,1.7676,1.7423,1.6895,1.6871,1.6619,1.609,1.5427,1.4915,1.4559,0.0,0.0,0.0,0.0,0.0,0.0,0.0,0.0,0.0,0.0,0.0,0.0,0.0,0.0,0.0,0.0,0.0,0.0,0.0,0.0,0.0,0.0,0.0,2.4564,2.4425,2.4518,2.4815,2.4858,2.485,2.4863,2.4876,2.5134,2.5636,2.5674,2.5925,2.6512,2.7052,2.7306,2.7306,2.7821,2.8109,2.8109,2.8109,2.8109,2.8109,2.8073,2.7631,2.6789,2.5592,2.4574,2.3755,2.3268,2.2945,2.2769,2.2898,2.2806,2.2503,2.1374,2.0916,2.0861,2.0336,2.0151,2.0074,1.9584,1.9135,1.8731,1.8731,1.8731,1.8731,1.872,1.8709,1.8709,1.8698,1.8687,1.8687,1.8687,1.8359,1.8032,1.8032,1.7671,1.735,1.735,1.7339,1.7328,1.7328,1.7317,1.7306,1.7306,1.7306,1.7155,1.6694,1.6637,0.0,1.5989,1.5931,1.5989,1.6114,1.6142,1.656,1.7611,1.7722,1.7871,1.8202,1.8229,1.7989,1.746,1.7411,1.7159,1.6607,1.5636,1.5119,1.5108,0.0,0.0,0.0,0.0,0.0,0.0,0.0,0.0,0.0,0.0,0.0,0.0,0.0,0.0,0.0,0.0,0.0,0.0,0.0,0.0,0.0,0.0,2.5665,2.5246,2.5126,2.5186,2.5565,2.5862,2.6197,2.6565,2.6967,2.7268,2.7406,2.7419,2.7494,2.7645,2.7795,2.7883,2.7883,2.8021,2.8109,2.8109,2.8109,2.8109,2.8109,2.7471,2.736,2.7668,2.6144,2.5619,2.5911,2.5203,2.4506,2.3854,2.3892,2.3527,2.2775,2.1818,2.143,2.1374,2.1243,2.097,2.0598,2.0085,1.9824,1.9715,1.9715,1.9715,1.9649,1.9321,1.9222,1.9146,1.8785,1.8687,1.8687,1.8687,1.8589,1.8501,1.8501,1.8403,1.8334,1.8334,1.8043,1.7813,1.7813,1.7518,1.7306,1.7306,1.7306,1.725,1.7127,1.7099,0.0,1.692,1.6931,1.692,1.6987,1.6987,1.7256,1.7936,1.7991,1.8232,1.8756,1.877,1.853,1.8001,1.7989,1.7531,1.6619,1.5986,1.5498,0.0,0.0,0.0,0.0,0.0,0.0,0.0,0.0,0.0,0.0,0.0,0.0,0.0,0.0,0.0,0.0,0.0,0.0,0.0,0.0,0.0,0.0,2.6577,2.6588,2.6477,2.6185,2.622,2.6772,2.7024,2.7268,2.7595,2.7921,2.8197,2.8436,2.8448,2.8561,2.88,2.8812,2.8812,2.8812,2.8812,2.8812,2.8812,2.8812,2.8812,2.8812,2.8286,2.8122,2.821,2.6682,2.6229,2.6603,2.5572,2.4947,2.4635,2.4635,2.4115,0.0,0.0,0.0,0.0,0.0,2.1441,2.1135,2.0609,2.0445,2.0413,2.0172,2.0118,2.0063,1.978,1.9693,1.9627,1.9344,1.9299,1.9299,1.9299,1.9146,1.8993,1.8993,1.884,1.8687,1.8687,1.848,1.8294,1.8294,1.8065,0.0,1.7617,1.7437,1.7306,1.7306,1.7306,1.7306,1.7306,1.7306,1.7306,1.7306,1.7306,1.7529,1.8057,1.8084,0.0,0.0,0.0,1.8855,1.8554,1.8326,0.0,0.0,0.0,1.6268,1.5729,0.0,0.0,0.0,1.504,1.4926,0.0,0.0,0.0,0.0,0.0,0.0,0.0,0.0,0.0,0.0,0.0,0.0,0.0,0.0,0.0,0.0,2.7756,2.7921,2.7985,2.7601,2.7491,2.8121,2.8197,2.8222,2.8298,2.8298,2.8499,2.895,2.8988,2.9252,2.9767,0.0,0.0,0.0,0.0,2.9792,2.9792,2.9792,2.9792,2.9792,2.9714,2.93,2.8609,2.7301,2.6734,2.6632,2.5346,2.4965,2.5273,2.5116,2.4537,2.3684,2.2735,2.239,2.2335,2.1843,2.1669,2.1603,2.1146,0.0,0.0,2.0347,2.0194,2.0183,2.0129,2.0118,2.0118,2.0118,2.0118,2.0118,2.0118,1.9791,1.9464,1.9464,1.9168,1.8851,1.8851,1.8807,1.8774,1.8774,1.8731,1.8556,1.8152,1.7682,1.7372,1.7317,1.7306,1.7306,1.7306,1.7306,1.7306,1.7306,0.0,0.0,1.8057,1.8139,1.841,1.896,1.8987,1.8987,1.8987,1.8542,1.8265,1.8205,1.7724,1.7219,1.6691,1.6758,1.6548,1.6073,1.5244,1.513,0.0,0.0,0.0,0.0,0.0,0.0,0.0,0.0,0.0,0.0,0.0,0.0,0.0,0.0,0.0,2.8182,2.8337,2.8628,2.9102,2.9076,2.8942,2.8787,2.8737,2.895,2.9415,2.9465,2.9515,2.9616,2.9628,2.9679,2.9779,2.9792,2.9792,2.9792,2.9792,2.9792,2.9792,2.9792,2.9792,2.9792,0.0,0.0,2.9534,2.8564,2.8108,2.8068,2.7019,2.6554,2.6357,2.5132,2.4519,2.4246,2.3252,2.287,2.2815,2.2346,2.2182,2.2106,2.1614,2.145,2.1408,2.0916,2.0763,2.0653,2.0227,2.0118,0.0,2.0118,2.0118,2.0118,2.0118,2.0042,1.9976,1.9976,1.99,1.9834,1.9834,1.9529,1.9246,1.9246,1.896,1.8665,1.8578,1.8174,1.7737,1.7361,1.7306,1.7306,1.7306,1.7306,1.7306,1.7306,1.749,1.7767,1.8057,1.8356,1.864,1.8999,1.8987,1.8987,1.8987,1.8891,1.8638,1.8205,1.8097,1.7796,1.7231,1.6834,1.6627,1.6621,1.614,1.579,0.0,0.0,0.0,0.0,0.0,0.0,0.0,0.0,0.0,0.0,0.0,2.7514,0.0,0.0,2.8087,2.8756,2.88,2.8932,2.9423,2.9592,2.9593,2.9365,2.9428,2.958,2.9767,2.9792,2.9792,2.9792,2.9792,2.9792,2.9792,2.9792,2.9792,2.9792,2.9792,2.9792,2.9792,2.9792,2.9792,2.9792,2.9378,2.9378,2.9753,2.891,2.8752,2.9091,2.8171,2.7618,2.7212,2.5959,2.5443,2.5391,2.4651,2.3949,2.3269,2.2837,2.2663,2.2586,2.2116,2.1953,2.1876,2.1385,2.1255,2.1168,2.0653,2.05,2.0456,2.0183,2.0118,2.0118,2.0118,2.0118,2.0118,2.0118,2.0118,2.0118,2.0118,1.9922,1.9747,1.9747,1.9551,1.9342,1.9091,1.8862,1.8545,1.8054,1.7791,1.7639,1.7639,1.7459,1.7306,1.7306,1.7418,1.7656,1.8068,1.8533,1.8854,1.8987,1.8987,1.8987,1.8987,1.8987,1.8867,1.8602,1.8602,1.8338,1.7808,1.7544,1.7303,1.7098,1.689,1.6478,0.0,0.0,0.0,0.0,0.0,0.0,0.0,0.0,2.7395,2.7444,2.7437,2.7639,2.8417,2.8206,2.826,2.9295,2.9257,2.924,2.9615,2.9796,2.9908,2.9792,2.9934,2.9972,2.983,2.9792,2.9792,2.9792,2.9792,2.9792,2.9792,2.9792,2.9792,2.9792,2.9792,2.9792,2.9792,2.9792,2.9792,2.9792,2.9792,2.9792,2.9792,2.9079,2.9131,2.9753,2.9118,2.8422,2.7775,2.7221,2.6927,2.6751,2.6263,2.5324,2.415,2.3388,2.3078,2.2947,2.2575,2.2455,2.2368,2.1887,2.1734,2.1647,2.119,2.0971,2.0818,2.0402,2.0183,2.0118,2.0118,2.0118,2.0118,2.0118,2.0118,2.0118,2.0118,2.0118,2.0118,2.0118,2.0118,1.9987,1.9595,1.9529,1.9364,1.8774,1.837,1.8141,1.8141,1.7715,1.7476,1.7522,1.749,1.7684,1.822,1.8721,1.8987,1.8987,1.8987,1.8987,1.8987,1.8987,1.8987,1.8987,1.8987,1.8782,1.835,1.8253,1.7989,1.7543,1.746,1.7024,2.7469,2.7403,2.7302,2.7302,2.718,2.7079,0.0,0.0,2.722,2.7894,2.7868,2.8035,2.903,2.9106,2.9245,2.991,2.9995,3.005,3.0279,3.033,3.019,2.983,2.983,2.983,2.9792,2.9792,2.9792,2.9792,2.9792,2.9792,2.9792,2.9792,2.9792,2.9792,2.9792,2.9792,2.9792,2.9792,2.9792,2.9792,2.9792,2.9792,2.9792,2.9714,2.9702,2.9792,2.9882,2.9106,2.7879,2.8706,2.8709,2.8124,2.7675,2.6921,2.591,2.4233,2.3372,2.299,2.2936,2.2925,2.2848,2.239,2.2237,2.2149,2.1658,2.1244,2.0883,2.0829,2.0478,2.0118,2.0118,2.0118,2.0118,2.0118,2.0118,2.0118,2.0118,2.0118,2.0118,2.0118,2.0118,2.0096,2.0042,2.0031,1.9715,1.8829,1.8643,1.8611,1.8611,1.8206,1.7998,1.8253,1.8125,1.8247,1.8854,1.896,1.8987,1.8987,1.8987,1.8987,1.8987,1.8987,1.8987,1.8987,1.8987,1.8963,1.8903,1.8434,1.8169,1.8097,1.7603,1.7158,2.718,2.718,0.0,0.0,2.7152,2.7407,2.7601,2.7811,2.8036,2.8399,2.8366,2.8533,2.9269,2.9406,2.9551,0.0,3.0252,3.0292,3.0406,3.0292,3.0152,2.9972,2.9972,2.9934,2.9792,2.9792,2.9792,2.9792,2.9792,2.9792,2.9792,2.9792,2.9792,2.9792,2.9792,2.9792,2.9792,2.9792,2.9792,2.9792,2.9792,2.9792,2.9792,2.9792,2.9869,2.9972,2.9664,2.9496,2.9484,2.9561,2.9394,2.9123,2.8927,2.8169,2.6921,2.5116,2.3998,2.3383,2.3099,2.3001,2.2968,2.2772,2.2717,2.263,2.216,2.1865,2.1592,2.1047,2.0752,2.05,2.0183,2.0118,2.0118,2.0118,2.0118,2.0118,2.0118,2.0118,2.0118,2.0118,2.0118,2.0118,2.0118,2.0118,1.9976,1.9562,1.9267,1.9113,1.9113,1.8698,1.8401,1.8382,1.8398,1.8479,1.8747,1.8907,1.8987,1.8987,1.8987,1.8987,1.8987,1.8987,1.8987,1.8987,1.8987,1.8987,1.8987,1.877,1.8662,1.8662,1.8434,1.8062,2.7024,0.0,0.0,2.6989,2.7364,2.7769,2.7982,2.8275,2.8522,2.8809,2.8775,2.8941,2.9626,2.9654,2.9794,3.038,3.0406,3.033,3.0406,3.0254,3.0152,3.0113,3.0113,3.0049,2.9895,2.9869,2.9869,2.9869,2.9869,2.9869,2.9869,2.9869,2.9869,2.9869,2.983,2.9792,2.9792,2.9792,2.9792,2.9792,2.9792,2.983,2.9869,2.9934,3.0011,3.0075,2.969,2.9973,3.066,3.0241,3.0063,3.0063,3.0063,2.9338,2.8088,2.6639,2.5243,2.3973,2.3393,2.311,2.3001,2.3001,2.3001,2.2936,2.2608,2.2386,2.2171,2.1461,2.1102,2.0818,2.0435,2.0216,2.0118,2.0118,2.0118,2.0118,2.0118,2.0118,2.0118,2.0118,2.0118,2.0118,2.0118,2.0118,2.0118,2.0118,1.9909,1.971,1.9615,1.9251,1.901,1.8918,1.8828,1.8826,1.8907,1.8964,1.8987,1.8987,1.9093,1.9172,1.9172,1.9277,1.933,1.933,1.9225,1.9172,1.9172,1.904,1.8987,1.8987,1.8987,1.8809,0.0,0.0,2.7563,2.7563,2.7826,2.8121,2.8352,2.8255,2.8321,2.9036,2.9038,2.9189,3.0202,3.005,2.9998,3.0584,3.0343,3.019,3.0368,3.0406,3.033,3.0113,3.0113,3.0113,0.0,3.0075,3.0075,3.0075,3.0075,3.0075,3.0075,3.0075,3.0075,3.0075,2.9895,2.9792,2.9792,2.9792,2.9792,2.9792,2.9792,2.9895,3.0113,3.0292,3.0292,3.0113,3.0508,3.066,3.0698,3.0874,3.0949,3.0949,3.0949,3.0419,2.9565,2.9076,2.721,2.4826,2.3968,2.3394,2.3001,2.3001,2.3001,2.3001,2.299,2.2673,2.2277,2.228,2.1592,2.0894,2.0872,2.05,2.0118,2.0118,2.0118,2.0118,2.0118,2.0118,2.0118,2.0118,2.0118,2.0118,2.0118,2.0118,2.0118,2.0118,2.0345,2.0463,2.0118,1.9957,1.9942,2.0123,1.9613,1.9396,1.9729,1.9287,1.8987,1.8987,1.9382,1.9591,1.9591,1.9952,2.0156,2.0156,1.9798,1.9591,1.9591,1.9198,1.8987,1.8987,1.8987,1.9066,0.0,0.0,2.8098,2.799,2.8284,2.8686,2.8872,2.9088,2.9353,2.9707,2.9745,2.9808,3.0152,3.019,3.0228,3.0267,3.0432,3.047,3.0406,3.0727,3.0958,3.1036,3.1265,0.0,0.0,0.0,0.0,3.0385,3.045,3.0601,3.0941,3.0966,3.0966,3.0966,3.0559,3.0331,3.0331,2.998,2.9792,2.9792,2.9792,2.983,2.9895,3.0113,3.0228,3.0292,3.0584,3.0773,3.0911,3.0986,3.0986,3.0986,3.0986,3.0823,3.0482,2.9732,2.8686,2.7345,2.5281,2.4461,2.4194,2.3286,2.3001,2.3001,2.3001,2.2892,2.2706,2.2411,2.2084,2.1756,2.1463,2.0981,2.062,2.062,2.038,2.0118,2.0118,2.0118,2.0118,2.0118,2.0118,2.0118,2.0118,2.0118,2.0118,2.0118,2.0205,2.0399,2.0775,2.0483,2.0343,2.0622,2.0357,2.0076,1.9817,1.9885,1.9789,1.9433,1.9798,2.0003,2.0003,2.0131,2.0207,2.0207,2.008,2.0003,2.0003,1.9862,1.9668,1.9408,1.95,1.9604,2.7865,2.8214,2.8558,2.8411,2.8825,2.9277,2.9378,2.9592,2.983,2.9972,3.0049,3.0113,3.0113,3.0254,3.0368,3.0228,3.0419,3.0533,3.0406,3.092,3.1345,3.15,3.1912,3.2273,0.0,0.0,0.0,3.1191,3.1217,3.1409,3.1739,3.1683,3.1683,3.1764,3.1193,3.0836,3.0687,3.0374,3.0136,3.0011,3.01,3.0088,3.0011,3.0305,3.0457,3.0533,3.0723,3.0874,3.0986,3.0986,3.0986,3.0986,3.0986,3.0986,3.0936,3.0381,2.9986,2.9352,2.6848,2.5714,2.5203,2.4089,2.3753,2.3728,2.3187,2.3176,2.3283,2.2714,2.2614,2.2548,2.2002,2.168,2.143,2.0994,2.0809,2.0653,2.0486,2.0635,2.0752,2.0518,2.0453,2.0388,2.0151,2.0302,2.0518,2.0603,2.0784,2.1008,2.1293,2.1109,2.1158,2.1735,2.144,2.1121,2.0893,2.073,2.0515,2.0163,2.0297,2.0422,2.0422,2.0548,2.0623,2.0623,2.0498,2.0422,2.0422,2.0283,2.008,1.9823,1.9914,2.0029,2.8288,2.8673,2.8938,2.8938,2.939,2.9792,2.9792,2.9792,2.9792,2.9792,2.9972,3.0113,0.0,0.0,3.0406,3.0406,3.0406,3.0406,3.0406,3.1061,3.1539,0.0,0.0,0.0,0.0,0.0,0.0,3.2471,0.0,3.2445,3.2471,3.2283,3.2283,3.2471,3.1815,3.1307,3.1001,3.0938,3.0738,3.0406,3.0571,3.0571,3.0406,3.0798,3.0874,3.0698,3.0911,3.0986,3.0986,3.0986,3.0986,3.0986,3.0986,3.0986,3.0986,3.0986,3.0986,3.0707,2.8594,2.7146,2.6129,2.5322,2.5166,2.5016,2.3545,2.3596,2.3938,2.3239,2.327,2.3337,2.2587,2.2587,2.2491,2.1307,2.1452,2.172,2.1229,2.1628,2.1928,2.1282,2.1155,2.0944,2.0291,2.0752,2.1313,2.1585,2.2039,2.2212,2.1741,2.1846,2.2322,2.33,2.2795,2.247,2.276,2.1825,2.1196,2.1118,2.0975,2.086,2.0833,2.1191,2.1399,2.1399,2.1031,2.082,2.0833,2.0447,2.0258,2.0233,2.0233,2.0397,2.8724,2.9177,2.9578,2.9578,2.9679,2.9792,2.9792,2.9792,2.9792,2.9792,2.9972,3.0113,0.0,0.0,0.0,3.0368,3.0406,0.0,3.0609,3.15,0.0,3.2384,0.0,3.3731,3.3884,3.3829,0.0,0.0,3.3206,3.2937,3.336,3.3303,3.3303,3.3386,3.281,3.2475,3.2375,3.1545,3.088,3.0406,3.0444,3.0444,3.0406,3.0647,3.0736,3.0698,3.0911,3.0986,3.0986,3.0986,3.0986,3.0986,3.0986,3.0986,3.0986,3.0986,3.0986,3.0923,3.034,2.9339,2.8002,2.6347,2.5462,2.5042,2.4776,2.4432,2.4047,2.3866,2.4303,2.4637,2.384,2.3886,2.3891,2.2983,2.2734,2.2486,2.1795,2.1875,2.2039,2.1896,2.1865,2.1803,2.1616,2.2132,2.2439,2.2039,2.2786,2.3292,2.2975,2.2871,2.301,2.3501,2.339,2.3134,2.2827,2.2812,2.2454,2.1603,2.1777,2.1722,2.1267,2.135,2.1399,2.1399,2.1288,2.124,2.124,2.1142,2.0945,2.066,2.0747,2.0995,2.9239,2.9541,2.9792,2.9792,2.9792,2.9792,2.9792,2.9792,2.983,2.9895,3.0075,0.0,0.0,0.0,0.0,0.0,0.0,0.0,3.0907,3.1863,3.2684,0.0,3.3779,0.0,3.4397,3.4397,3.4397,0.0,3.389,3.3685,3.3995,3.3937,3.3937,3.4008,3.3531,3.3178,3.3016,3.1884,3.1229,3.1009,3.0788,3.0672,3.0672,3.0761,3.0849,3.0849,0.0,3.0986,3.0986,3.0986,3.0986,3.0986,3.0986,3.0986,3.0986,3.0986,3.0986,3.0986,3.0986,3.049,2.9603,2.7915,2.698,2.6335,2.5432,2.5147,2.4981,2.4289,2.4909,2.5616,2.4814,2.4989,2.5139,2.4141,2.4004,2.3831,2.2959,2.3076,2.3206,2.2641,2.2286,2.2101,2.2101,2.2713,2.3075,2.2683,2.3547,2.4173,2.4028,2.3796,2.3754,2.4089,2.4176,2.4103,2.3802,2.372,2.3432,2.2777,2.2475,2.2156,2.1792,2.1534,2.1399,2.1399,2.1399,2.1399,2.1399,2.1399,2.1337,2.1226,2.1204,2.1496,2.9654,2.9792,2.9792,2.9792,2.9792,2.9792,2.983,2.983,2.9895,3.0113,0.0,3.0482,3.0609,3.0798,3.0836,3.0482,0.0,3.1005,3.1138,3.2045,3.2881,3.3417,3.4018,3.4397,3.4397,3.4397,3.4397,3.4397,3.4397,3.4397,3.4397,3.4243,3.4243,3.4397,3.4021,3.3624,3.3247,3.2278,3.1785,3.1797,3.1339,3.1065,3.0986,3.0986,3.0986,3.0986,3.0986,3.0986,3.0986,3.0986,3.0986,3.0986,3.0986,3.0986,3.0986,3.0986,3.0986,3.0986,3.0986,3.0986,3.0807,2.9564,2.8854,2.8103,2.6069,2.596,2.6226,2.4814,2.544,2.638,2.5652,2.6,2.6267,2.5101,2.5255,2.5396,2.44,2.4625,2.4658,2.3454,2.2786,2.2378,2.2359,2.2985,2.3463,2.3433,2.4192,2.4806,2.4806,2.4565,2.4494,2.4806,2.492,2.5005,2.5005,2.4502,2.4177,2.4109,2.3133,2.2509,2.2427,2.1857,2.1507,2.1507,2.144,2.1399,2.1399,2.1399,2.1544,2.1793,2.1568,2.1864,2.9767,2.9792,2.9792,2.9792,2.9792,2.983,3.0011,3.0049,0.0,0.0,0.0,3.0609,3.0482,3.0609,0.0,3.066,0.0,0.0,0.0,0.0,3.2725,0.0,0.0,0.0,0.0,0.0,0.0,0.0,0.0,3.4397,3.4397,3.4356,3.4356,3.4397,3.4314,3.4053,3.3559,3.3338,3.275,3.1797,3.1706,3.1444,3.0986,3.0986,3.0986,3.0986,3.0986,0.0,3.0986,3.0986,3.0986,3.0986,3.0986,3.0986,3.0986,3.0986,3.0986,3.0986,3.0986,3.0986,3.0895,3.016,2.9442,2.8754,2.8039,2.7484,2.6992,2.6216,2.662,2.7154,2.638,2.6769,2.7095,2.6289,2.6294,2.6271,2.5421,2.5102,2.4805,2.407,2.3927,2.3884,2.3763,2.4115,2.4334,2.4134,2.4507,2.4806,2.4806,2.4863,2.4892,2.4948,2.4977,2.5005,2.5005,2.491,2.4639,2.4123,2.3892,2.3554,2.3066,2.2456,2.2142,2.2142,2.1643,2.1399,2.1399,2.1399,2.1544,2.1793,2.1746,2.2044,2.9792,2.9792,2.9792,2.9792,2.9792,2.9869,3.0049,0.0,0.0,0.0,0.0,3.0698,3.0723,0.0,0.0,0.0,0.0,0.0,0.0,0.0,0.0,0.0,0.0,0.0,0.0,0.0,0.0,0.0,0.0,3.4397,3.4397,3.4397,3.4397,3.4397,3.4397,3.428,3.4018,3.3731,3.3156,3.228,3.1941,3.1497,3.0986,3.0986,3.0986,3.0986,3.0986,0.0,3.0986,3.0986,3.0986,3.0986,3.0986,3.0986,3.0986,3.0986,3.0986,3.0986,3.0986,3.0986,3.0934,3.066,3.0138,2.9417,2.8497,2.8071,2.7655,2.6681,2.6939,2.7423,2.704,2.7222,2.7423,2.704,2.6815,2.6596,2.6212,2.554,2.4943,2.4728,2.4458,2.4305,2.4361,2.4563,2.4664,2.4565,2.4778,2.4892,2.4892,2.4948,2.5005,2.5005,2.5005,2.5005,2.5005,2.5005,2.4883,2.4598,2.4258,2.396,2.3689,2.3093,2.2768,2.2768,2.2196,2.1884,2.1884,2.1548,2.1616,2.1996,2.1864,2.2137,2.9792,2.9792,2.9792,2.9792,2.9792,2.9869,3.0113,3.0152,0.0,0.0,3.0773,3.0811,3.0986,0.0,0.0,0.0,0.0,0.0,0.0,0.0,0.0,0.0,0.0,0.0,0.0,0.0,0.0,0.0,0.0,0.0,3.4397,3.4397,3.4397,3.4397,3.4397,3.4397,3.4397,3.3979,3.347,3.2881,3.2254,3.168,3.1169,3.1039,3.0986,3.0986,3.0986,0.0,0.0,3.0986,3.0986,3.0986,3.0986,3.0986,3.0986,3.0986,3.0986,3.0986,3.0986,3.0986,3.0986,3.0986,3.0686,3.0056,2.8901,2.8553,2.8347,2.7169,2.7143,2.749,2.749,2.749,2.749,2.749,2.7183,2.685,2.6732,2.5999,2.5323,2.5195,2.4807,2.4538,2.4547,2.4721,2.4835,2.4806,2.492,2.5005,2.5005,2.5005,2.5005,2.5005,2.5005,2.5005,2.5005,2.5005,2.5005,2.5005,2.4571,2.4286,2.4286,2.3716,2.3405,2.3405,2.2795,2.2466,2.2367,2.1904,2.1907,2.2278,2.2067,2.2301,2.9792,2.9792,2.9792,2.9792,2.9792,2.9895,3.0292,0.0,0.0,0.0,3.0986,3.0986,3.0986,3.0986,3.0986,0.0,0.0,0.0,0.0,0.0,0.0,0.0,0.0,0.0,0.0,0.0,0.0,0.0,0.0,0.0,3.4397,3.4397,3.4397,3.4397,3.4397,3.4397,3.4397,3.4345,3.4045,3.3496,3.2894,3.2319,3.1706,3.1222,3.0986,3.0986,3.0986,0.0,0.0,3.0986,3.0986,3.0986,3.0986,3.0986,3.0986,3.0986,3.0986,3.0986,3.0986,3.0986,3.0986,3.0986,3.0947,3.0803,3.0118,2.9581,2.9065,2.8395,2.7861,2.749,2.749,2.749,2.749,2.749,2.7451,2.7301,2.6824,2.6627,2.6235,2.5232,2.515,2.5087,2.4443,2.4679,2.4948,2.4806,2.492,2.5005,2.5005,2.5005,2.5005,2.5005,2.5005,2.5005,2.5005,2.5005,2.5005,2.5005,2.4951,2.4924,2.4924,2.4326,2.4014,2.4014,2.3432,2.2978,2.2655,2.2625,2.2574,2.2555,2.2532,2.2661,3.0482,3.0139,2.9792,2.9792,2.9908,3.0049,3.033,0.0,0.0,3.0949,3.0986,3.0986,3.0986,3.0986,3.0986,0.0,0.0,0.0,0.0,0.0,0.0,0.0,0.0,0.0,0.0,0.0,0.0,0.0,0.0,0.0,3.4397,3.4397,3.4397,3.4397,3.4397,3.4397,3.4397,3.4397,3.4123,3.3587,3.2986,3.2385,3.1784,3.1248,3.0986,3.0986,3.0986,0.0,0.0,3.0986,3.0986,3.0986,3.0986,3.0986,3.0986,3.0986,3.0986,3.0986,3.0986,3.0986,3.0986,3.0986,3.0986,3.0882,3.027,2.9931,2.9601,2.8647,2.8216,2.7968,2.7581,2.749,2.749,2.749,2.749,2.7458,2.74,2.7072,2.6735,2.6382,2.5921,2.5467,2.5138,2.5035,2.4977,2.492,2.4977,2.5005,2.5005,2.5005,2.5005,2.5005,2.5005,2.5005,2.5005,2.5005,2.5005,2.5005,2.5005,2.5005,2.5005,2.4774,2.4652,2.4652,2.4042,2.3781,2.3836,2.3476,2.3448,2.3722,2.3336,2.3267,3.1106,3.0558,3.0062,2.9856,3.0113,3.0419,0.0,0.0,3.1357,3.1334,3.1334,3.1408,3.1616,3.1296,3.1048,0.0,0.0,0.0,0.0,0.0,0.0,0.0,0.0,0.0,0.0,0.0,0.0,0.0,0.0,0.0,3.4397,3.4397,3.4397,3.4397,3.4397,3.4397,3.4397,3.4397,3.4201,3.3822,3.3051,3.2489,3.2032,3.1326,3.0986,3.0986,3.0986,0.0,0.0,3.0986,3.0986,3.0986,3.0986,3.0986,3.0986,3.0986,3.0986,3.0986,3.0986,3.0986,3.0986,3.0986,3.0986,3.0908,3.0516,3.0231,2.9918,2.9131,2.8647,2.8242,2.7646,2.7523,2.7556,2.749,2.7556,2.7623,2.7776,2.7472,2.7161,2.7195,2.6675,2.6069,2.569,2.5432,2.5208,2.5032,2.5005,2.5005,2.5005,2.5005,2.5005,2.5005,2.5005,2.5005,2.5005,2.5005,2.5005,2.5005,2.5005,2.5005,2.5005,2.5005,2.5005,2.5005,2.4598,2.4423,2.4582,2.4335,2.4385,2.4638,2.4379,2.4224,3.1389,3.1031,3.072,2.996,3.0482,3.1044,0.0,0.0,3.2713,3.2218,3.2074,3.229,3.3038,3.1992,3.1222,3.1978,3.1468,0.0,0.0,0.0,0.0,0.0,0.0,0.0,0.0,0.0,0.0,0.0,0.0,0.0,3.4397,3.4397,3.4397,3.4397,3.4397,3.4397,3.4397,3.4397,3.4397,3.4384,3.3234,3.2685,3.2646,3.1509,3.0986,3.0986,0.0,0.0,0.0,3.0986,3.0986,3.0986,3.0986,3.0986,3.0986,3.0986,3.0986,3.0986,3.0986,3.0986,3.0986,3.0986,3.0986,3.0986,3.0973,3.0581,3.01,3.0087,2.9274,2.8242,2.7646,2.7656,2.7756,2.7556,2.7656,2.7809,2.7809,2.7809,2.7657,2.728,2.7305,2.7023,2.5883,2.5799,2.5683,2.51,2.5005,2.5005,2.5005,2.5005,2.5005,2.5005,2.5005,2.5005,2.5005,2.5005,2.5005,2.5005,2.5005,2.5005,2.5005,2.5005,2.5005,2.5005,2.4991,2.4846,2.4502,2.5171,2.5325,2.5009,2.5656,2.5621,3.3059,3.2514,3.1997,3.1756,3.2046,3.2321,3.2155,3.2635,3.3073,3.2897,3.2861,3.2932,3.3143,3.2804,3.2591,3.2791,3.2662,0.0,0.0,0.0,0.0,0.0,0.0,0.0,0.0,0.0,0.0,0.0,0.0,0.0,3.4397,3.4397,3.4397,3.4397,3.4397,3.4397,3.4397,3.4397,3.4397,3.4384,3.3234,3.2685,3.2659,3.1509,3.0986,0.0,0.0,0.0,0.0,3.0986,3.0986,3.0986,3.0986,3.0986,3.0986,3.0986,3.0986,3.0986,3.0986,3.0986,3.0986,3.0986,3.0986,3.0986,3.0986,3.0869,3.0634,3.0218,2.9287,2.8381,2.815,2.7945,2.7776,2.7723,2.7868,2.8033,2.8137,2.8124,2.8103,2.7994,2.7773,2.7444,2.696,2.634,2.5833,2.5629,2.5263,2.5005,2.5005,2.5005,2.5005,2.5005,2.5005,2.5005,2.5005,2.5005,2.5005,2.5005,2.5005,2.5005,2.5005,2.5397,2.5619,2.5619,2.5987,2.6195,2.6272,2.6579,2.6609,2.6378,2.6591,2.6321,0.0,3.3478,3.2975,3.2678,3.2961,0.0,0.0,3.3526,3.3968,3.3665,3.363,3.3699,3.4002,3.3575,3.3283,3.3561,3.3388,0.0,0.0,0.0,0.0,0.0,0.0,0.0,0.0,0.0,0.0,0.0,0.0,0.0,3.4439,3.4716,3.4868,3.4868,3.4551,3.4397,3.4397,3.4188,3.4249,3.4496,3.3067,3.2515,3.2787,3.1557,3.0986,0.0,0.0,0.0,0.0,3.0986,3.0986,3.0986,3.0986,3.0986,3.0986,3.0986,3.0986,3.0986,3.0986,3.0986,3.0986,3.0986,3.0986,3.0986,3.0986,3.0986,3.0906,3.0367,2.9709,2.9075,2.871,2.8497,2.8266,2.7987,2.8066,2.8183,2.83,2.8287,2.832,2.8398,2.8211,2.7931,2.7561,2.7006,2.6416,2.5955,2.5575,2.5263,2.5032,2.5005,2.5005,2.5005,2.5005,2.509,2.5314,2.5118,2.5005,2.5005,2.5202,2.5342,2.5342,2.5892,2.619,2.619,2.6587,2.6875,2.7045,2.7399,2.7676,2.779,2.779,2.7442,0.0,0.0,0.0,0.0,0.0,0.0,0.0,3.4341,0.0,3.4528,3.438,3.461,3.5359,3.4322,3.3596,3.4279,3.3802,0.0,0.0,0.0,0.0,0.0,0.0,0.0,0.0,0.0,0.0,0.0,0.0,0.0,3.4634,3.5345,3.579,3.579,3.4951,3.4498,3.4498,3.3958,3.402,3.4692,3.2852,3.2321,3.2959,3.171,3.1123,0.0,0.0,0.0,0.0,3.1024,3.1024,3.1048,3.1024,3.1024,3.1048,3.1024,3.0986,3.0986,3.0986,3.0986,3.0986,3.0986,3.1024,3.1024,3.1024,3.1024,3.0906,3.0553,3.0441,3.02,2.9358,2.9147,2.9047,2.8332,2.8243,2.832,2.832,2.832,2.8365,2.8554,2.8587,2.841,2.7868,2.7732,2.7325,2.6185,2.5982,2.5738,2.5141,2.5059,2.5059,2.5005,2.5033,2.5286,2.5839,2.5397,2.5061,2.5061,2.5619,2.5948,2.5893,2.6455,2.6756,2.6756,2.6927,2.703,2.703,2.779,2.8479,2.9098,2.9098,2.8767,3.5213,0.0,3.5082,3.4887,0.0,0.0,0.0,3.5213,3.5439,3.5246,0.0,0.0,3.5472,3.518,3.5001,3.518,3.5067,0.0,0.0,0.0,0.0,0.0,0.0,0.0,0.0,0.0,0.0,0.0,0.0,3.6543,3.6346,3.6503,3.6621,3.6621,3.5928,3.5537,3.5537,3.4802,3.4595,3.4853,3.3956,3.3353,3.2983,3.2772,3.2376,0.0,0.0,0.0,3.1809,3.1222,3.1334,3.1773,3.1222,3.132,3.1773,3.1222,3.0986,3.0986,3.0986,3.0986,3.0986,3.0986,3.1099,3.1235,3.1235,3.1123,3.0998,3.1064,3.0758,3.0385,3.0321,2.9749,2.9141,2.8973,2.8729,2.8522,2.8522,2.8522,2.8554,2.8587,2.8587,2.8546,2.841,2.8017,2.761,2.7325,2.6891,2.6375,2.5765,2.5683,2.5507,2.5059,2.5425,2.5757,2.5893,2.5784,2.5702,2.5702,2.6203,2.6336,2.5921,2.6797,2.7297,2.7297,2.7894,2.8244,2.8341,2.8574,2.885,2.9098,2.9098,2.9019,3.5504,3.5504,3.5504,3.5504,3.5504,3.5504,3.5504,0.0,0.0,0.0,0.0,0.0,0.0,0.0,0.0,0.0,3.5504,0.0,0.0,0.0,0.0,0.0,0.0,0.0,0.0,0.0,0.0,0.0,0.0,3.7333,3.6919,3.7295,3.7501,3.7501,3.6849,3.632,3.5891,3.493,3.4636,3.5031,3.4121,3.3648,3.3598,3.3333,3.2967,0.0,0.0,0.0,3.2577,3.2173,3.2232,3.2577,3.2173,3.2064,3.2051,3.164,3.1296,3.0986,3.0986,3.1061,3.1123,3.1123,3.1286,3.1434,3.1434,3.136,3.1336,3.1508,3.1282,3.094,3.0949,3.0554,3.0038,2.9484,2.9172,2.8926,2.8655,2.8587,2.8587,2.8587,2.8587,2.8587,2.8587,2.8329,2.8017,2.7746,2.7434,2.7091,2.6819,2.6488,2.6256,2.6245,2.6265,2.6363,2.6602,2.6628,2.6522,2.6283,2.6771,2.6953,2.6654,2.753,2.8042,2.8107,2.8501,2.8755,2.8858,2.8959,2.9029,2.9098,2.9098,2.9098,3.5504,3.5504,3.5504,3.5504,3.5504,3.5504,3.5504,0.0,0.0,0.0,0.0,0.0,0.0,0.0,0.0,0.0,0.0,0.0,0.0,0.0,0.0,0.0,0.0,0.0,0.0,0.0,0.0,0.0,0.0,3.806,3.7319,3.7971,3.8389,3.8389,3.7645,3.6895,3.6127,3.4885,3.4597,3.5223,3.4074,3.3802,3.4279,3.3768,3.3471,3.3353,0.0,0.0,3.3353,3.3262,3.3262,3.3353,3.3248,3.2897,3.242,3.229,3.1882,3.1334,3.1334,3.1371,3.1482,3.1593,3.1716,3.1803,3.195,3.1877,3.184,3.2059,3.1877,3.1599,3.1451,3.1368,3.1029,3.0032,2.9638,2.9366,2.8831,2.8655,2.8587,2.8587,2.8587,2.8619,2.8702,2.8734,2.8589,2.8177,2.814,2.8121,2.8077,2.7512,2.7328,2.7808,2.7348,2.7177,2.7629,2.765,2.7439,2.7004,2.7388,2.7655,2.768,2.8277,2.866,2.8794,2.8818,2.8834,2.8904,2.9029,2.9098,2.9098,2.9098,2.9098,3.5504,3.5504,3.5504,3.5504,3.5504,3.5504,3.5504,0.0,0.0,0.0,0.0,0.0,0.0,0.0,0.0,0.0,0.0,0.0,0.0,0.0,0.0,0.0,0.0,0.0,0.0,0.0,0.0,0.0,0.0,3.9156,3.9017,3.9141,3.9228,3.9228,3.8022,3.7312,3.7193,3.5732,3.5175,3.5442,3.524,3.4839,3.4312,3.4887,3.4773,3.4129,0.0,3.4129,3.4075,3.3457,3.3561,3.4075,3.3457,3.3526,3.3891,3.3248,3.2981,3.2875,3.2875,3.2569,3.2345,3.2946,3.2946,3.2804,3.3443,3.3213,3.2733,3.2946,3.2467,3.1877,3.2037,3.1667,3.1246,3.1056,3.0263,2.9475,2.9393,2.894,2.8587,2.8587,2.8587,2.8766,2.9282,2.9362,2.9521,2.9988,3.0079,2.9894,2.9392,2.9204,2.9,2.8604,2.8411,2.833,2.8423,2.8333,2.821,2.8137,2.821,2.8308,2.8414,2.8549,2.866,2.8794,2.8858,2.8897,2.8904,2.9029,2.9098,2.9098,2.9098,2.9098,3.5504,3.5504,3.5504,3.5504,3.5504,3.5504,3.5504,0.0,0.0,0.0,0.0,0.0,0.0,0.0,0.0,0.0,0.0,0.0,0.0,0.0,0.0,0.0,0.0,0.0,0.0,0.0,0.0,0.0,0.0,0.0,3.9388,3.9388,3.9388,3.9388,3.8108,3.7404,3.7404,3.6033,3.5411,3.5504,3.5504,3.5326,3.4938,3.5311,3.5311,3.4953,0.0,3.4953,3.4905,3.4572,3.4639,3.4905,3.4572,3.4375,3.4211,3.3457,3.3178,3.3213,3.3332,3.3262,3.3241,3.363,3.3734,3.3719,3.4061,3.3925,3.3581,3.3283,3.2547,3.1963,3.2146,3.2261,3.2136,3.1461,3.1151,3.0934,3.0649,3.0062,2.9683,3.0084,2.9865,2.9701,2.9981,3.0042,3.0133,3.045,3.0494,3.0527,3.0615,3.0318,3.0091,3.0153,2.9807,2.9574,2.9574,2.9521,2.9156,2.8458,2.8411,2.8493,2.8684,2.8636,2.8668,2.8842,2.8873,2.8904,2.8904,2.9029,2.9098,2.9098,2.9098,2.9098,3.5504,3.5504,3.5504,3.5504,3.5504,3.5504,3.5504,0.0,0.0,0.0,0.0,0.0,0.0,0.0,0.0,0.0,0.0,0.0,0.0,0.0,0.0,0.0,0.0,0.0,0.0,0.0,0.0,0.0,0.0,0.0,3.9388,3.9388,3.9313,3.9185,3.8033,3.7345,3.7195,3.6073,3.5504,3.5504,3.5504,3.5504,3.5504,3.5504,3.5504,3.5504,3.5504,3.5504,3.5504,3.5504,3.5504,3.5504,3.5504,3.5133,3.4509,3.3973,3.3802,3.3802,3.3939,3.4056,3.4158,3.438,3.4514,3.4581,3.4747,3.4681,3.4447,3.3856,3.3101,3.2467,3.2444,3.2925,3.3205,3.2229,3.2303,3.2443,3.2037,3.1395,3.1013,3.1435,3.1076,3.0714,3.0718,3.0733,3.0778,3.0925,3.0955,3.1131,3.1652,3.1272,3.1122,3.1586,3.1028,3.0555,3.0402,3.0402,2.9981,2.8984,2.8784,2.8735,2.8818,2.8716,2.8748,2.8943,2.8943,2.8943,2.8943,2.9052,2.9098,2.9098,2.9098,2.9098,3.5504,3.5504,3.5504,3.5504,3.5504,0.0,3.5504,3.5504,0.0,3.5504,0.0,0.0,0.0,0.0,0.0,0.0,0.0,0.0,0.0,0.0,0.0,0.0,0.0,0.0,0.0,0.0,0.0,0.0,0.0,0.0,3.9388,3.9388,3.9125,3.8482,3.7778,3.7135,3.6552,3.5863,3.5504,3.5504,3.5504,3.5504,3.5504,3.5504,3.5504,3.5504,3.5504,3.5504,3.5504,3.5504,3.5504,3.5504,3.5504,3.5472,3.5424,3.5494,3.5512,3.5512,3.5544,3.5302,3.5109,3.5655,3.5608,3.5432,3.6148,3.5864,3.5302,3.527,3.4714,3.3973,3.3297,3.3665,3.4197,3.4119,3.369,3.3322,3.3278,3.2771,3.2179,3.1615,3.1469,3.1434,3.1439,3.1422,3.1623,3.2188,3.2272,3.2272,3.2342,3.2296,3.2293,3.2321,3.172,3.1074,3.0448,3.0402,3.0407,3.0438,2.985,2.9321,2.8912,2.8881,2.8943,2.9075,2.9075,2.9075,2.9075,2.9098,2.9098,2.9098,2.9098,2.9098,3.5504,3.5504,3.5504,3.5504,3.5504,0.0,0.0,3.5504,3.5504,3.5504,3.5504,0.0,0.0,0.0,0.0,0.0,0.0,0.0,0.0,0.0,0.0,0.0,0.0,0.0,0.0,0.0,0.0,0.0,0.0,0.0,3.9388,3.9388,3.9095,3.8407,3.7749,3.7105,3.6492,3.5833,3.5504,3.5504,3.5504,3.5504,3.5504,3.5504,3.5504,3.5504,3.5504,3.5504,3.5504,3.5504,3.5554,3.5621,3.5621,3.5686,3.5797,3.5735,3.5784,3.5894,3.5975,3.5896,3.5832,3.6195,3.6226,3.6148,3.6429,3.632,3.5975,3.5529,3.5529,3.54,3.4197,3.4447,3.4861,3.4413,3.4471,3.4656,3.4656,3.4152,3.3745,3.3954,3.3638,3.3229,3.2766,3.2673,3.2621,3.2432,3.2398,3.2398,3.2398,3.2398,3.2398,3.2398,3.2167,3.1921,3.1674,3.1643,3.1554,3.1358,3.0654,3.0233,3.0207,3.0192,3.028,3.0409,3.0409,3.0409,3.0409,3.0241,3.0156,3.014,3.0026,2.9968,3.5504,3.5504,3.5504,3.5504,0.0,0.0,3.5504,3.5504,3.5564,3.5774,3.5968,0.0,0.0,0.0,0.0,0.0,0.0,0.0,0.0,0.0,0.0,0.0,0.0,0.0,0.0,0.0,0.0,0.0,0.0,0.0,0.0,3.9388,3.9005,3.8108,3.7644,3.7015,3.6178,3.5729,3.5504,3.5504,3.5504,3.5504,3.5504,3.5504,3.5504,3.5504,3.5504,3.5504,3.5504,3.5504,3.5572,3.572,3.5752,3.5863,3.6005,3.5879,3.5943,3.6068,3.6179,3.6242,3.6305,3.6383,3.646,3.6492,3.6492,3.6492,3.6383,3.5879,3.6116,3.6289,3.527,3.5367,3.564,3.5124,3.54,3.5737,3.5737,3.5389,3.5137,3.5446,3.5136,3.4597,3.386,3.3552,3.3244,3.2782,3.2536,3.2398,3.2398,3.2398,3.2398,3.2398,3.2398,3.2398,3.2398,3.2398,3.2334,3.2168,3.1622,3.1249,3.1058,3.1067,3.1092,3.1198,3.1198,3.1198,3.1198,3.1181,3.1179,3.1163,3.1194,3.1065,3.5504,3.5504,3.5504,0.0,0.0,0.0,3.5519,3.5519,3.5699,3.6357,0.0,0.0,0.0,0.0,0.0,0.0,0.0,0.0,0.0,0.0,0.0,0.0,0.0,0.0,0.0,0.0,0.0,0.0,0.0,0.0,0.0,3.9388,3.8811,3.7449,3.7404,3.6791,3.5519,3.5504,3.5504,3.5504,3.5504,3.5504,3.5504,3.5504,3.5504,3.5504,3.5504,3.5504,3.5504,3.5504,3.5572,3.572,3.5926,3.6005,3.6037,3.6148,3.6196,3.6196,3.6196,3.6352,3.646,3.6274,3.6352,3.6492,3.6492,3.6492,3.6492,3.6492,3.6492,3.6492,3.6492,3.6492,3.6492,3.6492,3.6492,3.6492,3.6492,3.6492,3.6292,3.566,3.5521,3.5306,3.4628,3.3891,3.3413,3.3398,3.2829,3.2398,3.2398,3.2398,3.2398,3.2398,3.2398,3.2398,3.2398,3.2398,3.2551,3.287,3.2897,3.2379,3.1277,3.1214,3.1214,3.1214,3.1214,3.1214,3.1239,3.1766,3.201,3.2034,3.2496,3.2325,3.5504,3.5504,0.0,3.5504,0.0,0.0,0.0,3.6193,0.0,0.0,0.0,0.0,0.0,0.0,0.0,0.0,0.0,0.0,0.0,0.0,0.0,0.0,0.0,0.0,0.0,0.0,0.0,0.0,0.0,0.0,0.0,3.9388,3.8811,3.7449,3.7404,3.6791,3.5519,3.5504,3.5504,3.5504,3.5504,3.5504,3.5504,3.5504,3.5504,3.5504,3.5504,3.5504,3.5537,3.5733,3.5878,3.5941,3.6085,3.6226,3.6336,3.6242,3.6274,3.6414,3.6414,3.646,3.6492,3.6414,3.646,3.6492,3.6492,3.6492,3.6492,3.6492,3.6492,3.6492,3.6492,3.6492,3.6492,3.6492,3.6492,3.6492,3.6492,3.6492,3.643,3.623,3.6184,3.5984,3.5337,3.4999,3.4537,3.3552,3.3229,3.2936,3.2459,3.2398,3.2398,3.2398,3.248,3.2496,3.2425,3.2496,3.2648,3.287,3.2897,3.2817,3.2666,3.2692,3.2692,3.2692,3.2692,3.2857,3.3246,3.3215,3.3379,3.369,3.3677,3.3564,3.5504,3.5504,0.0,3.5504,3.5504,3.5744,3.6641,0.0,0.0,0.0,0.0,0.0,0.0,0.0,0.0,0.0,0.0,0.0,0.0,0.0,0.0,0.0,0.0,0.0,0.0,0.0,0.0,0.0,0.0,0.0,0.0,3.9388,3.8811,3.7449,3.7404,3.6791,3.5519,3.5504,3.5504,3.5504,3.5504,3.5522,3.5572,3.5572,3.5554,3.5504,3.5504,3.5522,3.5604,3.5878,3.6037,3.61,3.6258,3.6383,3.6492,3.6352,3.6383,3.6492,3.6492,3.6492,3.6492,3.6492,3.6492,3.6492,3.6492,3.6492,3.6492,3.6492,3.6492,3.6492,3.6492,3.6492,3.6492,3.6492,3.6492,3.6492,3.6492,3.6492,3.6492,3.6492,3.6492,3.6368,3.5984,3.5691,3.5199,3.4352,3.3998,3.3583,3.289,3.2798,3.269,3.2428,3.2523,3.2578,3.2496,3.2621,3.28,3.2978,3.2978,3.3085,3.3309,3.3309,3.3309,3.3309,3.3309,3.3581,3.4101,3.4118,3.4401,3.4883,3.4939,3.4818,3.5504,3.5504,0.0,3.5504,3.5549,0.0,3.7135,3.7913,3.8407,3.8467,0.0,0.0,0.0,0.0,0.0,0.0,0.0,0.0,0.0,0.0,0.0,0.0,0.0,0.0,0.0,0.0,0.0,0.0,0.0,0.0,0.0,3.9328,3.8736,3.7449,3.7345,3.6731,3.5537,3.5537,3.5537,3.5537,3.5537,3.5604,3.572,3.572,3.5638,3.5537,3.5537,3.5604,3.5752,3.5941,3.6085,3.6211,3.6414,3.6492,3.6492,3.6492,3.6492,3.6492,3.6492,3.6492,3.6492,3.6492,3.6492,3.6492,3.6492,3.6492,3.6492,3.6492,3.6492,3.6492,3.6492,3.6492,3.6492,3.6492,3.6492,3.6492,3.6492,3.6492,3.6492,3.6492,3.6492,3.6492,3.6492,3.5984,3.5553,3.5521,3.4936,3.4274,3.3583,3.3506,3.3275,3.2659,3.2736,3.2791,3.2807,3.3002,3.3134,3.3206,3.3244,3.3292,3.3388,3.3372,3.3372,3.3372,3.3424,3.3694,3.4234,3.4666,3.5161,3.5661,3.6092,3.5939,3.5504,3.5504,0.0,0.0,3.5893,3.6477,3.724,3.7913,3.8542,0.0,0.0,0.0,0.0,0.0,0.0,0.0,0.0,0.0,0.0,0.0,0.0,0.0,0.0,0.0,0.0,0.0,0.0,0.0,0.0,0.0,3.9388,3.8901,3.8242,3.7434,3.706,3.6466,3.5671,3.5814,3.5893,3.5893,3.5893,3.591,3.5941,3.5752,3.5767,3.5893,3.5893,3.591,3.5941,3.6085,3.6179,3.6211,3.6414,3.6492,3.6492,3.6492,3.6492,3.6492,3.6492,3.6492,3.6492,3.6492,3.6492,3.6492,3.6492,3.6492,3.6492,3.6492,3.6492,3.6492,3.6492,3.6492,3.6492,3.6492,3.6492,3.6492,3.6492,3.6492,3.6492,3.6492,3.6492,3.6492,3.6492,3.6368,3.6107,3.5598,3.4936,3.4443,3.4289,3.4274,3.4212,3.4073,3.4273,3.4359,3.4244,3.4532,3.4466,3.3913,3.4282,3.4358,3.394,3.3924,3.3924,3.3924,3.4292,3.4745,3.5276,3.5391,3.5683,3.6156,3.6259,3.6215,3.5504,0.0,0.0,3.5504,0.0,3.6656,3.727,3.7913,0.0,0.0,0.0,0.0,0.0,0.0,0.0,0.0,0.0,0.0,0.0,0.0,0.0,0.0,0.0,0.0,0.0,0.0,0.0,0.0,0.0,3.8966,3.9052,3.8442,3.7801,3.7221,3.6975,3.6542,3.5831,3.5941,3.6005,3.6005,3.6005,3.6037,3.6085,3.5926,3.5926,3.6085,3.6037,3.6037,3.6085,3.6179,3.6274,3.6352,3.646,3.6492,3.6492,3.6492,3.6492,3.6492,3.6492,3.6492,3.6492,3.6492,3.6492,3.6492,3.6492,3.6492,3.6492,3.6492,3.6492,3.6492,3.6492,3.6492,3.6492,3.6492,3.6492,3.6492,3.6492,3.6492,3.6492,3.6492,3.6492,3.6492,3.6492,3.6492,3.6368,3.6014,3.566,3.5352,3.5028,3.5042,3.4918,3.4536,3.4736,3.4865,3.4794,3.5279,3.5438,3.5133,3.5633,3.5822,3.5538,3.5737,3.5407,3.444,3.469,3.5052,3.5594,3.5594,3.5854,3.6301,3.6301,3.6301,3.5651,0.0,3.5504,3.5504,3.5908,0.0,3.7105,0.0,0.0,0.0,0.0,0.0,0.0,0.0,0.0,0.0,0.0,0.0,0.0,0.0,0.0,0.0,0.0,0.0,0.0,0.0,0.0,0.0,0.0,3.8332,3.8521,3.7903,3.7367,3.7003,3.6899,3.6582,3.6037,3.6068,3.6068,3.6068,3.6068,3.6132,3.6242,3.6132,3.6163,3.6242,3.6116,3.6163,3.6242,3.6242,3.6352,3.6492,3.6492,3.6492,3.6492,3.6492,3.6492,3.6492,3.6492,3.6492,3.6492,3.6492,3.6492,3.6492,3.6492,3.6492,3.6492,3.6492,3.6492,3.6492,3.6492,3.6492,3.6492,3.6492,3.6492,3.6492,3.6492,3.6492,3.6492,3.6492,3.6492,3.6492,3.6492,3.6492,3.6492,3.6492,3.6492,3.6292,3.5722,3.5796,3.561,3.4965,3.5122,3.5339,3.5454,3.6043,3.6427,3.6521,3.7083,3.7336,3.7245,3.7675,3.7172,3.5475,3.5342,3.5417,3.5705,3.5705,3.592,3.6301,3.6301,3.6301,0.0,0.0,3.5504,0.0,3.5564,0.0,0.0,0.0,0.0,0.0,0.0,0.0,0.0,0.0,0.0,0.0,0.0,0.0,0.0,0.0,0.0,0.0,0.0,0.0,0.0,0.0,0.0,0.0,3.7584,3.7623,3.7809,3.7176,3.6884,3.6988,3.6542,3.6271,3.6179,3.6352,3.6429,3.6429,3.6429,3.6429,3.646,3.6429,3.6429,3.646,3.6429,3.6445,3.646,3.646,3.6492,3.6492,3.6492,3.6492,3.6492,3.6492,3.6492,3.6492,3.6492,3.6492,3.6492,3.6492,3.6492,3.6492,3.6492,3.6492,3.6492,3.6492,3.6492,3.6492,3.6492,3.6492,3.6492,3.6492,3.6492,3.6492,3.6492,3.6492,3.6492,3.6492,3.6492,3.6492,3.6492,3.6492,3.6492,3.6492,3.6492,3.6461,3.6368,3.6461,3.6522,3.643,3.6702,3.7103,3.7626,3.7879,3.7948,3.7843,3.838,3.8366,3.7722,3.8225,3.8362,3.8088,3.747,3.6822,3.6216,3.6216,3.6237,3.6301,3.6301,3.6301,3.6538,3.5973,3.5504,0.0,0.0,0.0,0.0,0.0,0.0,0.0,0.0,0.0,0.0,0.0,0.0,0.0,0.0,0.0,0.0,0.0,0.0,0.0,0.0,0.0,0.0,0.0,0.0,0.0,3.7143,3.7098,3.7313,3.6745,3.651,3.67,3.6489,3.6383,3.6383,3.646,3.6492,3.6492,3.6492,3.6492,3.6492,3.6492,3.6492,3.6492,3.6492,3.6492,3.6492,3.6492,3.6492,3.6492,3.6492,3.6492,3.6492,3.6492,3.6492,3.6492,3.6492,3.6492,3.6492,3.6492,3.6492,3.6492,3.6492,3.6492,3.6492,3.6492,3.6492,3.6492,3.6492,3.6492,3.6492,3.6492,3.6492,3.6492,3.6492,3.6492,3.6492,3.6492,3.6492,3.6492,3.6492,3.6492,3.6492,3.6492,3.6492,3.6631,3.6952,3.7193,3.7415,3.7663,3.7966,3.8278,3.853,3.8897,3.9139,3.9159,3.9702,3.9891,3.9555,3.976,3.9687,3.9215,3.8474,3.7922,3.7577,3.7163,3.6956,3.6956,3.6508,3.6301,0.0,0.0,0.0,0.0,0.0,0.0,0.0,0.0,0.0,0.0,0.0,0.0,0.0,0.0,0.0,0.0,0.0,0.0,0.0,0.0,0.0,0.0,0.0,0.0,0.0,0.0,0.0,0.0,3.6694,3.6602,3.678,3.6438,3.6274,3.6492,3.6492,3.6492,3.6492,3.6492,3.6492,3.6492,3.6677,3.6723,3.6723,3.6723,3.6723,3.6723,3.6585,3.6492,3.6492,3.6492,3.6492,3.6523,3.6662,3.6631,3.6523,3.6662,3.6631,3.6492,3.6492,3.6492,3.6492,3.6492,3.6492,3.6492,3.6492,3.6492,3.6492,3.6492,3.6492,3.6492,3.6492,3.66,3.6723,3.6723,3.6723,3.6693,3.6523,3.6492,3.6492,3.6492,3.6492,3.6492,3.6492,3.6492,3.6492,3.6492,3.6492,3.6723,3.7328,3.7634,3.7978,3.8502,3.8805,3.9032,3.9166,3.9586,3.9952,4.022,4.0662,4.0912,4.0912,4.0912,4.0636,4.0008,3.9457,3.8996,3.8594,3.8065,3.7789,3.7771,3.7146,3.6784,0.0,0.0,0.0,0.0,0.0,0.0,0.0,0.0,0.0,0.0,0.0,0.0,0.0,0.0,0.0,0.0,0.0,0.0,0.0,0.0,0.0,0.0,0.0,0.0,0.0,0.0,0.0,0.0,3.5938,3.6114,3.6225,3.6226,3.6274,3.6492,3.6492,3.6492,3.6492,3.6492,3.6492,3.6523,3.7074,3.7358,3.7358,3.7358,3.7358,3.7328,3.6754,3.6492,3.6492,3.6492,3.6492,3.6554,3.7118,3.7013,3.6585,3.7148,3.6983,3.6492,3.6492,3.6492,3.6492,3.6492,3.6492,3.6492,3.6492,3.6492,3.6492,3.6492,3.6492,3.6492,3.6492,3.6922,3.7358,3.7358,3.7358,3.7208,3.6631,3.6492,3.6492,3.6492,3.6492,3.6492,3.6492,3.6492,3.6492,3.6492,3.6492,3.6723,3.7328,3.7634,3.8023,3.8629,3.9001,3.9401,3.9902,3.9978,4.0245,4.0823,4.0871,4.0912,4.0912,4.0912,4.0877,4.0843,4.0808,4.0066,3.8594,3.8543,3.8525,3.8525,3.8491,3.8116,0.0,0.0,0.0,0.0,0.0,0.0,0.0,0.0,0.0,0.0,0.0,0.0,0.0,0.0,0.0,0.0,0.0,0.0,0.0,0.0,0.0,0.0,0.0,0.0,0.0,0.0,0.0,0.0,0.0,3.6148,3.6196,3.6305,3.6414,3.6492,3.6492,3.6693,3.7058,3.7074,3.7252,3.7663,3.7867,3.7982,3.7982,3.7982,3.7982,3.7953,3.7751,3.7431,3.7104,3.7504,3.765,3.7679,3.7895,3.7838,3.7663,3.7895,3.7838,3.7621,3.7208,3.7074,3.7074,3.7074,3.6816,3.6585,3.6952,3.6816,3.6492,3.6492,3.6492,3.6585,3.6983,3.7238,3.749,3.7883,3.7982,3.7924,3.7693,3.7058,3.6492,3.6492,3.6492,3.6492,3.6492,3.6492,3.6492,3.6492,3.6569,3.6997,3.7982,3.8346,3.8897,3.9885,4.0179,4.0377,4.0549,4.0573,4.0662,4.0888,4.0912,4.0912,4.0912,4.0912,4.0912,4.0912,4.0912,4.0636,4.0083,3.9543,3.9301,3.9284,3.8819,3.8461,0.0,0.0,0.0,0.0,0.0,0.0,0.0,0.0,0.0,0.0,0.0,0.0,0.0,0.0,0.0,0.0,0.0,0.0,0.0,0.0,0.0,0.0,0.0,0.0,0.0,0.0,0.0,0.0,0.0,0.0,3.66,3.6739,3.6892,3.7118,3.7103,3.7282,3.7679,3.7709,3.7895,3.8306,3.8518,3.8601,3.8601,3.8601,3.8601,3.8601,3.8601,3.8266,3.7738,3.8124,3.8306,3.8306,3.8518,3.849,3.8306,3.8546,3.8474,3.8222,3.7854,3.7709,3.7709,3.7709,3.7431,3.7163,3.7578,3.7415,3.7103,3.7103,3.7103,3.7193,3.7592,3.7854,3.8112,3.8518,3.8601,3.8546,3.8334,3.7663,3.7103,3.7103,3.7103,3.7103,3.7103,3.7103,3.7103,3.7103,3.7222,3.7679,3.8668,3.9032,3.9577,4.0583,4.0817,4.0912,4.0912,4.0912,4.0912,4.0912,4.0912,4.0912,4.0912,4.0912,4.0912,4.0912,4.0912,4.0912,4.0912,4.0377,4.0095,4.0077,3.9595,3.9238,0.0,0.0,0.0,0.0,0.0,0.0,0.0,0.0,0.0,0.0,0.0,0.0,0.0,0.0,0.0,0.0,0.0,0.0,0.0,0.0,0.0,0.0,0.0,0.0,0.0,0.0,0.0,0.0,3.7663,3.7447,3.7447,3.7447,3.7679,3.8278,3.8306,3.8322,3.8351,3.8351,3.8351,3.8362,3.8947,3.9232,3.9232,3.9232,3.9232,3.9232,3.9232,3.8876,3.8334,3.8334,3.8334,3.839,3.9001,3.8865,3.8418,3.9001,3.8865,3.8334,3.8334,3.8351,3.8351,3.8351,3.8306,3.8306,3.8306,3.8306,3.8306,3.8306,3.8306,3.8306,3.8306,3.8767,3.9232,3.9232,3.9232,3.9055,3.849,3.8334,3.8334,3.8322,3.8306,3.8306,3.8306,3.8306,3.8306,3.8306,3.8418,3.8723,3.9332,3.9629,4.0045,4.0631,4.0817,4.0912,4.0912,4.0912,4.0912,4.0912,4.0912,4.0912,4.0912,4.0912,4.0912,4.0912,4.0912,4.0912,4.0912,4.0912,4.0912,4.0912,4.0912,4.0498,4.0096,0.0,0.0,0.0,0.0,0.0,0.0,0.0,0.0,0.0,0.0,0.0,0.0,0.0,0.0,0.0,0.0,0.0,0.0,0.0,0.0,0.0,0.0,0.0,0.0,0.0,0.0,0.0,3.8108,3.8039,3.8039,3.8039,3.8124,3.8278,3.8306,3.8518,3.8947,3.8947,3.9162,3.9601,3.9773,3.985,3.985,3.985,3.985,3.985,3.985,3.9773,3.9601,3.9601,3.9601,3.9627,3.9799,3.9747,3.9627,3.9799,3.9747,3.9549,3.9109,3.8947,3.8947,3.8947,3.8657,3.8362,3.8821,3.8657,3.8306,3.8306,3.8306,3.839,3.8821,3.9391,3.985,3.985,3.985,3.9799,3.9627,3.9601,3.9348,3.8474,3.8306,3.8306,3.8306,3.8306,3.8306,3.8306,3.8502,3.8859,3.9463,3.9774,4.017,4.0776,4.0888,4.0912,4.0912,4.0912,4.0912,4.0912,4.0912,4.0912,4.0912,4.0912,4.0912,4.0912,4.0912,4.0912,4.0912,4.0912,4.0912,4.0912,4.0912,4.0791,0.0,0.0,0.0,0.0,0.0,0.0,3.8799,3.8652,3.8463,0.0,0.0,0.0,0.0,0.0,0.0,0.0,0.0,0.0,0.0,0.0,0.0,0.0,0.0,0.0,0.0,3.9265,3.9195,3.9065,3.8821,3.8684,3.8684,3.8684,3.8794,3.9038,3.9038,3.9216,3.9575,3.9592,3.9747,4.0096,4.0096,4.0096,4.0096,4.0096,4.0096,4.0096,4.0096,4.0096,4.0096,4.0096,4.0096,4.0096,4.0096,4.0096,4.0096,4.0096,4.0096,4.0045,3.9696,3.9592,3.9592,3.9592,3.9322,3.9135,3.947,3.9322,3.9038,3.9038,3.9038,3.9119,3.947,3.9825,4.0096,4.0096,4.0096,4.0096,4.0096,4.0096,3.9876,3.9189,3.9092,3.9135,3.9065,3.9092,3.9135,3.9065,3.9279,3.9568,3.9935,4.0212,4.0524,4.0847,4.0912,4.0912,4.0912,4.0912,4.0912,4.0912,4.0912,4.0912,4.0912,4.0912,4.0912,4.0912,4.0912,4.0912,4.0912,4.0912,4.0912,4.0912,4.0912,4.0912,0.0,0.0,0.0,0.0,0.0,0.0,3.9032,3.9322,3.9487,3.8657,0.0,0.0,0.0,0.0,0.0,0.0,0.0,0.0,0.0,0.0,0.0,0.0,0.0,0.0,3.9901,3.9901,3.9977,4.007,3.9601,3.9312,3.9312,3.9312,3.9566,4.007,4.0096,4.0096,4.0096,4.0096,4.0096,4.0096,4.0096,4.0096,4.0096,4.0096,4.0096,4.0096,4.0096,4.0096,4.0096,4.0096,4.0096,4.0096,4.0096,4.0096,4.0096,4.0096,4.0096,4.0096,4.0096,4.0096,4.0096,4.0096,4.0096,4.0096,4.0096,4.0096,4.0096,4.0096,4.0096,4.0096,4.0096,4.0096,4.0096,4.0096,4.0096,4.0096,4.0096,4.0096,4.0096,4.0096,4.0213,4.0263,4.0138,4.0238,4.0263,4.0163,4.0362,4.0534,4.0534,4.0728,4.0912,4.0912,4.0912,4.0912,4.0912,4.0912,4.0912,4.0912,4.0912,4.0912,4.0912,4.0912,4.0912,4.0912,4.0912,4.0912,4.0912,4.0912,4.0912,4.0912,4.0912,4.0912,0.0,0.0,0.0,0.0,0.0,0.0,3.9876,3.9944,3.9944,0.0,0.0,0.0,0.0,0.0,0.0,0.0,0.0,0.0,0.0,0.0,0.0,0.0,0.0,0.0,3.9901,3.9901,3.9977,4.007,3.9995,3.9901,3.9901,3.9901,3.9969,4.0113,4.0096,4.0096,4.0096,4.0096,4.0096,4.0096,4.0096,4.0096,4.0096,4.0096,4.0096,4.0096,4.0096,4.0096,4.0096,4.0096,4.0096,4.0096,4.0096,4.0096,4.0096,4.0096,4.0096,4.0096,4.0096,4.0096,4.0096,4.0096,4.0096,4.0096,4.0096,4.0096,4.0096,4.0096,4.0096,4.0096,4.0096,4.0096,4.0096,4.0096,4.0096,4.0096,4.0096,4.0096,4.0096,4.0096,4.0213,4.0288,4.028,4.0362,4.0461,4.0436,4.0558,4.0673,4.0673,4.0817,4.0912,4.0912,4.0912,4.0912,4.0912,4.0912,4.0912,4.0912,4.0912,4.0912,4.0912,4.0912,4.0912,4.0912,4.0912,4.0912,4.0912,4.0912,4.0912,4.0912,4.0912,4.0912,0.0,0.0,0.0,4.1213,0.0,0.0,0.0,4.0265,3.9961,3.9833,0.0,0.0,0.0,0.0,0.0,0.0,0.0,0.0,0.0,0.0,0.0,0.0,0.0,0.0,3.9986,3.9986,4.0037,4.0096,4.0096,4.0096,4.0096,4.0096,4.0096,4.0096,4.0096,4.0096,4.0096,4.0096,4.0096,4.0096,4.0096,4.0096,4.0096,4.0096,4.0096,4.0096,4.0096,4.0096,4.0096,4.0096,4.0096,4.0096,4.0096,4.0096,4.0096,4.0096,4.0096,4.0096,4.0096,4.0096,4.0096,4.0096,4.0096,4.0096,4.0096,4.0096,4.0096,4.0096,4.0096,4.0096,4.0096,4.0096,4.0096,4.0096,4.0096,4.0096,4.0096,4.0096,4.0096,4.0096,4.0263,4.0387,4.0305,4.0478,4.0583,4.051,4.0607,4.0697,4.0697,4.0817,4.0912,4.0912,4.0912,4.0912,4.0912,4.0912,4.0912,4.0912,4.0912,4.0912,4.0912,4.0912,4.0912,4.0912,4.0912,4.0912,4.0912,4.0912,4.0912,4.0912,4.0912,4.1012,0.0,0.0,0.0,0.0,0.0,4.1381,0.0,0.0,0.0,4.0042,0.0,0.0,0.0,0.0,0.0,0.0,0.0,0.0,0.0,0.0,0.0,0.0,0.0,0.0,4.0096,4.0096,4.0096,4.0096,4.0096,4.0096,4.0096,4.0096,4.0096,4.0096,4.0096,4.0096,4.0096,4.0096,4.0096,4.0096,4.0096,4.0096,4.0096,4.0096,4.0096,4.0096,4.0096,4.0096,4.0096,4.0096,4.0096,4.0096,4.0096,4.0096,4.0096,4.0096,4.0096,4.0096,4.0096,4.0096,4.0096,4.0096,4.0096,4.0096,4.0096,4.0096,4.0096,4.0096,4.0096,4.0096,4.0096,4.0096,4.0096,4.0096,4.0096,4.0096,4.0096,4.0096,4.0096,4.0096,4.0337,4.0461,4.0355,4.0576,4.0697,4.0583,4.0673,4.0745,4.0745,4.084,4.0912,4.0912,4.0912,4.0912,4.0912,4.0912,4.0912,4.0912,4.0912,4.0912,4.0912,4.0912,4.0912,4.0912,4.0912,4.0942,4.1035,4.1035,4.0989,4.0912,4.0989,4.1186,0.0,0.0,0.0,0.0,4.2236,0.0,0.0,0.0,4.1837,4.1169,0.0,0.0,0.0,0.0,0.0,0.0,0.0,0.0,0.0,0.0,0.0,0.0,0.0,0.0,0.0,4.0096,4.0096,4.0096,4.0096,4.0096,4.0096,4.0096,4.0096,4.0096,4.0096,4.0096,4.0096,4.0096,4.0096,4.0096,4.0096,4.0096,4.0096,4.0096,4.0096,4.0096,4.0096,4.0096,4.0096,4.0096,4.0096,4.0096,4.0096,4.0096,4.0096,4.0096,4.0096,4.0096,4.0096,4.0096,4.0096,4.0096,4.0096,4.0096,4.0096,4.0096,4.0096,4.0096,4.0096,4.0096,4.0096,4.0096,4.0096,4.0096,4.0096,4.0096,4.0096,4.0096,4.0096,4.0096,4.0337,4.051,4.0485,4.0704,4.0871,4.0864,4.0864,4.0888,4.0888,4.0888,4.0912,4.0912,4.0912,4.0912,4.0912,4.0912,4.0912,4.0912,4.0912,4.0912,4.0912,4.0912,4.0912,4.0912,4.0912,4.1088,4.1423,4.1423,4.1237,4.0912,4.126,4.1468,0.0,0.0,0.0,0.0,0.0,0.0,4.2946,0.0,4.2202,0.0,0.0,0.0,0.0,0.0,0.0,0.0,4.0096,0.0,0.0,0.0,0.0,0.0,0.0,0.0,0.0,0.0,0.0,0.0,4.0096,4.0096,4.0096,4.0096,4.0096,4.0096,4.0096,4.0096,4.0096,4.0096,4.0096,4.0096,4.0096,4.0096,4.0096,4.0096,4.0096,4.0096,4.0096,4.0096,4.0096,4.0096,4.0096,4.0096,4.0096,4.0096,4.0096,4.0096,4.0096,4.0096,4.0096,4.0096,4.0096,4.0096,4.0096,4.0096,4.0096,4.0096,4.0096,4.0096,4.0096,4.0096,4.0096,4.0096,4.0096,4.0096,4.0163,4.0213,4.0213,4.0288,4.032,4.032,4.0485,4.0624,4.0624,4.0776,4.0912,4.0912,4.0912,4.0912,4.0912,4.0912,4.0912,4.0912,4.0912,4.0912,4.0912,4.0912,4.0912,4.0912,4.0912,4.0912,4.0912,4.0912,4.0995,4.1237,4.1237,4.1468,4.1906,4.1906,4.1821,4.1666,4.1821,4.2053,4.4615,0.0,0.0,0.0,0.0,0.0,0.0,0.0,0.0,0.0,0.0,0.0,0.0,0.0,0.0,0.0,0.0,0.0,0.0,0.0,0.0,0.0,0.0,0.0,0.0,0.0,0.0,4.0096,4.0096,4.0096,4.0096,4.0096,4.0096,4.0096,4.0096,4.0096,4.0096,4.0096,4.0096,4.0096,4.0096,4.0096,4.0096,4.0096,4.0214,4.0417,4.0417,4.0519,4.0705,4.0705,4.0705,4.0705,4.0705,4.0705,4.0654,4.0248,4.0096,4.0096,4.0096,4.0096,4.0096,4.0096,4.0096,4.0096,4.0096,4.0096,4.0096,4.0096,4.0096,4.0096,4.0096,4.0096,4.0096,4.0096,4.0188,4.0305,4.0305,4.0412,4.051,4.051,4.0624,4.0697,4.0697,4.0817,4.0912,4.0912,4.0912,4.0912,4.0912,4.0912,4.0912,4.0912,4.0912,4.0912,4.0912,4.0912,4.0912,4.0912,4.0912,4.0912,4.0912,4.1012,4.1209,4.1494,4.1626,4.1927,4.2398,4.2398,4.2458,4.2539,4.2458,4.2557,0.0,0.0,0.0,4.4615,0.0,0.0,0.0,0.0,4.4327,0.0,0.0,0.0,0.0,0.0,0.0,0.0,0.0,0.0,0.0,0.0,0.0,0.0,0.0,0.0,0.0,0.0,4.0096,4.0096,4.0096,4.0096,4.0096,4.0096,4.0096,4.0096,4.0096,4.0096,4.0096,4.0096,4.0096,4.0096,4.0096,4.0096,4.0096,4.0096,4.0476,4.117,4.117,4.1576,4.2219,4.2219,4.2219,4.2219,4.2219,4.2219,4.2049,4.0637,4.0096,4.0096,4.0096,4.0096,4.0096,4.0096,4.0096,4.0096,4.0096,4.0096,4.0096,4.0096,4.0096,4.0096,4.0096,4.0096,4.0096,4.0096,4.0188,4.0305,4.0305,4.0412,4.051,4.051,4.0624,4.0697,4.0697,4.0817,4.0912,4.0912,4.0912,4.0912,4.0912,4.0912,4.0912,4.0912,4.0912,4.0912,4.0912,4.0912,4.0912,4.0912,4.0912,4.0912,4.0912,4.1283,4.149,4.1494,4.1948,4.2418,4.2882,4.2882,4.3069,4.3444,4.305,4.2882,0.0,0.0,4.4615,4.4615,0.0,0.0,0.0,0.0,0.0,0.0,0.0,0.0,0.0,0.0,0.0,0.0,0.0,0.0,0.0,0.0,0.0,0.0,0.0,0.0,0.0,0.0,0.0,4.0096,4.0096,4.0096,4.0096,4.0096,4.0096,4.0096,4.0096,4.0096,4.0096,4.0096,4.0096,4.0096,4.0096,4.0367,4.0832,4.0832,4.1221,4.1931,4.1931,4.2066,4.2286,4.2286,4.2286,4.2286,4.2286,4.2286,4.2168,4.1187,4.0832,4.0747,4.0282,4.0096,4.0096,4.0096,4.0096,4.0096,4.0096,4.0096,4.0096,4.0096,4.0163,4.0213,4.0138,4.0163,4.0213,4.0138,4.0288,4.0436,4.0436,4.0607,4.0752,4.0752,4.0799,4.084,4.084,4.0864,4.0912,4.0912,4.0912,4.0912,4.0912,4.0912,4.0912,4.0912,4.0912,4.0912,4.0912,4.0912,4.0912,4.0912,4.0912,4.1018,4.1283,4.1423,4.1799,4.2418,4.2577,4.2864,4.3304,4.3304,4.3375,4.3497,4.3357,4.3304,4.4615,4.4615,0.0,4.4615,4.4615,0.0,4.4615,0.0,0.0,0.0,0.0,0.0,0.0,0.0,0.0,0.0,0.0,0.0,0.0,0.0,0.0,0.0,0.0,0.0,0.0,0.0,4.0096,4.0096,4.0096,4.0096,0.0,0.0,4.0096,4.0096,4.0096,4.0096,4.0096,4.0096,4.0096,4.0096,4.0096,4.0476,4.1204,4.1204,4.1745,4.2692,4.2692,4.2844,4.3125,4.3125,4.3125,4.3125,4.3125,4.3125,4.298,4.1965,4.1424,4.1136,4.0646,4.0333,4.0096,4.0096,4.0096,4.0146,4.0417,4.0476,4.0476,4.0476,4.0578,4.0603,4.0256,4.0263,4.0337,4.0246,4.0412,4.0558,4.0558,4.0728,4.0912,4.0912,4.0912,4.0912,4.0912,4.0912,4.0912,4.0912,4.0912,4.0912,4.0912,4.0912,4.0912,4.0912,4.1018,4.1117,4.1117,4.1117,4.1117,4.1117,4.1117,4.1305,4.1735,4.1906,4.2279,4.2882,4.3032,4.325,4.3515,4.3515,4.3515,4.3515,4.3515,4.3515]}]]